[[{"header":{"parameterUnit":"m.s-1","parameterCategory":1,"la1":30.6,"la2":28.766,"lo1":-90.7593,"lo2":-88.6598,"dy":0.0162,"dx":0.0183,"nx":116,"ny":114,"refTime":"2024-03-27T12:00:00:Z","depth":0,"parameterNumber":2,"parameterNumberName":"U-component_of_WINDS"},"data":[0.0,0.0,0.0,0.0,0.0,0.0,0.0,0.0,0.0,0.0,0.0,0.0,0.0,0.0,0.0,0.0,0.0,0.0,0.0,0.0,0.0,0.0,0.0,0.0,0.0,0.0,0.0,0.0,0.0,0.0,0.0,0.0,0.0,0.0,0.0,0.0,0.0,0.0,0.0,0.0,0.0,0.0,0.0,0.0,0.0,0.0,0.0,0.0,0.0,0.0,0.0,0.0,0.0,0.0,0.0,0.0,0.0,0.0,0.0,0.0,0.0,0.0,0.0,0.0,0.0,0.0,0.0,0.0,0.0,0.0,0.0,0.0,0.0,0.0,0.0,0.0,0.0,0.0,0.0,0.0,0.0,0.0,0.0,0.0,0.0,0.0,0.0,0.0,0.0,0.0,0.0,0.0,0.0,0.0,0.0,0.0,0.0,0.0,0.0,0.0,0.0,0.0,0.0,0.0,0.0,0.0,0.0,0.0,0.0,0.0,0.0,0.0,0.0,0.0,0.0,0.0,0.0,0.0,0.0,0.0,0.0,0.0,0.0,0.0,0.0,0.0,0.0,0.0,0.0,0.0,0.0,0.0,0.0,0.0,0.0,0.0,0.0,0.0,0.0,0.0,0.0,0.0,0.0,0.0,0.0,0.0,0.0,0.0,0.0,0.0,0.0,0.0,0.0,0.0,0.0,0.0,0.0,0.0,0.0,0.0,0.0,0.0,0.0,0.0,0.0,0.0,0.0,0.0,0.0,0.0,0.0,0.0,0.0,0.0,0.0,0.0,0.0,0.0,0.0,0.0,0.0,0.0,0.0,0.0,0.0,0.0,0.0,0.0,0.0,0.0,0.0,0.0,0.0,0.0,0.0,0.0,0.0,0.0,0.0,0.0,0.0,0.0,0.0,0.0,0.0,0.0,0.0,0.0,0.0,0.0,0.0,0.0,0.0,0.0,0.0,0.0,0.0,0.0,0.0,0.0,0.0,0.0,0.0,0.0,0.0,0.0,0.0,0.0,0.0,0.0,0.0,0.0,0.0,0.0,0.0,0.0,0.0,0.0,0.0,0.0,0.0,0.0,0.0,0.0,0.0,0.0,0.0,0.0,0.0,0.0,0.0,0.0,0.0,0.0,0.0,0.0,0.0,0.0,0.0,0.0,0.0,0.0,0.0,0.0,0.0,0.0,0.0,0.0,0.0,0.0,0.0,0.0,0.0,0.0,0.0,0.0,0.0,0.0,0.0,0.0,0.0,0.0,0.0,0.0,0.0,0.0,0.0,0.0,0.0,0.0,0.0,0.0,0.0,0.0,0.0,0.0,0.0,0.0,0.0,0.0,0.0,0.0,0.0,0.0,0.0,0.0,0.0,0.0,0.0,0.0,0.0,0.0,0.0,0.0,0.0,0.0,0.0,0.0,0.0,0.0,0.0,0.0,0.0,0.0,0.0,0.0,0.0,0.0,0.0,0.0,0.0,0.0,0.0,0.0,0.0,0.0,0.0,0.0,0.0,0.0,0.0,0.0,0.0,0.0,0.0,0.0,0.0,0.0,0.0,0.0,0.0,0.0,0.0,0.0,0.0,0.0,0.0,0.0,0.0,0.0,0.0,0.0,0.0,0.0,0.0,0.0,0.0,0.0,0.0,0.0,0.0,0.0,0.0,0.0,0.0,0.0,0.0,0.0,0.0,0.0,0.0,0.0,0.0,0.0,0.0,0.0,0.0,0.0,0.0,0.0,0.0,0.0,0.0,0.0,0.0,0.0,0.0,0.0,0.0,0.0,0.0,0.0,0.0,0.0,0.0,0.0,0.0,0.0,0.0,0.0,0.0,0.0,0.0,0.0,0.0,0.0,0.0,0.0,0.0,0.0,0.0,0.0,0.0,0.0,0.0,0.0,0.0,0.0,0.0,0.0,0.0,0.0,0.0,0.0,0.0,0.0,0.0,0.0,0.0,0.0,0.0,0.0,0.0,0.0,0.0,0.0,0.0,0.0,0.0,0.0,0.0,0.0,0.0,0.0,0.0,0.0,0.0,0.0,0.0,0.0,0.0,0.0,0.0,0.0,0.0,0.0,0.0,0.0,0.0,0.0,0.0,0.0,0.0,0.0,0.0,0.0,0.0,0.0,0.0,0.0,0.0,0.0,0.0,0.0,0.0,0.0,0.0,0.0,0.0,0.0,0.0,0.0,0.0,0.0,0.0,0.0,0.0,0.0,0.0,0.0,0.0,0.0,0.0,0.0,0.0,0.0,0.0,0.0,0.0,0.0,0.0,0.0,0.0,0.0,0.0,0.0,0.0,0.0,0.0,0.0,0.0,0.0,0.0,0.0,0.0,0.0,0.0,0.0,0.0,0.0,0.0,0.0,0.0,0.0,0.0,0.0,0.0,0.0,0.0,0.0,0.0,0.0,0.0,0.0,0.0,0.0,0.0,0.0,0.0,0.0,0.0,0.0,0.0,0.0,0.0,0.0,0.0,0.0,0.0,0.0,0.0,0.0,0.0,0.0,0.0,0.0,0.0,0.0,0.0,0.0,0.0,0.0,0.0,0.0,0.0,0.0,0.0,0.0,0.0,0.0,0.0,0.0,0.0,0.0,0.0,0.0,0.0,0.0,0.0,0.0,0.0,0.0,0.0,0.0,0.0,0.0,0.0,0.0,0.0,0.0,0.0,0.0,0.0,0.0,0.0,0.0,0.0,0.0,0.0,0.0,0.0,0.0,0.0,0.0,0.0,0.0,0.0,0.0,0.0,0.0,0.0,0.0,0.0,0.0,0.0,0.0,0.0,0.0,0.0,0.0,0.0,0.0,0.0,0.0,0.0,0.0,0.0,0.0,0.0,0.0,0.0,0.0,0.0,0.0,0.0,0.0,0.0,0.0,0.0,0.0,0.0,0.0,0.0,0.0,0.0,0.0,0.0,0.0,0.0,0.0,0.0,0.0,0.0,0.0,0.0,0.0,0.0,0.0,0.0,0.0,0.0,0.0,0.0,0.0,0.0,0.0,0.0,0.0,0.0,0.0,0.0,0.0,0.0,0.0,0.0,0.0,0.0,0.0,0.0,0.0,0.0,0.0,0.0,0.0,0.0,0.0,0.0,0.0,0.0,0.0,0.0,0.0,0.0,0.0,0.0,0.0,0.0,0.0,0.0,0.0,0.0,0.0,0.0,0.0,0.0,0.0,0.0,0.0,0.0,0.0,0.0,0.0,0.0,0.0,0.0,0.0,0.0,0.0,0.0,0.0,0.0,0.0,0.0,0.0,0.0,0.0,0.0,0.0,0.0,0.0,0.0,0.0,0.0,0.0,0.0,0.0,0.0,0.0,0.0,0.0,0.0,0.0,0.0,0.0,0.0,0.0,0.0,0.0,0.0,0.0,0.0,0.0,0.0,0.0,0.0,0.0,0.0,0.0,0.0,0.0,0.0,0.0,0.0,0.0,0.0,0.0,0.0,0.0,0.0,0.0,0.0,0.0,0.0,0.0,0.0,0.0,0.0,0.0,0.0,0.0,0.0,0.0,0.0,0.0,0.0,0.0,0.0,0.0,0.0,0.0,0.0,0.0,0.0,0.0,0.0,0.0,0.0,0.0,0.0,0.0,0.0,0.0,0.0,0.0,0.0,0.0,0.0,0.0,0.0,0.0,0.0,0.0,0.0,0.0,0.0,0.0,0.0,0.0,0.0,0.0,0.0,0.0,0.0,0.0,0.0,0.0,0.0,0.0,0.0,0.0,0.0,0.0,0.0,0.0,0.0,0.0,0.0,0.0,0.0,0.0,0.0,0.0,0.0,0.0,0.0,0.0,0.0,0.0,0.0,0.0,0.0,0.0,0.0,0.0,0.0,0.0,0.0,0.0,0.0,0.0,0.0,0.0,0.0,0.0,0.0,0.0,0.0,0.0,0.0,0.0,0.0,0.0,0.0,0.0,0.0,0.0,0.0,0.0,0.0,0.0,0.0,0.0,0.0,0.0,0.0,0.0,0.0,0.0,0.0,0.0,0.0,0.0,0.0,0.0,0.0,0.0,0.0,0.0,0.0,0.0,0.0,0.0,0.0,0.0,0.0,0.0,0.0,0.0,0.0,0.0,0.0,0.0,0.0,0.0,0.0,0.0,0.0,0.0,0.0,0.0,0.0,0.0,0.0,0.0,0.0,0.0,0.0,0.0,0.0,0.0,0.0,0.0,0.0,0.0,0.0,0.0,0.0,0.0,0.0,0.0,0.0,0.0,0.0,0.0,0.0,0.0,0.0,0.0,0.0,0.0,0.0,0.0,0.0,0.0,0.0,0.0,0.0,0.0,0.0,0.0,0.0,0.0,0.0,0.0,0.0,0.0,0.0,0.0,0.0,0.0,0.0,0.0,0.0,0.0,0.0,0.0,0.0,0.0,0.0,0.0,0.0,0.0,0.0,0.0,0.0,0.0,0.0,0.0,0.0,0.0,0.0,0.0,0.0,0.0,0.0,0.0,0.0,0.0,0.0,0.0,0.0,0.0,0.0,0.0,0.0,0.0,0.0,0.0,0.0,0.0,0.0,0.0,0.0,0.0,0.0,0.0,0.0,0.0,0.0,0.0,0.0,0.0,0.0,0.0,0.0,0.0,0.0,0.0,0.0,0.0,0.0,0.0,0.0,0.0,0.0,0.0,0.0,0.0,0.0,0.0,0.0,0.0,0.0,0.0,0.0,0.0,0.0,0.0,0.0,0.0,0.0,0.0,0.0,0.0,0.0,0.0,0.0,0.0,0.0,0.0,0.0,0.0,0.0,0.0,0.0,0.0,0.0,0.0,0.0,0.0,0.0,0.0,0.0,0.0,0.0,0.0,0.0,0.0,0.0,0.0,0.0,0.0,0.0,0.0,0.0,0.0,0.0,0.0,0.0,0.0,0.0,0.0,0.0,0.0,0.0,0.0,0.0,0.0,0.0,0.0,0.0,0.0,0.0,0.0,0.0,0.0,0.0,0.0,0.0,0.0,0.0,0.0,0.0,0.0,0.0,0.0,0.0,0.0,0.0,0.0,0.0,0.0,0.0,0.0,0.0,0.0,0.0,0.0,0.0,0.0,0.0,0.0,0.0,0.0,0.0,0.0,0.0,0.0,0.0,0.0,0.0,0.0,0.0,0.0,0.0,0.0,0.0,0.0,0.0,0.0,0.0,0.0,0.0,0.0,0.0,0.0,0.0,0.0,0.0,0.0,0.0,0.0,0.0,0.0,0.0,0.0,0.0,0.0,0.0,0.0,0.0,0.0,0.0,0.0,0.0,0.0,0.0,0.0,0.0,0.0,0.0,0.0,0.0,0.0,0.0,0.0,0.0,0.0,0.0,0.0,0.0,0.0,0.0,0.0,0.0,0.0,0.0,0.0,0.0,0.0,0.0,0.0,0.0,0.0,0.0,0.0,0.0,0.0,0.0,0.0,0.0,0.0,0.0,0.0,0.0,0.0,0.0,0.0,0.0,0.0,0.0,0.0,0.0,0.0,0.0,0.0,0.0,0.0,0.0,0.0,0.0,0.0,0.0,0.0,0.0,0.0,0.0,0.0,0.0,0.0,0.0,0.0,0.0,0.0,0.0,0.0,0.0,0.0,0.0,0.0,0.0,0.0,0.0,0.0,0.0,0.0,0.0,0.0,0.0,0.0,0.0,0.0,0.0,0.0,0.0,0.0,0.0,0.0,0.0,0.0,0.0,0.0,0.0,0.0,0.0,0.0,0.0,0.0,0.0,0.0,0.0,0.0,0.0,0.0,0.0,0.0,0.0,0.0,0.0,0.0,0.0,0.0,0.0,0.0,0.0,0.0,0.0,0.0,0.0,0.0,0.0,0.0,0.0,0.0,0.0,0.0,0.0,0.0,0.0,0.0,0.0,0.0,0.0,0.0,0.0,0.0,0.0,0.0,0.0,0.0,0.0,0.0,0.0,0.0,0.0,0.0,0.0,0.0,0.0,0.0,0.0,0.0,0.0,0.0,0.0,0.0,0.0,0.0,0.0,0.0,0.0,0.0,0.0,0.0,0.0,0.0,0.0,0.0,0.0,0.0,0.0,0.0,0.0,0.0,0.0,0.0,0.0,0.0,0.0,0.0,0.0,0.0,0.0,0.0,0.0,0.0,0.0,0.0,0.0,0.0,1.7405,0.0,0.0,0.0,0.0,0.0,0.0,0.0,0.0,0.0,0.0,0.0,0.0,0.0,0.0,0.0,0.0,0.0,0.0,0.0,0.0,0.0,0.0,0.0,0.0,0.5828,0.6042,0.6051,0.6203,0.6291,0.6291,0.0,0.0,0.0,0.0,0.0,0.6538,0.6848,0.7384,0.8166,0.8591,0.8953,0.9306,1.0194,1.0696,1.091,0.0,0.0,0.0,0.0,0.0,0.0,0.0,0.0,0.0,0.0,0.0,0.0,0.0,0.0,0.0,0.0,0.0,0.0,0.0,0.0,0.0,0.0,0.0,0.0,0.0,0.0,0.0,0.0,0.0,0.0,0.0,0.0,0.0,0.0,0.0,0.0,0.0,0.0,0.0,0.0,0.0,0.0,0.0,0.0,0.0,0.0,0.0,0.0,0.0,0.0,0.0,0.0,0.0,0.0,0.0,0.0,0.0,0.0,0.0,0.0,0.0,0.0,0.0,0.0,0.0,0.0,0.0,0.0,0.0,0.0,0.0,1.8982,0.0,0.0,0.0,0.0,0.0,0.0,0.0,0.0,0.0,0.0,0.0,0.0,0.0,0.0,0.0,0.0,0.0,0.0,0.0,0.0,0.0,0.5691,0.5418,0.5877,0.6131,0.5906,0.6147,0.6291,0.6291,0.6291,0.0,0.0,0.0,0.6458,0.6792,0.6925,0.762,0.8876,0.828,0.8631,0.9845,1.0924,1.1216,1.0883,1.1377,0.0,0.0,0.0,0.0,0.0,0.0,0.0,0.0,0.0,0.0,0.0,0.0,0.0,0.0,0.0,0.0,0.0,0.0,0.0,0.0,0.0,0.0,0.0,0.0,0.0,0.0,0.0,0.0,0.0,0.0,0.0,0.0,0.0,0.0,0.0,0.0,0.0,0.0,0.0,0.0,0.0,0.0,0.0,0.0,0.0,0.0,0.0,0.0,0.0,0.0,0.0,0.0,0.0,0.0,0.0,0.0,0.0,0.0,0.0,0.0,0.0,0.0,0.0,1.9115,1.9723,2.0352,2.0474,2.0641,2.0835,2.1003,2.0516,1.9659,0.0,0.0,0.0,0.0,0.0,0.0,0.0,0.0,0.0,0.0,0.0,0.0,0.0,0.0,0.0,0.0,0.0,0.0,0.0,0.0,0.5883,0.6132,0.5987,0.5963,0.6219,0.6283,0.6291,0.6291,0.6291,0.6291,0.6291,0.6291,0.6458,0.6792,0.7435,0.7819,0.7971,0.8503,0.9421,1.0722,1.0438,1.0462,1.0757,1.1335,1.1851,1.2244,0.0,0.0,0.0,0.0,0.0,0.0,0.0,0.0,0.0,0.0,0.0,0.0,0.0,0.0,0.0,0.0,0.0,0.0,0.0,0.0,0.0,0.0,0.0,0.0,0.0,0.0,0.0,0.0,0.0,0.0,0.0,0.0,0.0,0.0,0.0,0.0,0.0,0.0,0.0,0.0,0.0,1.5668,1.5162,0.0,0.0,0.0,0.0,0.0,0.0,0.0,0.0,0.0,0.0,0.0,0.0,0.0,0.0,1.855,1.9274,1.9614,1.9595,1.9701,2.002,2.0595,2.1165,2.197,2.2942,2.3527,0.0,2.0191,2.0258,0.0,0.0,0.0,0.0,0.0,0.0,0.0,0.0,0.0,0.0,0.0,0.0,0.0,0.0,0.0,0.0,0.0,0.0,0.0,0.0,0.0,0.6339,0.6419,0.657,0.7135,0.7231,0.6609,0.6935,0.6966,0.6594,0.6586,0.6824,0.7354,0.7497,0.773,0.8083,0.935,1.0115,1.0398,1.0743,1.0924,1.0996,1.1533,1.1806,1.1838,1.1719,0.0,0.0,0.0,0.0,0.0,0.0,0.0,0.0,0.0,0.0,0.0,0.0,0.0,0.0,0.0,0.0,0.0,0.0,0.0,0.0,0.0,0.0,0.0,0.0,0.0,0.0,0.0,0.0,0.0,0.0,0.0,0.0,0.0,0.0,0.0,0.0,0.0,0.0,0.0,1.666,1.6793,1.6002,1.6996,1.7946,0.0,0.0,0.0,0.0,0.0,0.0,0.0,0.0,0.0,1.7917,1.9136,1.9662,1.9342,2.0386,2.0875,2.0814,2.118,2.1509,2.1722,2.2024,2.2673,2.3551,2.3848,2.3488,2.2596,2.1761,2.1196,2.0835,0.0,0.0,0.0,0.0,2.1312,2.172,0.0,0.0,0.0,0.0,0.0,0.0,0.0,0.0,0.0,0.0,0.0,0.0,0.653,0.6754,0.6971,0.7181,0.7763,0.7811,0.71,0.7275,0.7275,0.6935,0.6839,0.7116,0.7788,0.7724,0.8148,0.9095,1.0076,1.0532,1.046,1.109,1.1347,1.1287,1.1646,1.1785,1.1815,1.2179,1.2375,1.2449,0.0,0.0,0.0,0.0,0.0,0.0,0.0,0.0,0.0,0.0,0.0,0.0,0.0,0.0,0.0,0.0,0.0,0.0,0.0,0.0,0.0,0.0,0.0,0.0,0.0,0.0,0.0,0.0,0.0,0.0,0.0,0.0,0.0,0.0,0.0,0.0,0.0,1.7014,1.7329,1.6419,1.7389,1.8265,0.0,0.0,0.0,0.0,0.0,0.0,1.9725,2.0439,2.0313,1.9178,2.0309,2.0722,2.0322,2.1209,2.1861,2.2257,2.2719,2.3085,2.3399,2.3554,2.4005,2.4665,2.469,2.4893,2.5136,2.3342,2.2304,2.175,2.1073,2.0839,2.0994,2.1653,2.2128,2.2473,0.0,0.0,0.0,0.0,0.0,0.0,0.0,0.0,0.0,0.0,0.0,0.6398,0.7176,0.7154,0.7417,0.8254,0.7731,0.7458,0.7725,0.6895,0.6642,0.7245,0.6966,0.7116,0.7788,0.8396,0.9554,1.1247,1.0366,1.0554,1.1704,1.1235,1.1187,1.1491,1.1507,1.1903,1.2549,1.2637,1.2708,1.2829,1.3324,0.0,0.0,0.0,0.0,0.0,0.0,0.0,0.0,0.0,0.0,0.0,0.0,0.0,0.0,0.0,0.0,0.0,0.0,0.0,0.0,0.0,0.0,0.0,0.0,0.0,0.0,0.0,0.0,0.0,0.0,0.0,0.0,0.0,0.0,0.0,0.0,0.0,0.0,1.541,1.7324,0.0,0.0,0.0,0.0,1.9904,1.9982,1.9914,1.9805,2.084,2.097,1.9887,2.0944,2.1682,2.1965,2.192,2.2574,2.396,2.3865,2.4436,2.5574,2.6217,2.679,2.7314,2.7382,2.7396,2.7149,2.4527,2.3332,2.3117,2.2449,2.2229,2.2366,2.3037,2.3375,2.3618,0.0,0.0,0.0,0.0,0.0,0.481,0.5161,0.5479,0.5807,0.616,0.6586,0.6988,0.727,0.7868,0.8391,0.8701,0.8871,0.8839,0.8537,0.8166,0.8071,0.8325,0.8017,0.7931,0.8124,0.8567,0.9212,1.0052,1.016,1.0698,1.1603,1.1409,1.1503,1.1837,1.209,1.2214,1.2189,1.1822,1.1726,1.1864,1.2142,1.2477,0.0,0.0,0.0,0.0,0.0,0.0,0.0,0.0,0.0,0.0,0.0,0.0,0.0,0.0,0.0,0.0,0.0,0.0,0.0,0.0,0.0,0.0,0.0,0.0,0.0,0.0,0.0,0.0,0.0,0.0,0.0,0.0,0.0,0.0,0.0,0.0,0.0,1.7929,1.9081,0.0,0.0,1.945,1.981,2.0523,2.0859,2.0998,2.0952,2.2162,2.2487,2.1726,2.3232,2.409,2.4219,2.4563,2.5006,2.551,2.5465,2.5676,2.6102,2.6422,2.6667,2.6859,2.7019,2.7281,2.7456,2.6089,2.5167,2.454,2.35,2.3285,2.3691,2.439,2.4647,2.474,0.0,0.0,0.0,0.0,0.4278,0.4758,0.5106,0.5352,0.5645,0.604,0.6639,0.7199,0.7626,0.8338,0.8974,0.9406,0.9505,0.938,0.8921,0.8458,0.825,0.8386,0.8272,0.8269,0.8418,0.874,0.9117,0.9537,1.0026,1.0574,1.1174,1.1456,1.1776,1.2119,1.2633,1.2696,1.2397,1.1821,1.1437,1.1258,1.1627,1.217,1.2785,0.0,0.0,0.0,0.0,0.0,0.0,0.0,0.0,0.0,0.0,0.0,0.0,0.0,0.0,0.0,0.0,0.0,0.0,0.0,0.0,0.0,0.0,0.0,0.0,0.0,0.0,0.0,0.0,0.0,0.0,0.0,0.0,0.0,0.0,0.0,1.9612,2.0309,2.0988,2.1364,2.1306,2.0961,2.1086,2.1861,2.1951,2.2152,2.2551,2.3567,2.3946,2.3572,2.4839,2.5569,2.5599,2.5939,2.6277,2.6614,2.6738,2.6939,2.7184,2.7466,2.7546,2.7411,2.7343,2.7561,2.7878,2.7002,2.6567,2.6307,2.5028,2.46,2.4817,2.5689,2.6016,2.5999,0.0,0.0,0.0,0.3429,0.3936,0.4387,0.4655,0.5148,0.5588,0.5845,0.6262,0.7009,0.8221,0.8509,0.9097,1.0324,0.9466,0.8863,0.8893,0.7579,0.6986,0.7409,0.7688,0.8113,0.8701,0.8968,0.9397,1.0005,1.0005,1.0186,1.055,1.1383,1.1972,1.23,1.2961,1.3248,1.3217,1.2713,1.1973,1.1209,1.1965,1.2473,1.2779,0.0,0.0,0.0,0.0,0.0,0.0,0.0,0.0,0.0,0.0,0.0,0.0,0.0,0.0,0.0,0.0,0.0,0.0,0.0,0.0,0.0,0.0,0.0,0.0,0.0,0.0,0.0,0.0,0.0,0.0,0.0,0.0,0.0,1.8853,1.9852,2.1021,2.2226,2.2917,2.3256,2.3243,2.2612,2.2681,2.385,2.3217,2.3294,2.4476,2.4968,2.5225,2.5267,2.5635,2.5918,2.6101,2.596,2.6343,2.7275,2.766,2.8216,2.8917,2.9536,2.9587,2.9168,2.856,2.8433,2.8546,2.7337,2.7483,2.8348,2.7027,2.615,2.5741,2.6986,2.7405,2.738,0.0,0.0,0.3405,0.3431,0.3867,0.4276,0.4386,0.4991,0.5412,0.5396,0.6555,0.7345,0.7311,0.8171,0.8789,0.8894,0.8194,0.7966,0.8506,0.7443,0.718,0.8016,0.8306,0.859,0.8911,0.9078,0.9433,0.9935,1.0117,1.0542,1.1159,1.1403,1.1502,1.1523,1.2009,1.2213,1.2207,1.2212,1.2171,1.2101,1.1882,1.195,1.2231,0.0,0.0,0.0,0.0,0.0,0.0,0.0,0.0,0.0,0.0,0.0,0.0,0.0,0.0,0.0,0.0,0.0,0.0,0.0,0.0,0.0,0.0,0.0,0.0,0.0,0.0,0.0,0.0,0.0,0.0,0.0,0.0,2.0055,2.0471,2.1563,2.2656,2.3655,2.4364,2.4766,2.4664,2.4563,2.4575,2.4833,2.4599,2.4723,2.5404,2.5577,2.602,2.685,2.6789,2.7259,2.8385,2.7711,2.7823,2.8724,2.883,2.8987,2.9197,2.946,2.9504,2.9371,2.8924,2.8853,2.8972,2.819,2.7906,2.7864,2.7463,2.7454,2.7715,2.8065,2.7618,2.694,0.0,0.2561,0.3169,0.3541,0.3862,0.4117,0.4269,0.4861,0.5242,0.5167,0.6399,0.7182,0.693,0.7607,0.8036,0.7933,0.7437,0.7252,0.7543,0.7083,0.7164,0.7972,0.8239,0.8578,0.9019,0.9122,0.9459,1.0084,1.0119,1.0315,1.0699,1.1153,1.1226,1.1021,1.1624,1.1867,1.1889,1.1924,1.2248,1.2702,1.2215,1.2243,1.259,1.2564,1.3144,1.3993,1.4136,1.4651,1.5173,1.4449,0.0,0.0,0.0,0.0,0.0,0.0,0.0,0.0,0.0,0.0,0.0,0.0,0.0,0.0,0.0,0.0,0.0,0.0,0.0,0.0,0.0,0.0,0.0,0.0,2.1131,2.2035,2.3244,2.3431,2.3875,2.4998,2.5531,2.5844,2.6008,2.583,2.5763,2.5951,2.5628,2.5643,2.6155,2.6181,2.6462,2.7145,2.7018,2.7521,2.8749,2.8254,2.8435,2.9292,2.951,2.964,2.964,2.9966,3.003,0.0,2.9627,2.9359,2.9067,2.906,2.8783,0.0,0.0,0.0,0.0,0.0,2.8033,2.7513,0.0,0.2179,0.278,0.3678,0.3896,0.4009,0.4178,0.4696,0.5026,0.4897,0.583,0.651,0.6517,0.6686,0.687,0.7042,0.68,0.6563,0.6395,0.6668,0.7073,0.7607,0.7869,0.8317,0.8996,0.9048,0.9399,1.0107,0.9872,0.9725,0.971,1.0675,1.0931,1.0602,1.1406,1.1798,1.1818,1.163,1.2102,1.2929,1.2628,1.2867,1.3397,1.3057,1.3962,1.5333,1.5057,1.5245,1.5591,1.5199,0.0,0.0,0.0,0.0,0.0,0.0,0.0,0.0,0.0,0.0,0.0,0.0,0.0,0.0,0.0,0.0,0.0,0.0,0.0,0.0,0.0,0.0,0.0,0.0,2.3215,2.4123,2.6135,2.5228,2.4822,2.6189,2.6336,2.6566,2.7083,2.6553,2.6389,2.6922,2.6277,2.61,2.667,0.0,0.0,0.0,0.0,2.7246,2.8174,2.8192,2.8638,2.9501,2.9962,3.0205,3.0205,3.0764,3.0823,3.0471,3.0418,2.9874,2.9164,2.9797,2.9776,2.9289,2.8877,2.8334,2.7869,2.8339,2.8498,2.8498,0.0,0.285,0.3628,0.3515,0.3905,0.4102,0.3708,0.4334,0.4543,0.3682,0.4596,0.5044,0.4311,0.4646,0.4936,0.497,0.4972,0.5326,0.6178,0.6797,0.734,0.7832,0.8287,0.8517,0.8452,0.8724,0.8859,0.8855,0.8847,0.9093,0.9543,0.9907,0.9994,0.9818,1.0158,1.0495,1.0796,1.0747,1.1209,1.1982,1.1901,1.2589,1.3648,1.3746,1.3882,1.4113,1.4467,1.4959,1.5454,1.5358,1.5339,1.5332,1.5192,1.4449,0.0,0.0,0.0,0.0,0.0,0.0,0.0,0.0,0.0,0.0,0.0,0.0,0.0,0.0,0.0,0.0,0.0,0.0,0.0,2.2788,2.3368,2.4088,2.5634,2.5858,2.608,2.6564,2.662,2.6668,2.6783,2.6673,2.6631,2.6745,2.607,2.5956,2.6675,2.6126,0.0,2.7387,2.7431,2.8046,2.9358,2.9358,2.9802,3.0678,0.0,0.0,3.0817,3.0966,3.0959,3.0865,3.0357,3.0242,3.0317,2.9988,2.9983,3.0106,2.955,2.9242,2.9083,2.873,2.8569,2.8569,0.0,0.3206,0.3666,0.3398,0.3731,0.3911,0.3503,0.405,0.4206,0.3399,0.4025,0.431,0.3663,0.3784,0.388,0.385,0.4194,0.4829,0.5826,0.6503,0.6971,0.7228,0.7641,0.7861,0.7902,0.7992,0.8139,0.829,0.8199,0.8468,0.9103,0.931,0.9478,0.9602,0.9846,1.006,1.0239,1.0113,1.0554,1.1347,1.1347,1.2009,1.3047,1.3403,1.407,1.4832,1.5099,1.5442,1.572,1.547,1.5226,1.5047,1.5011,1.442,1.3831,0.0,0.0,0.0,0.0,0.0,0.0,0.0,0.0,0.0,0.0,0.0,0.0,0.0,0.0,1.9418,2.0578,0.0,2.2155,2.4312,2.4643,2.507,2.6276,2.6255,2.6138,2.6271,2.6308,2.6308,2.6308,2.6308,2.6308,2.6308,2.5949,2.5911,2.6288,2.5929,2.6042,2.6711,2.6754,2.7312,2.845,2.845,2.9101,3.0343,3.0343,3.057,3.0992,3.0992,3.0992,3.0992,3.0686,3.049,3.0375,3.0174,3.0281,3.0519,3.0327,3.0133,2.9903,2.9604,2.9496,2.9496,0.0,0.3256,0.3373,0.3318,0.3556,0.3659,0.3329,0.3694,0.3798,0.3218,0.3451,0.3549,0.3241,0.3096,0.3078,0.3226,0.3859,0.4597,0.5426,0.6084,0.6476,0.6542,0.6885,0.7127,0.7265,0.7139,0.7285,0.774,0.7501,0.7734,0.8383,0.8754,0.9096,0.9416,0.9813,0.9973,0.9907,0.9689,1.0016,1.0657,1.0657,1.1209,1.2095,1.2469,1.3814,1.5471,1.5582,1.5581,1.5461,1.5257,1.4806,1.436,1.4642,1.4463,1.4216,1.4491,1.4804,0.0,0.0,0.0,0.0,0.0,0.0,0.0,0.0,0.0,1.8524,1.9057,1.9674,2.059,2.2089,2.2778,2.3752,2.5665,2.5768,2.5913,2.6803,2.6343,2.5906,2.5906,2.5906,2.5906,2.5906,2.5906,2.5906,2.5906,2.5906,2.5906,2.5906,2.5906,2.5906,2.5906,2.6052,2.6488,2.7185,2.7368,2.8111,2.9452,2.9452,2.9819,3.0495,3.0672,3.0748,3.0766,3.0955,3.0768,3.0349,3.055,3.0732,3.0894,3.1119,3.0984,3.0665,3.0483,3.0455,3.0554,0.0,0.2864,0.3042,0.3253,0.3474,0.3456,0.2945,0.3123,0.3058,0.2339,0.2185,0.2062,0.1844,0.1703,0.2003,0.2952,0.3643,0.4331,0.5022,0.5798,0.6272,0.6327,0.6994,0.7061,0.6455,0.6306,0.6296,0.6414,0.6323,0.6596,0.7218,0.8193,0.8662,0.876,0.9619,0.9864,0.9646,0.9602,0.9559,0.9493,0.9493,1.0137,1.1123,1.1004,1.2178,1.3939,1.4462,1.41,1.3459,1.4264,1.4098,1.3919,1.5698,1.5707,1.5118,1.5444,0.0,1.4472,1.402,1.4811,1.5893,1.6436,1.729,1.797,0.0,0.0,1.9339,1.9357,2.0576,2.1843,2.2456,2.3342,2.4305,2.5318,2.5346,2.5436,2.5965,2.5969,2.5906,2.5906,2.5906,2.5906,2.5906,2.5906,2.5906,2.5906,2.5906,2.5906,2.5906,2.5906,2.5906,2.5906,2.6631,2.7103,2.7205,2.7911,2.8367,2.8545,2.8545,2.8604,2.8723,2.9491,2.9839,2.9896,3.0835,3.1246,3.1167,3.1378,3.1497,3.1534,3.1709,3.1774,3.1622,3.0729,3.0744,3.1124,0.0,0.0,0.3063,0.302,0.3207,0.3265,0.2966,0.2946,0.2804,0.234,0.1922,0.1681,0.1711,0.1805,0.2077,0.2603,0.3225,0.3674,0.3883,0.4353,0.4443,0.4049,0.4846,0.513,0.4733,0.5208,0.5477,0.5492,0.5473,0.5879,0.6661,0.7117,0.7473,0.778,0.87,0.8916,0.8588,0.9012,0.9152,0.9065,0.9065,0.9269,0.9658,1.016,1.0658,1.1275,1.2709,1.3009,0.0,1.2951,1.2815,1.2837,1.4384,1.4399,1.4026,1.4871,1.4778,0.0,1.4663,1.5158,0.0,0.0,1.7677,1.851,1.8716,1.9817,2.0874,2.1199,2.2211,2.33,2.4086,2.4529,2.496,0.0,2.5632,2.5666,2.5863,2.5906,2.5797,2.5534,2.549,2.5599,2.5863,2.5906,2.5906,2.5906,2.5906,2.5906,2.5906,2.5906,2.5906,2.5906,2.6239,2.6447,2.6447,2.6775,2.7203,2.771,2.771,2.7951,2.8426,2.9316,2.9973,3.0476,3.0936,3.1123,3.1123,3.1224,3.1261,3.128,3.1596,3.1725,3.1708,3.1505,3.1603,3.1793,0.0,0.0,0.0,0.2934,0.3036,0.3089,0.2945,0.2837,0.2675,0.2409,0.1783,0.1422,0.1587,0.178,0.1983,0.2187,0.2609,0.2815,0.272,0.3047,0.2991,0.24,0.3103,0.346,0.3325,0.3974,0.4404,0.4609,0.467,0.5099,0.586,0.6135,0.6376,0.6646,0.7526,0.7702,0.7394,0.8171,0.8464,0.842,0.8634,0.8652,0.8598,0.9156,0.9255,0.9325,1.1209,1.1813,1.1715,1.1627,1.1626,1.1829,1.3033,1.3254,1.3253,1.4261,1.4353,1.4303,1.5117,0.0,0.0,1.7426,1.8632,1.9644,2.0109,2.1276,2.2402,2.2819,2.3474,2.4206,2.5018,2.5147,2.5262,2.5645,2.5819,2.5906,2.5906,2.5775,2.5599,2.5228,2.5075,2.5184,2.5644,2.571,2.5753,2.5884,2.5906,2.5906,2.5906,2.5906,2.5906,2.5906,2.5906,2.5906,2.5906,2.5906,2.6218,2.6837,2.6837,2.7165,2.7747,2.8841,2.9819,3.0653,3.0898,3.0992,3.0992,3.0992,3.0992,3.1011,3.1392,3.1522,3.1577,3.1982,3.2146,3.22,0.0,0.0,0.0,0.0,0.3084,0.2933,0.2745,0.2708,0.261,0.2338,0.1551,0.1043,0.1109,0.1129,0.1291,0.1683,0.1735,0.1747,0.174,0.2298,0.253,0.2308,0.2636,0.2761,0.2626,0.2599,0.293,0.3644,0.3842,0.4107,0.4477,0.546,0.5712,0.5394,0.6136,0.635,0.6223,0.7158,0.7401,0.7217,0.8,0.8363,0.8343,0.7791,0.7977,0.8716,1.0284,1.0385,0.9874,1.0451,1.0767,1.1142,1.2352,1.3084,0.0,1.4075,1.393,1.384,0.0,0.0,1.7216,1.8678,2.0327,2.1713,2.2127,2.3047,2.3807,2.3699,2.3904,2.4173,2.4473,2.4737,2.4977,2.5191,2.5599,2.5906,2.5906,2.5512,2.5206,2.5184,2.4812,2.4703,0.0,2.5206,2.5403,2.5863,2.5906,2.5906,2.5906,2.5906,2.5906,2.5906,2.5906,2.5906,2.5906,2.5906,2.5927,2.5948,2.5948,2.5948,2.6031,2.7686,2.892,2.9781,3.0634,3.0992,3.0992,3.0992,3.0992,3.1011,3.1235,3.131,3.1365,3.1762,3.2036,3.22,0.0,0.0,0.0,0.0,0.0,0.3185,0.2933,0.2708,0.2529,0.2442,0.1789,0.0,0.0,0.0,0.0,0.0,0.1389,0.1475,0.1246,0.1385,0.1339,0.105,0.1576,0.1834,0.174,0.2144,0.2476,0.2674,0.265,0.2922,0.348,0.3822,0.3985,0.4006,0.4972,0.5203,0.4903,0.5838,0.6511,0.6959,0.6913,0.7191,0.7537,0.6878,0.705,0.7727,0.0,0.8963,0.9492,0.982,0.9976,1.0183,1.1036,1.1494,1.1977,1.3335,1.4337,1.5158,1.5855,0.0,1.8703,1.9625,2.0972,2.2247,2.2737,2.3358,2.3764,2.3435,2.3224,2.3043,2.289,2.2915,2.3103,2.3411,2.4198,2.4891,2.5189,2.5482,2.5426,2.4812,2.4616,0.0,0.0,0.0,0.0,2.5863,2.578,2.5759,2.5906,2.578,2.5759,2.5906,2.5906,2.5906,2.5906,2.5906,2.5906,2.5906,2.5906,2.6466,2.7588,2.8148,2.9174,3.057,3.0861,3.0992,3.0992,3.0992,3.1067,3.1216,3.1429,3.1577,3.1743,3.2,3.2146,3.22,0.0,0.0,0.0,0.0,0.0,0.0,0.0,0.0,0.0,0.0,0.0,0.0,0.0,0.0,0.0,0.0,0.0,0.1049,0.0832,0.0799,0.0631,0.0268,0.0622,0.0721,0.0479,0.0848,0.1112,0.1227,0.1272,0.1584,0.2148,0.2283,0.2484,0.2728,0.3447,0.368,0.3619,0.4561,0.527,0.5769,0.5889,0.6147,0.6408,0.61,0.6407,0.0,0.7375,0.8202,0.9167,0.9491,0.9627,0.9749,1.0221,1.0751,1.1499,1.3239,1.4746,1.6075,1.7134,1.8482,1.9748,2.0651,2.1469,2.2229,2.2939,2.3083,2.3038,2.2817,2.203,2.1371,2.1321,2.1067,2.1112,2.1989,2.2735,2.3533,2.4493,2.4869,2.4962,2.4772,2.4596,0.0,0.0,0.0,0.0,2.5863,2.578,2.5759,2.5906,2.578,2.578,2.5906,2.5906,2.5906,2.5906,2.5906,2.5906,2.5906,2.5906,2.6445,2.7528,2.783,2.8589,2.969,3.0266,3.0558,3.0552,3.0861,3.1067,3.1198,3.1336,3.1466,3.1614,3.189,3.1945,3.1908,0.0,0.0,0.0,0.0,0.0,0.0,0.0,0.0,0.0,0.0,0.0,0.0,0.0,0.0,0.0,0.0,0.0,0.0,0.0498,0.0538,0.039,0.0,-0.015,-0.0479,-0.1003,-0.1142,-0.0987,-0.0527,-0.0231,0.0143,0.058,0.097,0.1299,0.1581,0.1671,0.1953,0.2419,0.3313,0.3695,0.3798,0.4933,0.5265,0.515,0.5463,0.6008,0.6693,0.7298,0.8081,0.8908,0.9445,0.9706,0.9851,0.9996,1.0856,1.2139,1.3754,1.5147,1.6593,1.8573,1.9544,2.037,2.1726,2.1813,2.1852,2.2795,2.2308,2.1709,2.179,2.033,1.9197,0.0,0.0,1.9141,2.087,2.1281,2.2021,2.3908,2.3822,2.3959,0.0,0.0,0.0,0.0,0.0,0.0,2.5885,0.0,2.5907,2.5885,2.5907,2.5907,2.5906,2.5906,2.5906,2.5906,2.5906,2.5906,2.5906,2.5906,2.5927,2.599,2.6816,2.7226,2.7348,2.9003,2.9704,2.9762,3.0653,3.0992,3.1011,3.1011,3.1011,3.1093,3.1447,3.1485,3.1365,0.0,0.0,0.0,0.0,0.0,0.0,0.0,0.0,0.0,0.0,0.0,0.0,0.0,0.0,0.0,0.0,0.0,0.0,0.0425,0.0254,0.0044,-0.021,-0.05,-0.081,-0.1146,-0.1282,-0.1219,-0.0944,-0.1115,-0.0735,0.0152,0.0303,0.071,0.1318,0.1576,0.1766,0.1901,0.2133,0.2828,0.3776,0.3775,0.437,0.5266,0.5407,0.596,0.677,0.7474,0.8368,0.9296,0.0,0.0,0.0,0.0,1.132,1.248,1.4033,1.5654,1.7234,1.8639,1.9869,2.0834,2.1193,2.1475,2.1673,2.1665,2.0832,1.9868,1.9361,1.7911,1.6704,0.0,0.0,0.0,1.8765,2.0176,0.0,2.3436,2.4006,0.0,0.0,0.0,2.5283,2.5228,2.5819,0.0,0.0,2.6174,2.6043,2.5697,2.6022,2.6107,2.5906,2.5906,2.5906,2.5906,2.5906,2.5906,2.5906,2.5906,2.6239,2.6878,2.7103,2.7528,2.8148,2.9238,2.9704,2.9762,3.0653,3.1086,3.1216,3.1216,3.1336,3.1447,3.1559,3.1559,3.1522,0.0,0.0,0.0,0.0,0.0,0.0,0.0,0.0,0.0,0.0,0.0,0.0,0.0,0.0,0.0,0.0,0.0,0.0,0.0,0.0354,0.0008,-0.0453,-0.0687,-0.1047,-0.1586,-0.1611,-0.161,-0.158,-0.1565,-0.1236,-0.0604,-0.0333,0.0139,0.0771,0.1137,0.1384,0.1546,0.1773,0.2295,0.0,0.0,0.3887,0.4779,0.5234,0.6026,0.6989,0.7512,0.0,0.0,0.0,0.0,1.1303,1.1742,1.2568,1.3661,1.5251,0.0,1.7914,1.9211,2.0113,2.0687,2.0687,2.0456,2.013,1.9871,1.886,1.7743,1.6932,1.5878,0.0,0.0,0.0,0.0,0.0,0.0,0.0,2.2111,2.3419,2.4304,0.0,2.5211,0.0,2.5631,2.6324,2.6605,0.0,2.6452,2.6476,2.6239,2.6239,2.6238,2.6213,2.6016,2.5906,2.5906,2.6082,2.6082,2.5906,2.5906,2.6156,2.6633,2.6633,2.6878,2.7386,0.0,2.9116,2.9213,3.0476,3.1067,3.1161,3.1161,3.1375,3.1661,3.1508,3.1569,3.1661,0.0,0.0,0.0,0.0,0.0,0.0,0.0,0.0,0.0,0.0,0.2826,0.0,0.0,0.0,0.0,0.0,0.0,0.0,0.0,0.0,0.0132,-0.0605,-0.0731,-0.116,-0.1947,-0.1855,-0.1877,-0.2037,-0.1611,-0.1348,-0.1226,-0.072,-0.0221,0.0264,0.064,0.0966,0.1263,0.1782,0.1992,0.2063,0.3065,0.3728,0.4246,0.0,0.618,0.7207,0.0,0.0,0.0,0.0,1.1658,1.2456,1.3121,1.399,1.5069,1.6596,1.7563,1.8428,1.9738,2.0096,2.0099,2.0099,1.9165,1.8159,1.7884,1.6827,1.5664,1.4765,0.0,1.3831,1.3822,0.0,1.5156,1.7061,0.0,1.943,2.0756,2.2499,2.376,2.4105,2.5225,2.602,2.6173,2.6776,2.6897,2.634,2.6809,2.7078,2.6948,2.654,2.6368,2.6497,2.6234,2.6059,2.5994,2.6387,2.6431,2.6081,2.6016,2.5994,2.5994,2.5994,2.5972,2.599,0.0,0.0,2.8666,3.0273,3.1055,3.1227,3.1227,3.1522,3.1869,3.1679,3.1753,3.1888,0.0,0.0,0.0,0.0,0.0,0.0,0.0,0.0,0.0,0.0,0.3191,0.2762,0.0,0.0,0.0,0.0,0.0,0.0,0.0,0.0,0.0,-0.0272,-0.0563,-0.0894,-0.1263,-0.1255,-0.123,-0.1212,-0.1016,-0.0746,-0.0402,-0.0028,0.0282,0.0542,0.0724,0.0835,0.0909,0.1338,0.1859,0.2441,0.3025,0.3917,0.4988,0.5653,0.0,0.0,0.0,0.0,0.0,0.0,1.1621,1.2239,1.3236,1.4265,1.5331,1.6438,1.7275,1.8035,1.8852,1.9059,1.9042,1.9042,1.847,1.7727,1.7068,1.564,0.0,0.0,0.0,1.2355,1.2361,1.3354,0.0,1.6384,0.0,0.0,0.0,0.0,2.2786,0.0,0.0,0.0,0.0,0.0,0.0,0.0,0.0,2.7492,2.6702,2.6796,2.6606,2.6038,2.6715,2.6868,2.6475,2.6562,2.6758,2.7042,2.6649,2.6475,2.6475,2.6475,2.6256,2.5969,2.6981,0.0,2.9201,3.0248,3.1362,3.2404,3.2404,3.2463,3.2594,3.3026,3.2921,3.2542,0.0,0.0,0.0,0.0,0.0,0.0,0.0,0.3884,0.3894,0.3863,0.35,0.3179,0.2944,0.2627,0.2346,0.0,0.0,0.0,0.0,0.0,0.0,0.0,-0.0129,-0.0437,-0.0881,-0.0793,-0.0722,-0.069,0.0,-0.0043,0.0,0.0,0.0,0.0,0.0,0.1141,0.1153,0.1804,0.2286,0.2674,0.3419,0.419,0.0,0.0,0.0,0.0,0.0,0.0,0.0,0.0,1.1312,1.2129,1.344,1.4853,1.6166,1.6821,1.7403,1.7944,1.8614,1.8804,1.8757,1.8582,1.789,1.6932,1.5849,0.0,0.0,0.0,0.0,1.2212,1.2034,0.0,0.0,0.0,0.0,0.0,0.0,0.0,0.0,0.0,0.0,0.0,0.0,0.0,0.0,0.0,0.0,2.7666,2.736,2.7466,2.7019,2.5928,2.7042,2.7326,2.6606,2.7064,2.7326,2.7282,2.7064,2.6955,2.6955,2.6715,2.6475,2.6298,2.693,0.0,2.9366,3.0238,3.1423,3.2698,3.2698,3.2881,3.3169,3.3143,3.3143,3.3117,0.0,0.0,0.0,0.0,0.0,0.0,0.3988,0.4024,0.4045,0.3973,0.3791,0.36,0.3443,0.3223,0.2982,0.0,0.0,0.0,0.0,0.0,0.0,0.0,0.0,0.0126,-0.0347,0.0,0.0,0.0,0.0,0.0,0.0,0.0,0.0,0.0,0.0,0.0,0.0,0.2404,0.274,0.0,0.0,0.0,0.0,0.0,0.0,0.0,0.0,0.0,0.0,0.0,1.0716,1.1623,1.3026,1.4828,1.6513,1.685,1.7355,1.7928,1.8519,1.8741,1.8725,1.8383,1.744,1.623,1.4898,1.3775,0.0,0.0,1.1684,1.221,1.1945,0.0,0.0,0.0,0.0,0.0,0.0,0.0,0.0,0.0,0.0,0.0,0.0,0.0,0.0,0.0,0.0,0.0,2.7825,2.8008,2.7521,2.6234,2.7479,2.7762,2.6911,2.7631,2.7871,2.761,2.75,2.7457,2.7435,2.7064,2.6846,2.678,2.7084,0.0,0.0,3.0384,3.1599,3.3064,3.3064,3.3352,3.3718,3.3378,3.3477,3.3712,0.0,0.0,0.0,0.0,0.0,0.0,0.4244,0.4277,0.4246,0.4189,0.3994,0.3869,0.3848,0.3343,0.2955,0.0,0.0,0.0,0.0,0.0,0.0,0.0,0.0,0.0,0.0,0.0,0.0,0.0,0.0,0.0,0.0,0.0,0.0,0.0,0.0,0.0,0.0,0.0,0.0,0.0,0.0,0.0,0.0,0.0,0.0,0.0,0.0,0.0,0.0,0.0,0.0,1.0223,1.1092,1.3199,1.541,1.5752,0.0,0.0,1.824,1.8566,1.8725,1.8383,1.727,1.5948,1.4851,0.0,0.0,1.1231,1.1308,1.1591,1.1559,1.2414,0.0,0.0,0.0,1.5806,0.0,0.0,0.0,0.0,0.0,0.0,0.0,0.0,0.0,0.0,0.0,0.0,2.7377,2.7998,2.8015,2.7195,2.8179,2.8463,2.7871,2.7958,2.8221,2.8661,2.8155,2.7936,2.7936,2.7893,2.7653,2.7239,2.7261,0.0,0.0,3.0837,3.2218,3.4241,3.4241,3.4267,3.4371,3.4868,3.4737,3.4361,0.0,0.0,0.0,0.0,0.0,0.0,0.4347,0.4392,0.4392,0.4321,0.422,0.4117,0.4035,0.373,0.3464,0.3302,0.0,0.0,0.0,0.0,0.0,0.0,0.0,0.0,0.0,0.0,0.0,0.0,0.0,0.0,0.0,0.0,0.0,0.0,0.0,0.0,0.0,0.0,0.0,0.0,0.0,0.0,0.0,0.0,0.0,0.0,0.0,0.0,0.0,0.0,0.0,0.0,1.001,1.1279,0.0,0.0,1.5826,1.7021,1.7801,1.8398,1.8662,1.8128,1.6942,1.5554,1.4298,0.0,1.1692,1.0878,1.0976,1.1263,1.1469,1.2163,1.2884,1.3445,1.3719,0.0,0.0,0.0,0.0,0.0,0.0,0.0,0.0,0.0,0.0,0.0,0.0,0.0,2.7719,2.8147,2.8057,2.7326,2.8266,2.8551,2.8002,2.8331,2.8594,2.8792,2.8594,2.8462,2.8462,2.8155,2.7893,2.7719,2.7413,0.0,0.0,3.005,3.1098,3.2753,3.3335,3.3547,3.3662,3.4469,3.4607,3.4418,0.0,0.0,0.0,0.0,0.0,0.4414,0.4549,0.4584,0.4574,0.4499,0.4389,0.4261,0.4143,0.3994,0.3869,0.3791,0.3692,0.0,0.0,0.0,0.0,0.0,0.0,0.0,0.0,0.0,0.2211,0.2733,0.0,0.0,0.0,0.0,0.0,0.0,0.0,0.0,0.0,0.0,0.0,0.0,0.0,0.0,0.0,0.0,0.0,0.0,0.0,0.0,0.0,0.0,0.0,0.0,0.0,0.0,0.0,0.0,1.467,1.5932,1.691,1.7769,1.8201,1.762,1.6433,1.503,0.0,0.0,1.131,1.0639,1.0769,1.1074,1.131,1.19,1.2444,1.2725,1.2991,1.3574,0.0,0.0,0.0,0.0,0.0,0.0,0.0,0.0,0.0,0.0,0.0,0.0,0.0,2.8192,2.8143,2.7544,2.8354,2.8551,2.8002,2.8529,2.8792,2.8792,2.8792,2.8792,2.8792,2.8396,2.8243,2.8221,0.0,0.0,0.0,2.9709,3.045,3.1687,3.2624,3.3014,3.3122,3.4037,3.4397,3.4418,0.0,0.0,0.0,0.0,0.0,0.0,0.4936,0.4872,0.4774,0.4701,0.4461,0.4281,0.4199,0.4019,0.3978,0.4184,0.3885,0.0,0.0,0.0,0.0,0.0,0.0,0.0,0.0,0.0,0.2948,0.3289,0.4156,0.4686,0.0,0.0,0.0,0.0,0.0,0.0,0.0,0.0,0.0,0.0,0.0,0.0,0.6376,0.0,0.0,0.0,0.0,0.0,0.0,0.0,0.0,0.0,0.0,0.9144,0.9663,0.0,1.325,1.4771,1.5526,1.6496,1.7228,1.6821,1.5643,1.4344,0.0,0.0,1.131,1.0639,1.0769,1.0995,1.0995,1.1556,1.2011,1.2008,1.2908,1.3721,0.0,0.0,0.0,0.0,0.0,0.0,0.0,0.0,0.0,0.0,0.0,0.0,0.0,2.802,2.8272,2.8002,2.8529,2.8551,2.8002,2.8529,2.8792,2.8792,2.8792,2.8792,2.8792,2.8792,2.8792,0.0,0.0,0.0,0.0,3.0192,3.0755,3.1687,3.2624,3.3014,3.3122,3.4037,3.4397,3.4439,0.0,0.0,0.0,0.0,0.0,0.0,0.4946,0.4975,0.4907,0.4839,0.4681,0.4562,0.4554,0.4396,0.4438,0.4714,0.4311,0.0,0.0,0.0,0.0,0.0,0.0,0.0,0.0,0.3565,0.402,0.4526,0.5128,0.5568,0.5859,0.5798,0.5712,0.0,0.0,0.0,0.0,0.0,0.0,0.0,0.0,0.6498,0.6849,0.0,0.0,0.0,0.0,0.0,0.0,0.0,0.0,0.0,0.0,0.0,0.0,1.0648,1.2042,1.3378,1.4078,1.4855,1.5377,1.5012,1.4234,1.3346,1.2552,0.0,1.104,1.0591,1.0576,1.0799,1.1263,1.1521,1.1903,1.2631,1.322,1.3717,0.0,0.0,0.0,0.0,0.0,0.0,0.0,0.0,0.0,0.0,0.0,0.0,0.0,2.8113,2.8446,2.8528,2.8704,2.8727,2.8551,2.8727,2.8792,2.8792,2.8792,2.8792,2.8792,2.8792,0.0,0.0,0.0,0.0,0.0,2.9233,2.9806,3.0732,3.1687,3.2429,3.3122,3.4037,3.4397,3.4418,0.0,0.0,0.0,0.0,0.0,0.0,0.499,0.5034,0.502,0.4976,0.4907,0.4834,0.4823,0.4711,0.4745,0.5015,0.4704,0.0,0.0,0.0,0.0,0.0,0.0,0.0,0.3886,0.4219,0.469,0.5329,0.5715,0.6114,0.6489,0.6588,0.6442,0.6106,0.5998,0.0,0.0,0.0,0.0,0.0,0.6407,0.675,0.7132,0.0,0.0,0.0,0.0,0.0,0.0,0.0,0.0,0.0,0.0,0.0,0.0,0.0,1.1117,1.1977,1.279,1.3488,1.398,1.3758,1.3203,0.0,0.0,0.0,1.078,1.0672,1.0573,1.0662,1.1188,1.1395,1.1724,1.2392,1.2901,1.3378,0.0,0.0,0.0,0.0,0.0,0.0,0.0,0.0,0.0,0.0,0.0,0.0,0.0,2.8143,2.8541,2.8484,2.8682,2.8682,2.8484,2.8705,2.8792,2.8792,2.8792,2.8682,2.8507,2.8727,0.0,0.0,0.0,0.0,0.0,2.8792,2.9348,3.0283,3.1223,3.2168,3.3122,3.4037,3.4397,3.4418,0.0,0.0,0.0,0.0,0.0,0.0,0.0,0.5146,0.5142,0.5151,0.5151,0.5122,0.5044,0.4986,0.4986,0.5127,0.5069,0.0,0.0,0.0,0.0,0.0,0.0,0.0,0.4696,0.4747,0.5094,0.5747,0.6058,0.6434,0.6872,0.7355,0.7318,0.6834,0.6796,0.6643,0.0,0.0,0.0,0.0,0.6535,0.6891,0.0,0.0,0.0,0.0,0.0,0.0,0.0,0.0,0.0,0.0,0.0,0.0,0.0,0.0,0.0,0.0,0.0,1.2377,1.2917,1.2917,1.2409,1.1806,1.1501,0.0,0.0,1.0828,1.0675,1.0602,1.092,1.1274,1.1575,1.1682,1.2276,0.0,0.0,0.0,0.0,0.0,0.0,0.0,0.0,0.0,0.0,0.0,0.0,0.0,0.0,2.813,2.8529,2.8002,2.8462,2.8484,2.8002,2.844,2.8727,2.8749,2.8749,2.8462,2.8002,2.8551,0.0,0.0,0.0,0.0,0.0,2.8792,2.9348,3.0283,3.1223,3.2168,3.3122,3.4037,3.4397,3.4439,0.0,0.0,0.0,0.0,0.0,0.0,0.0,0.0,0.0,0.0,0.556,0.5525,0.5468,0.5401,0.5368,0.0,0.0,0.0,0.0,0.0,0.0,0.0,0.0,0.0,0.4696,0.5153,0.5638,0.6163,0.6941,0.737,0.7499,0.808,0.7955,0.7266,0.7355,0.714,0.0,0.0,0.0,0.0,0.7044,0.7379,0.0,0.0,0.0,0.0,0.9157,0.9098,0.0,0.0,0.0,0.0,0.0,0.0,0.0,0.0,0.9835,1.0092,1.033,0.0,1.1117,1.1117,1.099,1.083,0.0,0.0,0.0,0.0,0.0,1.0746,1.1589,1.1823,1.2302,1.3603,1.3776,0.0,0.0,0.0,0.0,0.0,0.0,0.0,0.0,0.0,0.0,0.0,0.0,0.0,0.0,2.8045,2.8133,2.8002,2.8133,2.8133,2.8002,2.7762,2.7829,2.8199,2.8199,2.8133,2.8002,2.8551,0.0,0.0,0.0,0.0,2.8792,2.8792,2.9348,3.0283,3.1223,3.2168,3.3122,3.4037,3.4397,3.4439,0.0,0.0,0.0,0.0,0.0,0.0,0.0,0.0,0.0,0.0,0.5879,0.5938,0.5838,0.5792,0.5736,0.0,0.0,0.0,0.0,0.0,0.0,0.0,0.0,0.5209,0.5284,0.5894,0.64,0.6798,0.7434,0.7882,0.8113,0.836,0.822,0.7764,0.7738,0.7545,0.0,0.0,0.0,0.757,0.7776,0.0,0.0,0.0,0.0,0.0,0.9366,0.9148,0.0,0.8537,0.8394,0.8457,0.0,0.0,0.0,0.0,0.9898,1.0168,1.0168,1.0324,1.0496,1.0496,1.0496,1.0496,1.0496,0.0,0.0,0.0,0.0,0.0,1.1981,0.0,0.0,1.424,1.4628,0.0,0.0,0.0,0.0,0.0,0.0,0.0,0.0,0.0,0.0,0.0,0.0,0.0,0.0,2.8221,2.8156,2.7697,2.7893,2.8002,2.8002,2.7762,2.7762,2.8002,2.8002,2.7762,2.7369,2.8112,2.8332,0.0,0.0,0.0,2.8792,2.8551,2.9124,3.0283,3.1223,3.2168,3.3122,3.4189,3.4564,3.4632,0.0,0.0,0.0,0.0,0.0,0.0,0.0,0.0,0.0,0.0,0.0,0.0,0.0,0.0,0.0,0.0,0.0,0.0,0.0,0.0,0.0,0.0,0.5768,0.5878,0.6126,0.6626,0.7109,0.7548,0.7898,0.8273,0.8633,0.8624,0.8487,0.8237,0.801,0.7847,0.0,0.0,0.0,0.8219,0.8493,0.0,0.0,0.0,0.0,0.0,0.0,0.0,0.0,0.8537,0.8394,0.8441,0.8733,0.0,0.0,0.0,0.0,0.0,1.04,1.0534,1.0624,1.0538,1.0534,1.056,1.056,0.0,0.0,0.0,0.0,0.0,0.0,0.0,0.0,0.0,0.0,0.0,0.0,0.0,0.0,0.0,0.0,0.0,0.0,0.0,0.0,0.0,0.0,0.0,0.0,2.8266,2.807,2.7217,2.7588,2.7783,2.7783,2.7849,2.7849,2.7783,2.7849,2.7457,2.6627,2.75,2.7675,0.0,0.0,0.0,2.8529,2.8155,2.8743,2.9965,3.1155,3.2081,3.295,3.4293,3.4797,3.4818,0.0,0.0,0.0,0.0,0.0,0.0,0.0,0.0,0.0,0.0,0.0,0.0,0.0,0.0,0.0,0.0,0.0,0.0,0.0,0.0,0.0,0.6205,0.6038,0.6204,0.6756,0.6859,0.7337,0.8246,0.897,0.9135,0.8786,0.9679,0.9504,0.8427,0.8066,0.7891,0.7891,0.8106,0.0,0.8256,0.886,0.0,0.0,0.0,0.0,0.0,0.0,0.0,0.0,0.8537,0.8394,0.8409,0.8457,0.0,0.0,0.0,0.0,0.0,0.9918,1.0655,1.1203,1.0637,1.0675,1.0841,1.0841,0.0,0.0,0.0,0.0,0.0,0.0,0.0,0.0,0.0,0.0,0.0,0.0,0.0,0.0,0.0,0.0,0.0,0.0,0.0,0.0,0.0,0.0,0.0,0.0,2.7108,2.6868,2.6715,2.678,2.6802,2.6802,2.7217,2.7217,2.6824,2.7217,2.7129,2.6627,2.7151,2.7369,0.0,0.0,2.7392,2.7566,2.7871,2.8114,2.8564,3.0746,3.1687,3.2059,3.4063,3.4797,3.4818,0.0,0.0,0.0,0.0,0.0,0.0,0.0,0.0,0.0,0.0,0.0,0.0,0.0,0.0,0.0,0.0,0.0,0.0,0.0,0.0,0.6451,0.6772,0.6908,0.7039,0.7168,0.806,0.8742,0.9221,0.9731,0.9877,0.972,0.9773,0.9461,0.8825,0.8638,0.8537,0.8537,0.8565,0.871,0.8992,0.0,0.0,0.0,0.0,0.0,0.0,0.0,0.0,0.0,0.0,0.8394,0.8394,0.8394,0.0,0.0,0.0,0.0,0.0,1.0306,1.0799,1.1142,1.0976,1.1191,1.1446,1.1446,0.0,0.0,0.0,0.0,0.0,0.0,0.0,0.0,0.0,0.0,0.0,0.0,0.0,0.0,0.0,0.0,0.0,0.0,0.0,0.0,0.0,0.0,0.0,0.0,0.0,2.6868,2.6606,2.6846,2.6737,2.6234,2.6933,2.7064,2.6606,2.6824,2.6671,2.6235,2.6715,2.6911,2.6911,0.0,2.6846,2.7304,2.7544,2.8098,2.8992,3.0878,3.1906,3.2559,3.4335,3.488,3.4859,0.0,0.0,0.0,0.0,0.0,0.0,0.0,0.0,0.0,0.0,0.0,0.0,0.0,0.0,0.0,0.0,0.0,0.0,0.0,0.6748,0.6818,0.7138,0.7704,0.791,0.7717,0.9041,0.9805,0.9919,1.024,1.039,1.0362,0.9562,0.913,0.9028,0.9028,0.9028,0.9015,0.891,0.9059,0.9411,0.0,0.0,0.0,0.0,0.0,0.0,0.0,0.0,0.0,0.0,0.0,0.0,0.0,0.0,0.0,0.9426,0.9702,1.0019,1.0709,1.1056,1.1273,1.1461,0.0,1.1904,1.2091,0.0,0.0,0.0,0.0,0.0,0.0,0.0,0.0,0.0,0.0,0.0,0.0,0.0,0.0,0.0,0.0,0.0,0.0,0.0,0.0,0.0,0.0,0.0,0.0,0.0,2.6824,2.6453,2.678,2.6627,2.5906,2.6627,2.678,2.6431,2.6562,2.6344,2.5906,2.6256,2.6431,2.6409,2.6059,2.6321,2.6998,2.7086,2.7987,2.9452,3.0864,3.2244,3.3547,3.4688,3.5003,3.4942,0.0,0.0,0.0,0.0,0.0,0.0,0.0,0.0,0.0,0.0,0.0,0.0,0.0,0.0,0.0,0.0,0.0,0.0,0.0,0.6986,0.6998,0.7,0.8058,0.8639,0.8619,0.908,0.9568,0.9989,1.0445,1.0447,1.0032,0.9206,0.8819,0.8835,0.8835,0.8835,0.8841,0.9008,0.8914,0.8766,0.9839,0.0,0.0,0.0,0.0,0.0,0.0,0.0,0.0,0.0,0.0,0.0,0.0,0.0,0.9113,0.977,0.9881,0.9976,1.0693,1.1537,1.219,1.2159,1.1924,0.0,1.2658,0.0,0.0,0.0,0.0,0.0,0.0,0.0,0.0,0.0,0.0,0.0,0.0,0.0,0.0,0.0,0.0,0.0,0.0,0.0,0.0,0.0,0.0,0.0,0.0,0.0,0.0,2.595,2.5994,2.5972,2.5906,2.5972,2.5994,2.5972,2.6387,2.6344,2.5906,2.5928,2.595,2.595,2.5906,2.595,2.6037,2.6475,2.7496,2.892,3.0384,3.2481,3.4714,3.5003,3.5086,3.5147,0.0,0.0,0.0,0.0,0.0,0.0,0.0,0.0,0.0,0.0,0.0,0.6824,0.7127,0.0,0.0,0.0,0.0,0.0,0.0,0.7276,0.7398,0.7559,0.8401,0.8915,0.8955,0.9794,1.0312,1.0454,1.0524,1.0136,0.9315,0.9172,0.9107,0.9107,0.9107,0.9341,0.9728,0.9714,0.9836,1.0087,1.0735,1.085,0.0,0.0,0.0,0.0,0.0,0.0,0.0,0.0,0.935,0.9578,0.942,0.9345,0.9484,1.0365,1.0555,1.0659,1.1485,1.2182,1.2588,1.2239,0.0,0.0,0.0,0.0,0.0,0.0,0.0,0.0,0.0,0.0,0.0,0.0,0.0,0.0,0.0,0.0,0.0,0.0,0.0,0.0,0.0,0.0,0.0,0.0,0.0,0.0,0.0,0.0,0.0,2.5906,2.5906,2.5906,2.5906,2.5906,2.5906,2.5906,2.6081,2.6081,2.5906,2.5906,2.5906,2.5906,2.5906,2.5906,2.595,2.6409,2.7251,2.8497,3.0831,3.3004,3.4818,3.5024,3.5106,3.5168,0.0,0.0,0.0,0.0,0.0,0.0,0.0,0.0,0.6617,0.0,0.0,0.0,0.0,0.7099,0.0,0.0,0.0,0.0,0.7402,0.7494,0.7601,0.7735,0.856,0.8891,0.8644,0.99,1.0572,1.0525,1.0285,0.9781,0.904,0.9354,0.95,0.9548,0.9548,0.981,1.0228,1.0178,1.034,1.0642,1.1224,1.1351,0.0,0.0,0.0,0.0,0.0,0.0,0.0,0.0,0.9785,0.9981,0.9854,0.9771,0.9885,1.0714,1.0885,1.0995,1.1917,1.2375,1.2601,0.0,0.0,0.0,0.0,0.0,0.0,0.0,0.0,0.0,0.0,0.0,0.0,0.0,0.0,0.0,0.0,0.0,0.0,0.0,0.0,0.0,0.0,0.0,0.0,0.0,0.0,0.0,0.0,0.0,0.0,0.0,2.5906,2.5906,2.5906,2.5906,2.5906,2.5906,2.5906,2.5906,2.5906,2.5906,2.5906,2.5906,2.5906,2.5906,2.5928,2.6256,2.7286,2.8954,3.1439,3.3379,3.4818,3.5106,3.5208,3.5249,0.0,0.0,0.0,0.0,0.0,0.0,0.0,0.0,0.6852,0.6979,0.7229,0.0,0.0,0.0,0.0,0.0,0.0,0.0,0.7402,0.7536,0.7552,0.7425,0.8488,0.8621,0.7624,0.9237,1.0103,1.0097,0.9691,0.9444,0.9323,0.9712,0.9967,1.0112,1.0112,1.0112,1.0127,1.0259,1.0151,1.0024,1.1173,1.152,1.142,0.0,0.0,0.0,0.0,0.0,0.0,0.0,1.0196,1.0844,1.0438,1.0255,1.0314,1.0784,1.0774,1.084,1.1834,1.2014,1.2222,0.0,0.0,0.0,0.0,0.0,0.0,0.0,0.0,0.0,0.0,0.0,0.0,0.0,0.0,0.0,0.0,0.0,0.0,0.0,0.0,0.0,0.0,0.0,0.0,0.0,0.0,0.0,0.0,0.0,0.0,0.0,2.5906,2.5906,2.5906,2.5906,2.5906,2.5906,2.5906,2.5906,2.5906,2.5906,2.5906,2.5906,2.5906,2.5906,2.5906,2.5927,2.7615,3.0334,3.1959,3.3504,3.4812,3.5243,3.5386,3.5426,0.0,0.0,0.0,0.0,0.0,0.0,0.0,0.0,0.7016,0.7064,0.7272,0.0,0.0,0.0,0.0,0.0,0.0,0.0,0.7548,0.7709,0.7786,0.775,0.8352,0.8673,0.8658,0.9613,0.9919,0.9535,0.9426,0.9402,0.9517,0.9866,1.0264,1.0648,1.0648,1.0907,1.1383,1.1415,1.1607,1.19,1.2244,1.2268,1.2089,0.0,0.0,0.0,0.0,0.0,0.0,0.0,0.0,0.0,1.0747,1.0964,1.1358,1.1931,1.2321,1.268,1.3161,1.327,0.0,0.0,0.0,0.0,0.0,0.0,0.0,0.0,0.0,0.0,0.0,0.0,0.0,0.0,0.0,0.0,0.0,0.0,0.0,0.0,0.0,0.0,0.0,0.0,0.0,0.0,0.0,0.0,0.0,0.0,0.0,0.0,2.5906,2.5906,2.5906,2.5906,2.5906,2.5906,2.5906,2.5906,2.5906,2.5906,2.5906,2.5906,2.5906,2.5906,2.5948,2.6571,2.7903,2.9669,3.0919,3.2374,3.3774,3.4031,3.4477,3.4912,0.0,0.0,0.0,0.0,0.0,0.0,0.6744,0.7176,0.7422,0.7147,0.7406,0.7513,0.0,0.0,0.0,0.7221,0.7464,0.0,0.7605,0.7783,0.7852,0.7779,0.8248,0.8797,0.9414,0.9639,0.9723,0.9659,0.9533,0.9502,0.9612,1.0207,1.0668,1.0986,1.12,1.1511,1.1897,1.1897,1.2098,1.2403,1.2604,1.263,1.2487,0.0,0.0,0.0,0.0,0.0,0.0,0.0,0.0,0.0,1.0901,1.1126,1.1482,1.1922,1.2276,1.2665,1.3269,0.0,0.0,0.0,0.0,0.0,0.0,0.0,0.0,0.0,0.0,0.0,0.0,0.0,0.0,0.0,0.0,0.0,0.0,0.0,0.0,0.0,0.0,0.0,0.0,0.0,0.0,0.0,0.0,0.0,0.0,0.0,0.0,0.0,2.5906,2.5906,2.5906,2.5906,2.5906,2.5906,2.5906,2.5906,2.5906,2.5906,2.5906,2.5906,2.5906,2.5906,2.5969,2.6837,2.8075,2.9529,3.0612,3.2013,3.3437,3.3657,3.4008,3.4395,0.0,0.0,0.6516,0.6576,0.0,0.0,0.6872,0.76,0.7958,0.7215,0.7586,0.7798,0.0,0.0,0.0,0.7537,0.7645,0.7693,0.7631,0.779,0.7808,0.7638,0.8253,0.9006,0.9922,0.9559,0.9655,1.021,0.9841,0.9693,0.9762,1.0667,1.1174,1.1263,1.1752,1.1969,1.1969,1.1969,1.1969,1.2026,1.2508,1.27,1.2665,1.2267,0.0,0.0,0.0,0.0,0.0,0.0,0.0,0.0,1.0971,1.0984,1.1074,1.1335,1.1383,1.1583,1.2679,0.0,0.0,0.0,0.0,0.0,0.0,0.0,0.0,0.0,0.0,0.0,0.0,0.0,0.0,0.0,0.0,0.0,0.0,0.0,0.0,0.0,0.0,0.0,0.0,0.0,0.0,0.0,0.0,0.0,0.0,0.0,0.0,2.5775,2.5819,2.5819,2.5775,2.5863,2.5884,0.0,2.5884,2.5906,2.5906,2.5906,2.5906,2.5906,2.5906,2.5948,2.6095,2.694,2.8211,2.9734,3.0806,3.2142,3.3457,3.3668,3.3772,3.3826,0.0,0.0,0.665,0.713,0.0,0.0,0.7586,0.8061,0.8162,0.7423,0.7668,0.7971,0.8173,0.8443,0.0,0.8344,0.852,0.8404,0.7856,0.7863,0.7866,0.7827,0.8759,0.9604,1.0289,1.0492,1.0532,1.0353,0.9764,0.9929,1.0855,1.109,1.1608,1.2354,1.2484,1.2532,1.2532,1.2532,1.2532,1.2532,1.2652,1.27,1.2674,1.2419,1.2159,0.0,0.0,0.0,0.0,0.0,0.0,0.0,1.15,1.1719,1.2,1.2776,1.2775,1.268,0.0,0.0,0.0,0.0,0.0,0.0,0.0,0.0,0.0,0.0,0.0,0.0,0.0,0.0,0.0,0.0,0.0,0.0,0.0,0.0,0.0,0.0,0.0,0.0,0.0,0.0,0.0,0.0,0.0,0.0,0.0,0.0,0.0,2.4792,2.5162,2.5184,2.4792,2.5535,2.571,0.0,2.571,2.5906,2.5906,2.5906,2.5906,2.5906,2.5906,2.6281,2.6981,2.781,2.8855,3.0009,3.1119,3.1825,3.2285,3.2488,3.2879,3.3205,0.0,0.0,0.0,0.0,0.0,0.0,0.0,0.0,0.8866,0.8512,0.8693,0.8923,0.911,0.928,0.0,0.0,0.937,0.9325,0.9146,0.9065,0.901,0.901,0.9839,1.0402,1.0555,1.125,1.148,1.1204,1.0898,1.0776,1.089,1.1364,1.1842,1.233,1.258,1.27,1.27,1.27,1.27,1.27,1.27,1.27,1.2683,1.2487,1.2285,1.2104,1.1735,0.0,0.0,0.0,0.0,0.0,0.0,0.0,1.2525,1.3011,1.3054,1.2968,0.0,0.0,0.0,0.0,0.0,0.0,0.0,0.0,0.0,0.0,0.0,0.0,0.0,0.0,0.0,0.0,0.0,0.0,0.0,0.0,0.0,0.0,0.0,0.0,0.0,0.0,0.0,0.0,0.0,0.0,0.0,2.4637,2.4506,2.4506,2.4747,2.4747,2.4506,2.4989,2.5118,2.4878,2.5098,2.5359,2.5557,2.5797,2.5906,2.5927,2.6343,2.6775,2.7307,2.8505,2.9466,3.0241,3.1216,3.178,3.2055,3.2164,3.239,3.2626,0.0,0.0,0.0,0.0,0.0,0.0,0.0,0.0,0.0,0.9648,0.9802,0.9939,1.0054,1.0054,1.0106,0.0,0.0,0.0,1.043,1.0331,1.0291,1.0415,1.0972,1.1218,1.1106,1.1964,1.2388,1.2288,1.2388,1.1883,1.0889,1.1638,1.202,1.2065,1.2508,1.27,1.27,1.27,1.27,1.27,1.27,1.27,1.2683,1.2532,1.2419,1.2362,1.2013,1.1765,1.1619,1.1458,0.0,0.0,0.0,0.0,1.2741,1.3,1.2945,1.2838,0.0,0.0,0.0,0.0,0.0,0.0,0.0,0.0,0.0,0.0,0.0,0.0,0.0,0.0,0.0,0.0,0.0,0.0,0.0,0.0,0.0,0.0,0.0,0.0,0.0,0.0,0.0,0.0,0.0,0.0,2.4355,2.431,2.4224,2.4224,2.4312,2.4312,2.4224,2.4399,2.4443,2.4355,2.4463,2.4703,2.5097,2.5469,2.5753,2.5948,2.6816,2.7287,2.7528,2.9096,3.005,3.0608,3.1373,3.1872,3.22,3.22,3.22,3.22,0.0,0.0,0.0,0.0,0.0,0.0,0.0,0.0,0.0,0.0,0.9896,1.0114,1.0608,1.0668,1.0678,1.0717,1.0688,1.0548,1.0261,0.0,0.0,1.129,1.1408,1.1862,1.2759,1.2903,1.3023,1.3054,1.3233,1.2978,0.0,0.0,1.2273,1.2604,1.2676,1.27,1.27,1.27,1.27,1.27,1.27,1.27,1.27,1.2674,1.2559,1.2454,1.2855,1.2463,1.1825,1.2115,1.1934,0.0,0.0,0.0,1.254,1.3816,1.3303,1.2419,0.0,0.0,0.0,0.0,0.0,0.0,0.0,0.0,0.0,0.0,0.0,0.0,0.0,0.0,0.0,0.0,0.0,0.0,0.0,0.0,0.0,0.0,0.0,0.0,0.0,0.0,0.0,0.0,0.0,0.0,2.3812,2.3438,2.3198,2.3198,2.3594,2.3615,2.3198,2.405,2.4268,2.3812,2.4268,2.453,2.4616,2.4661,2.512,2.5948,2.6816,2.7588,2.8327,2.9485,3.0526,3.1466,3.1743,3.2,3.22,3.22,3.22,3.22,0.0,0.0,0.0,0.0,0.0,0.0,0.0,0.0,0.0,0.0,0.0,1.1227,1.151,1.1672,1.1811,1.1923,1.183,1.174,1.1657,1.1853,1.203,1.2229,1.2619,1.2913,1.3091,1.3877,1.4151,1.3939,1.402,0.0,0.0,1.2806,1.2598,0.0,1.27,1.27,1.27,1.27,1.27,1.27,1.27,1.2508,1.2315,1.2926,1.292,1.2654,1.3383,0.0,0.0,1.2638,1.2523,1.2511,1.2484,0.0,0.0,0.0,0.0,0.0,0.0,0.0,0.0,0.0,0.0,0.0,0.0,0.0,0.0,0.0,0.0,0.0,0.0,0.0,0.0,0.0,0.0,0.0,0.0,0.0,0.0,0.0,0.0,0.0,0.0,0.0,0.0,0.0,0.0,2.3594,2.331,2.3354,2.3266,2.3001,2.3198,2.322,2.3001,2.3438,2.3547,2.331,2.3547,2.3787,2.4052,2.4052,2.4574,2.5574,2.6909,2.7882,2.8679,3.012,3.1134,3.178,3.1872,3.2018,3.22,3.22,3.22,3.22,0.0,0.0,0.0,0.0,0.0,0.0,0.0,0.0,0.0,0.0,0.0,1.2049,1.2097,0.0,0.0,0.0,1.2573,1.2573,1.2796,1.2981,1.3121,1.3146,1.3668,1.3897,1.3711,1.4751,1.51,1.4785,1.4573,0.0,1.4003,1.325,1.2824,0.0,1.2647,1.2656,0.0,0.0,1.2656,1.27,1.27,1.2459,1.2186,1.299,1.3038,1.2818,1.3754,0.0,0.0,0.0,0.0,0.0,0.0,0.0,0.0,0.0,0.0,0.0,0.0,0.0,0.0,0.0,0.0,0.0,0.0,0.0,0.0,0.0,0.0,0.0,0.0,0.0,0.0,0.0,0.0,0.0,0.0,0.0,0.0,0.0,0.0,0.0,0.0,0.0,0.0,0.0,0.0,2.331,2.2848,2.3157,2.3135,2.2652,2.2761,2.2826,2.2826,2.2936,2.3001,2.3001,2.3001,2.3179,2.3528,2.3715,2.4274,2.5234,2.6952,2.8213,2.9149,3.074,3.1569,3.1908,3.1963,3.2073,3.22,3.22,3.22,3.22,0.0,0.0,0.0,0.0,0.0,0.0,0.0,0.0,0.0,0.0,0.0,1.1881,1.2086,1.2118,1.2231,1.2481,1.2496,1.2573,1.2796,1.2981,1.3403,1.4088,1.4149,0.0,1.5348,1.5436,1.5509,1.5551,1.4791,1.4302,1.4076,1.3216,1.278,1.2692,1.249,1.2532,1.2692,0.0,0.0,1.27,1.27,1.2676,1.2668,0.0,0.0,0.0,0.0,0.0,0.0,0.0,0.0,0.0,0.0,0.0,0.0,0.0,0.0,0.0,0.0,0.0,0.0,0.0,0.0,0.0,0.0,0.0,0.0,0.0,0.0,0.0,0.0,0.0,0.0,0.0,0.0,0.0,0.0,0.0,0.0,0.0,0.0,0.0,0.0,0.0,0.0,0.0,0.0,2.2826,2.235,2.235,2.2171,2.1686,2.2088,2.2328,2.2328,2.2783,2.3001,2.3001,2.3001,2.3023,2.3063,2.3776,2.4402,2.5031,2.6895,2.8541,3.0024,3.1142,3.1706,3.1927,3.2109,3.22,3.22,3.22,3.22,3.22,0.0,0.0,0.0,0.0,0.0,0.0,0.0,0.0,0.0,0.0,0.0,0.0,0.0,1.2554,1.2689,1.2871,1.2885,1.2913,1.2981,1.2986,1.3343,1.4164,1.4567,1.501,1.5493,1.5971,1.6019,1.5587,1.4837,1.4342,1.4076,1.3259,1.2824,1.27,1.263,1.2639,1.27,1.263,0.0,0.0,1.27,1.2484,1.2258,0.0,0.0,0.0,0.0,0.0,0.0,0.0,0.0,0.0,0.0,0.0,0.0,0.0,0.0,0.0,0.0,0.0,0.0,0.0,0.0,0.0,0.0,0.0,0.0,0.0,0.0,0.0,0.0,0.0,0.0,0.0,0.0,0.0,0.0,0.0,0.0,0.0,0.0,0.0,0.0,0.0,0.0,0.0,0.0,0.0,2.2328,2.2306,2.2066,2.1603,2.1756,2.1843,2.1843,2.2018,2.2084,2.2123,2.2411,2.2546,2.2582,2.3632,2.4658,2.5746,2.7023,2.8115,2.913,3.0461,3.1235,3.155,3.2001,3.22,3.22,3.22,3.22,3.22,0.0,0.0,0.0,1.1325,0.0,1.141,1.1687,1.1672,1.1776,1.2311,0.0,0.0,0.0,0.0,1.35,1.3399,1.3616,1.3569,1.3142,1.3488,1.3945,1.4538,1.5209,1.5644,1.5852,1.6344,1.6301,1.5683,1.483,1.4299,1.4098,1.3233,1.2797,1.27,1.263,1.2647,0.0,0.0,0.0,1.27,0.0,0.0,1.2499,0.0,0.0,0.0,0.0,0.0,0.0,0.0,0.0,0.0,0.0,0.0,0.0,0.0,0.0,0.0,0.0,0.0,0.0,0.0,0.0,0.0,0.0,0.0,0.0,0.0,0.0,0.0,0.0,0.0,0.0,0.0,0.0,0.0,0.0,0.0,0.0,0.0,0.0,0.0,0.0,0.0,0.0,0.0,0.0,0.0,2.2088,2.1931,2.1691,2.138,2.1358,2.1446,2.1599,2.1599,2.1599,2.1621,2.2084,2.2428,2.2697,2.3938,2.5129,2.6246,2.7186,2.8109,2.9035,3.0289,3.1003,3.1341,3.1956,3.22,3.22,3.22,3.22,3.22,1.0769,1.0928,1.1105,1.1639,1.1641,1.1682,1.2014,1.1936,1.2226,1.3213,0.0,0.0,0.0,0.0,0.0,1.4082,1.4689,1.4549,1.3228,1.4476,1.5282,1.532,1.6017,1.6458,1.6591,1.6603,1.6342,1.5813,1.4739,1.4219,1.4195,1.3174,1.27,1.2716,1.2505,1.2523,1.2674,0.0,1.2339,1.27,0.0,1.3023,1.3481,0.0,0.0,0.0,1.4311,1.4311,0.0,0.0,0.0,0.0,0.0,0.0,0.0,0.0,0.0,0.0,0.0,0.0,0.0,0.0,0.0,0.0,0.0,0.0,0.0,0.0,0.0,0.0,0.0,0.0,0.0,0.0,0.0,0.0,0.0,0.0,0.0,0.0,0.0,0.0,0.0,0.0,0.0,0.0,0.0,2.2062,2.1603,2.1135,2.0872,2.0872,2.0872,2.1091,2.1555,2.1577,2.1577,2.1559,2.208,2.2693,2.3432,2.4743,2.5721,2.6449,2.7397,2.854,2.9811,3.0645,3.1083,3.1341,3.1956,3.22,3.22,3.22,3.22,3.22,1.1065,1.1632,1.2074,1.244,1.2897,1.3286,1.3502,1.3565,1.3702,0.0,0.0,0.0,0.0,1.4813,1.4794,1.4648,1.4827,1.4811,1.4442,1.4692,1.5145,1.5771,1.5996,1.6301,1.6735,1.6656,1.6436,1.6094,1.4962,1.4541,1.474,1.3445,1.3001,1.3255,1.2671,1.2523,1.2683,1.2419,0.0,0.0,1.311,1.3143,0.0,0.0,0.0,0.0,0.0,1.4584,0.0,0.0,1.4522,1.4818,0.0,0.0,0.0,0.0,0.0,0.0,1.4275,0.0,0.0,0.0,0.0,0.0,0.0,1.4965,0.0,0.0,0.0,0.0,0.0,0.0,0.0,0.0,0.0,0.0,0.0,0.0,0.0,0.0,0.0,0.0,0.0,0.0,0.0,0.0,2.1555,2.1227,2.1113,2.0598,2.0303,2.0303,2.0303,2.0369,2.05,2.05,2.05,2.0538,2.1929,2.2691,2.2971,2.5109,2.6294,2.6688,2.7606,2.8272,2.8812,2.991,3.0462,3.0744,3.1793,3.22,3.22,3.22,3.22,3.22,1.1573,1.2025,1.253,1.3178,1.3419,1.3696,1.4238,1.4364,1.4497,0.0,0.0,0.0,0.0,0.0,1.5511,1.5274,1.5537,1.5464,1.4934,1.5382,1.5768,1.5992,1.6269,1.6458,1.6578,1.6543,1.6274,1.5746,1.5087,1.4686,1.4431,1.3828,1.3399,1.3149,1.3098,1.3046,0.0,0.0,0.0,0.0,1.3134,0.0,0.0,1.4132,1.4373,0.0,0.0,0.0,1.4574,1.4492,1.4851,0.0,0.0,0.0,0.0,0.0,0.0,0.0,0.0,0.0,0.0,0.0,0.0,0.0,1.4305,1.4709,1.5152,0.0,0.0,0.0,0.0,0.0,0.0,0.0,0.0,0.0,0.0,0.0,0.0,0.0,0.0,0.0,0.0,0.0,0.0,2.1621,2.1179,2.0807,2.0577,2.026,2.0091,2.0091,2.0091,2.0091,2.0091,2.0383,2.0383,2.0129,2.1901,2.2878,2.323,2.4911,2.624,2.717,2.7459,2.7888,2.8411,2.9595,3.0219,3.0527,3.1739,3.22,3.22,3.22,3.22,3.22,0.0,1.2383,1.2808,1.3926,1.3709,1.3723,1.465,1.4772,1.5015,0.0,1.5859,1.6121,0.0,0.0,1.6389,1.5887,1.6403,1.625,1.5117,1.6194,1.6631,1.6044,1.6636,1.6747,1.6369,1.6376,1.6034,1.5273,1.5219,1.4753,1.3872,1.4247,1.3856,1.2908,1.3697,1.3883,1.3616,0.0,0.0,1.3553,1.3071,1.3708,0.0,0.0,1.4935,0.0,1.5036,1.4889,1.4981,1.4778,1.5139,0.0,0.0,0.0,0.0,0.0,1.5085,0.0,0.0,0.0,0.0,0.0,0.0,0.0,1.4525,1.4558,1.4807,0.0,0.0,0.0,0.0,0.0,0.0,0.0,0.0,0.0,0.0,0.0,0.0,0.0,0.0,0.0,0.0,2.1402,2.1319,2.1293,2.0877,2.0484,2.0047,2.0025,2.0025,2.0025,2.0025,2.0047,2.0091,2.0696,2.0744,2.0221,2.2049,2.3256,2.3839,2.4523,2.5874,2.7706,2.7188,2.7461,2.84,2.9558,3.02,3.0527,3.1739,3.22,3.22,3.22,3.22,3.22,1.2889,1.3517,1.416,1.4708,1.5381,1.5854,1.5964,1.6193,1.6308,1.6224,1.633,0.0,0.0,0.0,0.0,1.6229,1.6309,1.6217,1.5822,1.6037,1.6212,1.6249,1.6462,1.6624,1.6714,1.6463,1.6332,1.6314,1.557,1.5113,1.4913,1.4658,1.4357,1.3997,1.4175,1.4199,0.0,0.0,0.0,1.4142,1.4021,0.0,1.446,1.4756,1.4999,1.5194,1.5473,1.534,1.5002,0.0,1.4923,1.5025,0.0,0.0,0.0,0.0,0.0,0.0,0.0,0.0,0.0,0.0,0.0,0.0,1.5334,1.5131,1.4971,0.0,0.0,0.0,0.0,0.0,0.0,0.0,0.0,0.0,0.0,0.0,0.0,0.0,0.0,0.0,0.0,2.0058,1.9665,1.9303,1.9194,1.9244,1.9534,1.9534,1.9534,1.9534,1.9534,1.9715,2.0091,2.0389,2.0671,2.094,2.2844,2.3848,2.3995,2.5089,2.6238,2.7317,2.7195,2.7653,2.8606,2.9327,2.994,3.0527,3.1739,3.22,3.22,3.22,3.22,3.22,1.3565,1.4051,1.4579,1.5201,1.5725,1.6056,1.613,1.653,1.6624,1.6212,1.6496,0.0,0.0,0.0,0.0,0.0,1.7089,1.7052,1.694,1.6962,1.6977,1.7089,1.7302,1.7314,1.7154,1.7192,1.6931,1.6395,1.6122,1.5652,1.4967,1.519,1.4513,1.3158,1.4464,1.4464,0.0,0.0,1.5065,1.5007,1.4494,0.0,1.466,1.4917,1.5181,1.541,1.5585,1.5481,1.5267,1.5364,1.5332,0.0,0.0,1.5815,1.5743,0.0,1.5588,1.5754,0.0,0.0,0.0,1.5902,0.0,0.0,0.0,1.5401,1.5256,1.5127,0.0,0.0,0.0,0.0,0.0,0.0,0.0,0.0,0.0,0.0,0.0,0.0,0.0,0.0,0.0,1.8705,1.8698,1.8713,1.8713,1.8785,1.9047,1.9047,1.9157,1.9403,1.9403,1.978,2.0587,2.1027,2.1385,2.1628,2.3264,2.404,2.4032,2.4673,2.5616,2.6736,2.67,2.7209,2.8204,2.9017,2.9592,3.0083,3.1277,3.1929,3.22,3.22,3.22,3.22,1.4197,1.4407,1.4759,1.547,1.5645,1.5727,1.5914,1.629,1.6474,1.6136,0.0,0.0,0.0,0.0,0.0,0.0,0.0,1.7485,0.0,1.7449,1.7356,1.7451,1.7859,1.7828,1.7262,1.7717,1.7457,1.64,1.666,1.6097,1.4849,1.5624,1.4744,1.2587,1.4612,0.0,0.0,0.0,0.0,1.5575,0.0,1.4814,1.5146,1.5026,1.5325,1.5769,1.5614,1.5536,1.5536,1.5714,0.0,1.5736,1.5804,1.5815,0.0,0.0,0.0,0.0,0.0,0.0,0.0,0.0,0.0,1.5968,0.0,0.0,0.0,1.5507,0.0,0.0,0.0,0.0,0.0,0.0,0.0,0.0,0.0,0.0,0.0,0.0,0.0,0.0,0.0,1.7475,1.7781,1.8239,1.8196,1.8232,1.8429,1.8429,1.8648,1.9119,1.9346,1.9939,2.097,2.1757,2.2189,2.2301,2.3514,2.4068,2.4009,2.4072,2.4838,2.6119,2.6133,2.6734,2.7771,2.8708,2.9254,2.9594,3.0707,3.1522,3.2037,3.2037,3.2092,3.22,1.4806,1.4973,1.5152,1.5536,1.5794,1.587,1.5682,1.5761,1.5948,0.0,0.0,0.0,0.0,0.0,0.0,0.0,0.0,0.0,1.6689,0.0,1.5425,1.5839,1.6788,1.7036,1.6367,1.7133,1.74,1.7079,1.684,1.6218,1.5336,1.5798,1.5523,0.0,1.4512,0.0,0.0,0.0,1.4718,0.0,1.5479,1.5647,0.0,1.517,1.5325,1.5815,1.5758,1.5647,1.5536,0.0,1.5669,1.5569,0.0,1.5815,0.0,0.0,0.0,0.0,0.0,0.0,0.0,0.0,1.6189,0.0,0.0,0.0,1.5569,1.5517,0.0,0.0,0.0,0.0,0.0,0.0,0.0,0.0,0.0,0.0,0.0,0.0,0.0,0.0,0.0,0.0,1.6247,1.6719,1.6356,1.6522,1.7401,1.7445,1.7686,1.8137,1.9133,1.993,2.0465,2.1741,2.2579,2.2985,2.3736,2.4093,2.4086,2.4107,2.4613,2.5518,2.6066,2.6827,2.7759,2.8394,2.9007,2.9583,3.0228,3.088,3.1395,3.1395,3.1739,3.22,1.4635,1.486,1.5096,1.5381,1.558,1.566,1.5462,1.5581,1.6129,0.0,0.0,0.0,0.0,0.0,0.0,0.0,0.0,1.7365,0.0,0.0,0.0,1.7424,1.8051,1.822,1.7881,1.8174,1.8056,1.7556,1.7029,1.6447,1.5856,1.5871,1.5266,0.0,1.4862,0.0,1.4512,0.0,0.0,0.0,0.0,0.0,0.0,1.554,1.5523,1.5636,1.5771,1.5658,1.5536,0.0,1.5725,0.0,0.0,0.0,0.0,0.0,0.0,0.0,0.0,0.0,0.0,0.0,0.0,0.0,0.0,0.0,1.5863,0.0,0.0,0.0,0.0,0.0,0.0,0.0,0.0,0.0,0.0,0.0,0.0,0.0,0.0,0.0,0.0,0.0,0.0,0.0,0.0,1.5985,1.6413,1.7011,1.758,1.8025,1.9439,2.0575,2.1441,2.2426,2.317,2.3677,2.4029,2.423,2.4204,2.4128,2.4435,2.5093,2.594,2.6639,2.7255,2.822,2.8752,2.8997,2.9252,3.0147,3.1287,3.1287,3.1684,3.22,1.4445,1.4698,1.4989,1.514,1.5452,1.568,1.5589,1.587,1.654,1.7775,1.7749,0.0,1.8559,1.8499,0.0,0.0,0.0,1.8066,0.0,0.0,1.7974,1.8153,1.8674,0.0,0.0,1.8608,1.8373,1.7625,1.7068,1.6597,1.62,1.5937,1.5202,1.4161,0.0,1.4911,1.4185,0.0,0.0,1.5815,1.5815,1.5815,1.5815,1.5815,1.5703,1.5591,1.568,1.5658,1.5591,1.568,1.5736,0.0,1.5815,0.0,0.0,0.0,0.0,0.0,1.6091,0.0,0.0,0.0,0.0,0.0,0.0,0.0,0.0,0.0,0.0,0.0,0.0,0.0,0.0,0.0,0.0,0.0,0.0,0.0,0.0,0.0,0.0,0.0,0.0,0.0,0.0,1.5375,1.5431,1.5462,1.5593,1.6631,1.7342,1.7657,1.9736,2.1176,2.1844,2.3058,2.3842,2.423,2.4334,2.4363,2.4293,2.4259,2.4419,2.4802,2.5733,2.6282,2.6659,2.7868,2.8356,2.8356,2.8546,2.9604,3.1042,3.1042,3.1549,3.22,1.4376,1.4686,1.4973,1.4847,1.5557,1.6211,1.6267,1.6757,1.7114,1.7054,0.0,0.0,0.0,0.0,0.0,0.0,0.0,1.696,1.7861,0.0,1.6372,0.0,0.0,0.0,0.0,0.0,1.7885,1.722,1.6932,1.6597,1.62,1.5937,1.5767,1.5695,0.0,1.4849,1.5671,1.4739,1.4907,1.5815,1.5815,1.5815,1.5815,0.0,1.5815,1.5758,1.558,0.0,0.0,1.5569,1.5636,0.0,0.0,0.0,0.0,0.0,0.0,0.0,0.0,0.0,0.0,1.636,0.0,0.0,0.0,0.0,1.6805,0.0,0.0,0.0,0.0,0.0,0.0,0.0,0.0,0.0,0.0,0.0,0.0,0.0,0.0,0.0,0.0,0.0,0.0,1.444,1.444,1.4647,1.5103,1.6149,1.6663,1.654,1.9954,2.151,2.0947,2.3355,2.4577,2.4577,2.4591,2.4478,2.432,2.4493,2.4591,2.4647,2.5408,2.5797,2.6022,2.7244,2.7732,2.7786,2.8356,2.936,3.0428,3.0428,3.1178,3.22,1.5274,1.5613,1.5817,0.0,0.0,1.6594,1.6729,1.6936,1.719,0.0,0.0,0.0,0.0,0.0,1.7809,0.0,0.0,1.7566,1.7875,1.7532,0.0,0.0,0.0,1.8029,0.0,0.0,0.0,0.0,1.6661,1.6317,1.62,1.5937,1.5815,1.5791,0.0,1.5466,0.0,0.0,0.0,0.0,0.0,1.5815,1.5815,0.0,0.0,1.5591,1.5524,1.5547,0.0,1.5524,1.5625,1.5815,1.5815,1.5815,1.5815,1.5815,1.5815,0.0,0.0,0.0,1.675,1.6896,0.0,0.0,0.0,0.0,0.0,0.0,0.0,0.0,0.0,0.0,0.0,0.0,0.0,0.0,0.0,0.0,0.0,0.0,0.0,0.0,0.0,0.0,0.0,1.4396,1.4396,1.459,0.0,1.6455,1.753,1.8196,2.0816,2.2325,2.2616,2.395,2.4606,2.4606,2.4692,2.4706,2.4622,2.462,2.4706,2.4904,2.5468,2.577,2.5995,2.7189,2.7689,2.7759,2.8356,2.9333,3.0401,3.0401,3.1151,3.22,1.5815,1.63,1.6498,0.0,0.0,0.0,0.0,0.0,0.0,0.0,1.7862,0.0,1.7068,0.0,1.7648,0.0,1.7539,1.7902,1.7902,1.7902,0.0,1.8093,1.7993,0.0,0.0,0.0,0.0,0.0,0.0,1.6145,1.611,1.5915,1.5815,1.5815,0.0,0.0,0.0,0.0,1.5815,0.0,0.0,1.5815,0.0,0.0,1.5714,1.5591,0.0,1.5547,1.5591,1.5524,1.5625,1.5815,1.5815,1.5815,1.5815,1.5815,1.5815,1.5813,1.5913,1.6435,0.0,1.7101,1.7423,0.0,1.7437,0.0,0.0,0.0,0.0,0.0,0.0,0.0,0.0,0.0,0.0,0.0,0.0,1.4949,0.0,0.0,0.0,0.0,0.0,0.0,1.4396,1.4396,1.4605,1.4948,0.0,0.0,1.8164,1.8895,2.1225,2.264,2.3034,2.4135,2.4706,2.4749,2.4834,2.4863,2.4806,2.4763,2.482,2.4948,2.5283,2.5624,2.5983,2.6972,2.7499,2.7759,2.8356,2.9333,3.0401,3.0401,3.1151,3.22,1.6032,1.6636,0.0,0.0,1.6633,0.0,0.0,0.0,1.775,0.0,1.7781,1.7508,1.7004,1.7512,1.7648,1.7014,1.7539,0.0,1.7902,1.7882,0.0,0.0,1.755,1.7313,1.7167,0.0,0.0,0.0,0.0,0.0,1.599,1.5858,1.578,1.5804,1.5815,0.0,1.5815,1.5815,1.5815,1.5815,1.5815,1.5815,1.5815,1.5815,1.578,1.5771,1.5547,1.5614,1.5758,1.5547,1.5614,1.5815,1.5815,1.5815,1.5815,1.5815,1.5815,1.5815,1.5815,1.6391,1.7024,1.7036,0.0,0.0,0.0,0.0,1.7704,0.0,0.0,0.0,0.0,0.0,0.0,0.0,0.0,0.0,0.0,0.0,0.0,0.0,0.0,0.0,0.0,1.4408,1.4396,1.4408,1.4937,0.0,0.0,0.0,1.8475,1.8685,2.1225,2.2523,2.2293,2.395,2.4877,2.5018,2.5018,2.4948,2.482,2.4948,2.4948,2.4834,2.4948,2.5344,2.5956,2.655,2.7174,2.7759,2.8356,2.9333,3.0401,3.0455,3.1205,3.22,1.6969,1.725,1.7317,0.0,1.7257,1.7521,0.0,0.0,0.0,0.0,1.7811,1.7472,1.6435,1.7268,1.7485,1.6407,1.7295,0.0,0.0,0.0,0.0,1.7529,1.7209,1.6916,1.6693,1.6565,0.0,1.6255,0.0,0.0,1.569,1.5758,1.5714,1.558,0.0,0.0,1.5815,1.5815,1.5815,1.5815,1.5815,1.5815,0.0,0.0,1.5703,1.5547,1.5289,1.5457,1.5725,1.5334,1.5468,1.5815,1.5815,1.5815,1.5815,1.5815,1.5815,1.5815,1.5815,1.6601,1.7458,1.7566,1.8116,1.8634,0.0,0.0,0.0,0.0,0.0,0.0,0.0,0.0,0.0,0.0,0.0,0.0,0.0,0.0,0.0,0.0,0.0,0.0,1.4639,1.4489,1.4454,1.4605,1.4766,0.0,0.0,0.0,0.0,1.9758,2.1705,2.2977,2.3457,2.4359,2.4877,2.5018,2.5018,2.499,2.4962,2.499,2.499,2.4962,2.5004,2.5344,2.5956,2.655,2.7174,2.7759,2.8356,2.9333,3.0527,3.1395,3.1929,3.22,1.7319,0.0,0.0,1.723,0.0,0.0,1.7484,0.0,0.0,1.7699,1.772,0.0,1.6588,1.7349,1.7512,1.657,1.7349,0.0,0.0,0.0,0.0,1.7188,1.6842,1.6597,1.65,1.6306,0.0,1.6099,0.0,0.0,1.5569,1.5625,1.5603,1.5513,0.0,1.5815,0.0,1.5815,1.5815,1.5815,1.5815,0.0,0.0,1.5691,1.5603,1.5446,1.5062,1.5165,1.5468,1.5323,1.5446,1.5669,1.5758,1.5815,1.5815,1.5815,1.5815,1.5815,1.5815,1.6506,1.7325,1.7713,1.8289,1.8846,1.8983,1.8933,1.8647,0.0,0.0,0.0,0.0,0.0,0.0,0.0,0.0,0.0,0.0,0.0,0.0,0.0,0.0,0.0,1.5513,1.5017,1.4697,1.4697,0.0,0.0,0.0,0.0,0.0,2.032,2.2443,2.3593,2.3595,2.4901,2.5389,2.5018,2.5018,2.5018,2.5018,2.5018,2.5018,2.5018,2.5018,2.5507,2.6321,2.6659,2.731,2.8166,2.9062,2.9794,3.0554,3.1766,3.22,3.22,0.0,0.0,0.0,0.0,0.0,0.0,0.0,1.7437,0.0,1.7648,0.0,1.7397,1.7002,1.75,1.7578,1.6944,0.0,1.7581,1.7313,1.7251,1.7105,1.682,1.6432,1.6281,1.6414,1.6001,0.0,0.0,0.0,0.0,1.5446,1.5513,1.5513,1.5457,0.0,0.0,0.0,1.5815,1.5815,0.0,1.5815,1.5815,1.5769,1.558,1.548,1.539,1.4914,1.4914,1.5176,1.5379,1.5491,1.5569,1.5725,1.5815,1.5815,1.5815,1.5815,1.5815,1.5815,1.6325,1.7034,1.7664,1.8351,1.8921,1.9083,1.9108,1.882,1.7761,1.7324,1.6928,0.0,0.0,0.0,0.0,0.0,0.0,0.0,0.0,0.0,0.0,0.0,0.0,0.0,1.5756,1.5165,0.0,0.0,0.0,0.0,0.0,0.0,2.0398,2.3004,0.0,2.3432,0.0,2.6052,2.5344,2.5113,2.5046,2.5127,2.5046,2.5018,2.5018,2.5073,2.5764,2.6806,2.6903,2.7635,2.8817,2.9957,3.0428,3.0663,3.1793,3.22,3.22,0.0,0.0,0.0,0.0,0.0,1.735,1.724,1.7396,1.7488,1.7453,1.7577,1.7448,1.6915,1.7233,1.7168,1.6323,1.6566,0.0,0.0,0.0,0.0,1.64,1.6077,1.5891,1.5913,1.5835,1.5802,0.0,0.0,0.0,1.5176,1.5569,1.5536,0.0,0.0,0.0,1.5815,1.5815,0.0,1.5815,1.5815,1.5815,1.5769,1.558,1.5368,1.5153,1.5062,1.5198,1.5401,1.5232,1.5424,1.5736,1.5804,1.5815,1.5815,1.5815,1.5815,1.5815,1.5815,1.6534,1.7376,1.7726,1.8535,1.9364,1.9596,1.966,1.9597,1.9384,1.8437,1.7614,1.7517,0.0,0.0,0.0,0.0,0.0,0.0,0.0,0.0,0.0,0.0,0.0,0.0,0.0,0.0,0.0,0.0,0.0,0.0,0.0,0.0,0.0,2.2175,0.0,0.0,0.0,2.5939,2.7216,2.5709,2.5263,2.5724,2.5236,2.5018,2.5046,2.5534,2.6158,2.6833,2.7337,2.8248,2.9404,3.012,3.0717,3.1232,3.1929,3.22,3.22,0.0,0.0,0.0,0.0,0.0,0.0,0.0,1.6884,0.0,1.701,1.7199,1.7115,1.6489,1.6731,1.6709,1.6147,1.6236,1.6154,1.5842,1.5683,1.5609,1.5605,1.5469,0.0,1.578,1.5815,1.5815,1.5815,0.0,0.0,1.5311,0.0,0.0,1.5323,0.0,1.5815,0.0,0.0,0.0,1.5815,1.5815,1.5815,1.5769,1.558,1.5334,1.5097,1.5097,1.5176,1.53,1.53,1.5457,1.5658,1.5758,1.5815,1.5815,1.5815,1.5815,1.5815,1.5815,1.6379,1.7123,1.7652,1.84,1.914,1.9671,1.9811,1.9736,1.9447,1.8821,1.8203,1.7775,1.6867,0.0,0.0,0.0,0.0,0.0,0.0,0.0,0.0,0.0,0.0,0.0,0.0,0.0,0.0,0.0,0.0,0.0,0.0,0.0,0.0,0.0,0.0,0.0,0.0,0.0,2.6755,2.5887,2.5615,2.5874,2.529,2.5018,2.5018,2.5317,2.5954,2.6876,2.7786,2.8698,2.9567,3.0174,3.0771,3.1368,3.1983,3.22,3.22,0.0,1.5899,0.0,0.0,1.5965,0.0,1.6554,1.6371,1.6338,1.6735,1.6863,1.6721,1.6202,1.6289,1.6267,1.5974,1.584,1.5619,1.5213,1.5188,1.5157,1.5117,1.5159,1.5351,1.5725,1.5769,1.5815,0.0,0.0,0.0,0.0,0.0,0.0,0.0,0.0,0.0,0.0,0.0,1.5815,1.5815,1.5815,1.5815,1.5769,1.558,1.5368,1.5187,1.5187,1.5187,1.5221,1.548,1.5558,1.5591,1.5736,1.5815,1.5815,1.5815,1.5815,1.5815,1.5815,1.6199,1.6797,1.7568,1.8191,1.8807,1.9583,1.9785,1.9673,1.9271,1.8946,1.8511,1.7715,1.7134,0.0,0.0,0.0,0.0,0.0,0.0,0.0,0.0,0.0,0.0,0.0,0.0,0.0,0.0,0.0,0.0,0.0,0.0,0.0,0.0,0.0,2.4543,2.3974,0.0,2.7108,0.0,2.6267,2.6158,2.6267,2.567,2.5384,2.5384,2.5534,2.6198,2.7282,2.8356,2.9159,2.9757,3.0364,3.0961,3.1549,3.201,3.22,3.22,0.0,0.0,0.0,0.0,0.0,0.0,0.0,1.6276,1.6436,1.6905,1.6842,1.6603,1.6324,1.614,1.5866,1.5411,1.5028,1.4915,1.5095,1.5118,1.5208,1.5443,1.562,1.5655,1.5536,1.5703,1.5815,0.0,0.0,0.0,0.0,0.0,0.0,0.0,0.0,0.0,0.0,1.5815,1.5815,1.5815,1.5815,1.5815,1.5769,1.558,1.548,1.5457,1.5457,1.5457,1.5491,1.5691,1.5758,1.5793,1.578,1.5815,1.5815,1.5815,1.5815,1.5815,1.5815,1.6199,1.675,1.7448,1.8105,1.8782,1.9454,1.9708,1.9786,1.9736,1.9157,1.8362,1.7569,1.7364,1.7291,0.0,0.0,0.0,0.0,0.0,0.0,0.0,0.0,0.0,0.0,0.0,0.0,0.0,0.0,0.0,0.0,0.0,0.0,2.0425,0.0,2.4909,2.6454,2.6212,2.7123,2.9132,2.7515,2.7011,2.7515,2.6903,2.6632,2.6659,2.7201,2.7813,2.8465,2.9132,2.9784,3.0391,3.0988,3.1576,3.2119,3.2173,3.22,3.22,0.0,0.0,0.0,0.0,0.0,0.0,0.0,1.5379,1.5791,1.6335,1.6421,1.6162,1.5423,1.5524,1.5401,1.48,1.4616,1.4651,1.4971,1.5165,1.525,1.5195,1.5281,1.5436,1.5669,1.5771,1.5815,0.0,0.0,0.0,0.0,0.0,0.0,0.0,0.0,1.5815,1.5815,1.5815,1.5815,1.5815,1.5815,1.5815,1.5804,1.5703,1.5603,1.5524,1.5636,1.5603,1.5536,1.5714,1.5815,1.5815,1.5815,1.5815,1.5815,1.5815,1.5815,1.5815,1.5815,1.6427,1.7159,1.7508,1.83,1.906,1.949,1.963,1.9695,1.9785,1.9404,1.8976,1.8653,1.821,1.8041,0.0,0.0,0.0,0.0,0.0,0.0,0.0,0.0,0.0,0.0,0.0,0.0,0.0,0.0,0.0,0.0,0.0,0.0,2.0479,0.0,2.4258,2.5709,2.6198,2.7108,2.841,2.7689,2.7472,2.7662,2.7093,2.6806,2.6833,2.7445,2.7841,2.8139,2.9105,2.9865,3.0455,3.107,3.1684,3.22,3.22,3.22,3.22,1.4326,0.0,1.4396,0.0,1.4674,1.4834,1.4639,1.4766,1.5165,1.5866,1.5932,1.5636,1.4846,1.504,1.5017,1.4443,1.4396,1.4547,1.4937,1.5244,1.5304,1.5156,1.5197,0.0,1.5703,1.5758,1.5815,1.5815,1.5815,0.0,0.0,0.0,0.0,0.0,1.5835,1.5815,1.5815,1.5815,1.5815,1.5815,1.5815,1.5815,1.5815,1.5815,1.5703,1.5603,1.5736,1.5703,1.5603,1.5736,1.5815,1.5815,1.5815,1.5815,1.5815,1.5815,1.5815,1.5839,1.5983,1.6595,1.7243,1.7666,1.8383,1.9068,1.9449,1.9565,1.9617,1.9669,1.9538,1.9407,1.946,1.8998,1.8791,1.9334,0.0,0.0,0.0,0.0,0.0,0.0,0.0,1.8222,1.8282,0.0,0.0,0.0,0.0,0.0,0.0,0.0,0.0,0.0,0.0,0.0,0.0,2.655,2.7364,2.7976,2.7976,2.7976,2.7949,2.7526,2.7337,2.7337,2.7786,2.8085,2.8302,2.935,3.012,3.0717,3.1314,3.182,3.22,3.22,3.22,3.22,1.4338,1.4396,1.4396,1.4396,1.4396,1.4558,1.5017,1.4697,1.4743,1.5669,1.5401,1.5051,1.4903,1.4891,1.4777,1.4431,1.4396,1.4593,1.5074,1.5277,1.5424,0.0,0.0,1.5703,1.5513,1.5691,1.5815,1.5815,0.0,0.0,1.5815,0.0,1.599,1.6292,1.5957,1.5815,1.5815,1.5815,1.5815,1.5815,1.5815,1.5815,1.5815,1.5815,1.5815,1.5815,1.5815,1.5815,1.5815,1.5815,1.5815,1.5815,1.5815,1.5815,1.5815,1.5815,1.5815,1.5911,1.6451,1.6595,1.6859,1.7941,1.8295,1.8568,1.9258,1.9512,1.9552,1.9433,1.9394,1.9447,1.9565,1.9591,1.9472,1.9072,0.0,0.0,0.0,0.0,0.0,0.0,1.8202,1.8282,1.8478,0.0,0.0,0.0,0.0,0.0,0.0,0.0,0.0,2.2251,2.4028,0.0,2.6767,2.7391,2.8003,2.8573,2.8573,2.8573,2.8573,2.8573,2.8573,2.8573,2.8573,2.8942,2.9512,3.0147,3.0744,3.1341,3.1956,3.2173,3.22,3.22,3.22,3.22,1.4338,1.4396,1.4396,1.4396,1.4396,1.4662,1.5457,1.5446,1.5457,1.5771,1.5108,1.4605,1.4547,1.4834,1.4857,0.0,1.4396,1.4593,0.0,1.5289,1.548,1.5691,1.5758,1.5758,1.5703,1.5758,1.5815,1.5815,0.0,0.0,0.0,1.5815,1.5858,1.5957,1.5846,1.5815,1.5815,1.5815,1.5815,1.5815,1.5815,1.5815,1.5815,1.5815,1.5815,1.5815,1.5815,1.5815,1.5815,1.5815,1.5815,1.5815,1.5815,1.5815,1.5815,1.5815,1.6055,1.6367,1.6547,1.7123,1.776,1.8109,1.8508,1.8887,1.9199,1.9447,1.9578,1.9539,1.9694,1.9797,1.9746,1.9888,1.9926,1.9651,1.9275,0.0,0.0,0.0,0.0,0.0,0.0,1.8429,0.0,1.8759,0.0,0.0,0.0,0.0,0.0,0.0,0.0,0.0,2.4272,0.0,2.7391,2.7581,2.8003,2.8616,2.8616,2.8616,2.8616,2.8616,2.8834,2.9214,2.9214,2.9567,3.0147,3.0771,3.1124,3.1341,3.1956,3.22,3.22,3.22,3.22,3.22,1.4326,1.4396,1.4396,1.4396,1.4396,1.4593,1.5176,1.5266,1.5266,1.5266,1.4766,1.4396,1.4396,1.4983,0.0,1.4697,1.4501,1.4639,1.521,1.5435,1.5614,1.5804,1.5815,1.5815,1.5815,0.0,0.0,1.5815,1.5815,1.5858,1.6001,1.5858,1.5869,1.599,1.5858,1.5815,1.5815,1.5815,1.5815,1.5815,1.5815,1.5815,1.5815,1.5815,1.5815,1.5815,1.5815,1.5815,1.5815,1.5815,1.5815,1.5815,1.5815,1.5815,1.5815,1.5815,1.6175,1.6643,1.6859,1.7544,1.8253,1.8446,1.8734,1.9052,1.9224,1.9447,1.9578,1.9551,1.9784,1.999,1.9952,2.0015,2.0041,1.9857,1.933,1.8821,1.8496,0.0,0.0,0.0,0.0,0.0,0.0,1.9181,0.0,0.0,0.0,0.0,0.0,0.0,0.0,2.3685,2.4776,0.0,2.7865,2.7985,2.8329,2.8942,2.8942,2.8942,2.8942,2.8698,2.8807,2.9159,2.9404,2.9838,3.0428,3.1042,3.1422,3.1684,3.2037,3.22,3.22,3.22,3.22,3.2227,1.4268,1.4315,0.0,0.0,1.4315,0.0,1.4373,1.4396,1.4396,1.4396,1.4396,1.4396,1.4396,1.5176,1.5524,1.5085,0.0,0.0,0.0,1.5658,1.5804,1.5815,1.5815,1.5815,1.5815,1.5815,1.5815,1.5815,1.5815,1.5968,1.627,1.5957,1.5979,1.6259,1.5946,1.5815,1.5815,1.5815,1.5815,1.5815,1.5815,1.5815,1.5815,1.5815,1.5815,1.5815,1.5815,1.5815,1.5815,1.5815,1.5815,1.5815,1.5815,1.5815,1.5815,1.5815,1.6199,1.6763,1.7243,1.782,1.8374,1.8892,1.8975,1.903,1.9378,1.951,1.9551,1.9506,1.9831,2.013,2.0233,2.0082,1.9901,1.9714,1.9195,1.8592,1.7984,0.0,0.0,0.0,0.0,0.0,0.0,1.9817,2.0125,0.0,0.0,0.0,0.0,0.0,2.2905,2.4636,2.5585,2.6787,2.8257,2.8548,2.8959,2.9485,2.9485,2.9485,2.9485,2.8915,2.8725,2.8817,2.9377,2.9974,3.0581,3.1124,3.1684,3.22,3.22,3.22,3.22,3.22,3.22,3.2282,0.0,0.0,1.3033,1.4186,1.3421,1.3045,1.4222,1.4396,1.4396,1.4396,1.4396,1.4396,1.4396,1.4593,1.4685,1.4581,1.5119,1.5457,1.5424,1.5513,1.5636,1.578,1.5815,1.5815,1.5815,1.5815,1.5815,1.5815,1.5815,1.5835,1.5924,1.5835,1.5835,1.5913,1.5835,1.5815,1.5815,1.5815,1.5815,1.5815,1.5815,1.5815,1.5815,1.5815,1.5815,1.5815,1.5815,1.5815,1.5815,1.5815,1.5815,1.5815,1.5815,1.5815,1.5815,1.5815,1.6463,1.7255,1.7375,1.8085,1.8844,1.8964,1.8686,1.8653,1.9635,1.958,1.952,2.0322,2.0774,2.102,2.0844,2.0654,2.0342,1.9784,1.9195,1.8592,1.7984,1.8282,0.0,0.0,1.9961,2.0359,1.9696,2.079,2.1315,0.0,0.0,0.0,0.0,2.4403,2.5322,2.5573,2.6934,2.8042,2.8892,2.9391,2.9613,2.9485,2.9485,2.9485,2.9485,2.935,2.9784,3.0663,3.0798,3.1223,3.1793,3.1929,3.2065,3.22,3.22,3.22,3.22,3.22,3.22,3.2282,1.2965,1.2681,1.2363,1.3194,1.2669,1.2375,1.3226,1.3338,1.3609,1.4303,1.4396,1.4396,1.4396,1.4396,1.4396,1.4396,1.4869,1.5232,1.5379,1.5277,1.5345,1.5647,1.5658,1.5703,1.5815,1.5815,1.5815,1.5815,1.5815,1.5815,1.5815,1.5815,1.5815,1.5815,1.5815,1.5815,1.5815,1.5815,1.5815,1.5815,1.5815,1.5815,1.5815,1.5815,1.5815,1.5815,1.5815,1.5815,1.5815,1.5815,1.5959,1.6175,1.6175,1.6319,1.6523,1.6523,1.6931,1.7448,1.7688,1.8374,1.906,1.9301,1.9336,1.9483,2.02,2.0131,2.0107,2.0665,2.1297,2.1554,2.1088,2.0806,2.0398,1.9791,1.9195,1.8701,1.8374,1.8826,0.0,2.0022,2.0817,2.1184,2.083,2.1794,2.2243,2.1906,0.0,0.0,2.4509,2.606,2.6833,2.6549,2.7889,2.8955,2.9724,3.0328,3.0498,3.0327,3.0327,3.0327,3.0327,3.0055,3.0256,3.0907,3.1178,3.1494,3.182,3.2092,3.22,3.22,3.22,3.22,3.22,3.22,3.22,3.2309,1.1899,1.211,1.211,1.211,1.211,1.2178,1.2412,1.224,1.2571,1.3881,1.4257,1.4396,1.4396,1.4396,1.4396,1.4396,1.4396,1.4651,1.5255,1.5074,1.5085,1.5424,1.548,1.558,1.5736,1.5736,1.5758,1.5815,1.5758,1.5758,1.5815,1.5815,1.5815,1.5815,1.5815,1.5815,1.5815,1.5815,1.5815,1.5815,1.5815,1.5815,1.5815,1.5815,1.5815,1.5815,1.5815,1.5815,1.5804,1.5876,1.6223,1.6607,1.6691,1.7027,1.7424,1.7496,1.752,1.764,1.8181,1.8758,1.9349,1.9806,2.0201,2.0552,2.0826,2.0831,2.0807,2.0976,2.1663,2.2004,2.1268,2.08,2.041,2.0014,1.9315,1.8864,1.9016,0.0,2.0383,2.1344,2.1829,2.2153,2.2395,2.3055,2.3479,2.3479,2.4505,2.5475,2.6342,2.7484,2.8066,2.7924,2.8825,2.9764,3.0764,3.1117,3.1287,3.1287,3.1287,3.1287,3.1287,3.0771,3.0608,3.0717,3.1205,3.1422,3.1494,3.1983,3.22,3.22,3.22,3.22,3.22,3.22,3.22,3.2363,1.1899,1.211,1.211,1.211,1.211,1.2547,1.3846,1.2949,1.2178,1.2424,1.3576,1.4396,1.4396,1.4396,1.4396,1.4396,1.4396,1.4512,1.4789,1.4971,1.5097,1.5153,1.5379,1.5513,1.5547,1.5547,1.5625,1.5815,1.5625,1.5625,1.5815,1.5815,1.5815,1.5815,1.5815,1.5815,1.5815,1.5815,1.5815,1.5815,1.5815,1.5815,1.5815,1.5815,1.5815,1.5815,1.5815,1.5815,1.5863,1.6319,1.6523,1.6691,1.7123,1.7315,1.7496,1.7928,1.8085,1.8205,1.8734,1.96,2.0379,2.0466,2.0201,2.0167,2.1097,2.0967,2.0885,2.181,2.2404,2.2558,2.1797,2.1108,2.0786,2.1093,1.982,1.9152,2.0084,0.0,2.1694,2.2109,2.4188,2.53,2.4452,2.5475,2.6184,2.6184,2.6387,2.7229,2.8928,2.9725,3.0375,3.084,3.0463,3.0832,3.201,3.1528,3.1287,3.1287,3.1287,3.1287,3.1287,3.1205,3.1422,3.1929,3.201,3.2065,3.2065,3.2146,3.22,3.22,3.22,3.22,3.22,3.22,3.22,3.2363,1.1899,1.211,1.211,1.211,1.211,1.2338,1.3038,1.2559,1.211,1.211,1.3433,1.4396,1.4396,1.4396,1.4396,1.4396,1.4396,1.4443,1.4524,1.4651,1.4766,1.488,1.5142,1.5356,1.5502,1.5502,1.5468,1.5412,1.5334,1.5334,1.5412,1.5412,1.5502,1.5636,1.5636,1.5691,1.5815,1.5815,1.5815,1.5815,1.5815,1.5815,1.5815,1.5815,1.5815,1.5815,1.5815,1.5983,1.6305,1.6776,1.731,1.7824,1.8069,1.8558,1.9021,1.9054,1.906,1.9108,1.9349,2.0201,2.1028,2.1028,2.1067,2.1298,2.2077,2.2069,2.2097,2.2854,2.3387,2.3492,2.2789,2.2049,2.1757,2.2269,2.0882,0.0,0.0,2.2339,2.295,2.3907,2.5568,2.6475,2.6131,2.682,2.7274,2.7274,2.762,2.8491,3.0045,3.0561,3.1261,3.2207,3.1747,3.1803,3.2517,3.2034,3.1793,3.1793,3.1793,3.1793,3.1793,3.1793,3.1929,3.22,3.22,3.22,3.22,3.22,3.22,3.22,3.22,3.22,3.2227,3.2572,3.268,3.2852,1.1569,1.1719,1.1806,1.2054,1.211,1.211,1.211,1.211,1.211,1.211,1.3433,1.4396,1.4396,1.4396,1.4396,1.4396,1.4396,1.4396,1.4396,1.4396,1.4466,1.4616,1.4869,1.5131,1.5401,1.5345,1.5244,1.5097,1.504,1.504,1.5097,1.5097,1.521,1.5412,1.5468,1.5591,1.5725,1.5769,1.5815,1.5815,1.5815,1.5815,1.5815,1.5815,1.5815,1.5815,1.5815,1.6151,1.6677,1.7215,1.8013,1.8834,1.9107,1.974,2.034,2.0076,2.0155,2.0322,2.0195,2.0851,2.1596,2.1596,2.1981,2.2533,2.3046,2.3272,2.3513,2.3997,2.4467,2.4589,2.3929,2.3326,2.3079,2.3527,0.0,0.0,0.0,2.3797,2.4395,2.5647,2.6694,2.7442,2.774,2.8136,2.8434,2.8565,2.9058,2.9915,3.1208,3.1465,3.2098,3.32,3.2687,3.2532,3.2846,3.2408,3.22,3.22,3.22,3.22,3.22,3.22,3.22,3.22,3.22,3.22,3.22,3.22,3.22,3.22,3.22,3.22,3.2255,3.287,3.3088,3.3278,1.0598,1.0624,1.0926,1.1936,1.211,1.211,1.211,1.211,1.211,1.211,1.3433,1.4396,1.4396,1.4396,1.4396,1.4396,1.4396,1.4396,1.4396,1.4396,1.4408,1.4419,1.4616,1.4857,1.5119,1.488,1.4869,1.5097,1.4846,1.4857,1.5097,1.5097,1.5108,1.5142,1.539,1.5513,1.5536,1.5714,1.5815,1.5815,1.5815,1.5815,1.5815,1.5815,1.5815,1.5815,1.5815,1.6151,1.6737,1.7648,1.8324,1.8983,1.9964,2.0347,2.0415,2.0507,2.1208,2.1838,2.1417,2.1692,2.2125,2.2125,2.255,2.3063,2.361,2.4117,2.4636,2.5179,2.5652,2.581,2.518,2.4935,2.4829,2.4842,0.0,0.0,2.476,2.5558,2.6228,2.6638,2.8023,2.9056,2.9377,3.0001,3.0612,3.1191,3.1278,3.1874,3.3213,3.3313,3.3628,3.4262,3.3248,3.2861,3.3252,3.2552,3.22,3.22,3.22,3.22,3.22,3.22,3.22,3.22,3.22,3.22,3.22,3.22,3.22,3.22,3.22,3.22,3.2255,3.287,3.3088,3.3278,1.0496,1.1027,1.1619,1.2036,1.1544,1.133,1.1993,1.2912,1.3517,1.3517,1.4046,1.4396,1.4396,1.4396,1.4268,1.394,1.421,1.4396,1.4396,1.4396,1.4454,1.457,1.4651,1.4743,1.4846,1.4743,1.4685,1.4662,1.4558,1.457,1.4662,1.4662,1.4731,1.4857,1.5131,1.5345,1.5513,1.5703,1.5815,1.5815,1.5815,1.5815,1.5839,1.6175,1.6307,1.6355,1.6667,1.7135,1.7726,1.8568,1.947,2.0295,2.066,2.1481,2.2419,2.2926,2.3585,2.4106,2.3946,2.3768,2.3635,2.367,2.4092,2.462,2.5182,2.5443,2.5726,2.6209,2.6474,2.6511,2.6233,2.616,2.6252,2.6604,0.0,2.5697,2.7026,2.72,2.7562,2.866,2.981,3.0662,3.1052,3.1517,3.1874,3.209,3.2513,3.2964,3.3474,3.3864,3.4167,3.4382,3.3531,3.3146,3.3304,3.257,3.22,3.22,3.22,3.22,3.22,3.22,3.22,3.22,3.22,3.22,3.22,3.22,3.22,3.22,3.22,3.22,3.2309,3.3268,3.3601,3.3764,1.0496,1.1091,1.1694,1.203,1.1481,1.1129,1.1531,1.2783,1.3858,1.4338,1.4396,1.4338,1.4163,1.4151,1.3999,1.3632,1.4093,1.4396,1.4396,1.4396,1.4454,1.4593,1.4605,1.4605,1.4605,1.4605,1.4535,1.4396,1.4396,1.4396,1.4396,1.4396,1.4466,1.4616,1.4949,1.5198,1.539,1.5669,1.5815,1.5815,1.5815,1.5855,1.5979,1.6324,1.6574,1.6753,1.7146,1.7674,1.8356,1.9344,2.0322,2.1195,2.1626,2.2738,2.3963,2.462,2.5199,2.5678,2.5844,2.5824,2.5647,2.5023,2.5246,2.5781,2.633,2.658,2.684,2.7311,2.7424,2.7466,2.7627,2.7635,2.7786,2.8193,2.7732,2.7678,2.8725,2.8682,2.8975,3.0146,3.0948,3.1559,3.1936,3.2477,3.2803,3.2803,3.3429,3.3777,3.3777,3.4196,3.4382,3.4382,3.367,3.3304,3.3304,3.257,3.22,3.22,3.22,3.22,3.22,3.22,3.22,3.22,3.22,3.22,3.22,3.22,3.22,3.22,3.22,3.2309,3.2608,3.3528,3.4016,3.4341,1.0496,1.0496,1.0841,1.1893,1.2098,1.1719,1.0662,1.1406,1.2657,1.4186,1.4385,1.4186,1.3668,1.3609,1.3609,1.3609,1.4093,1.4396,1.4396,1.4396,1.4418,1.4418,1.4396,1.4396,1.4396,1.4396,1.4396,1.4396,1.4396,1.4418,1.4418,1.4418,1.4418,1.4419,1.4892,1.5097,1.5131,1.5591,1.5815,1.5804,1.5804,1.5969,1.6185,1.6221,1.6537,1.7019,1.7031,1.7536,1.8429,1.9826,2.0656,2.14,2.3007,2.4002,2.4686,2.5192,2.5699,2.6237,2.6786,2.7755,2.8093,2.5943,2.5826,2.6352,2.6886,2.7432,2.7954,2.8503,2.8616,2.8807,2.9404,2.9512,2.9512,2.9512,3.0011,3.0201,2.9594,3.0038,3.0511,3.0858,3.1193,3.1542,3.1874,3.2869,3.3503,3.3503,3.4051,3.4382,3.4382,3.4382,3.4382,3.4382,3.367,3.3304,3.3304,3.257,3.22,3.22,3.22,3.22,3.22,3.22,3.22,3.22,3.22,3.22,3.22,3.22,3.22,3.22,3.22,3.2572,3.3169,3.371,3.4287,3.4883,1.0496,1.0496,1.0598,1.093,1.0977,1.0879,1.0547,1.1406,1.2264,1.273,1.3386,1.3787,1.3621,1.3609,1.3751,1.4128,1.4303,1.4396,1.4396,1.4713,1.4897,1.4897,1.4581,1.4396,1.4396,1.4396,1.4396,1.4396,1.4734,1.4897,1.4897,1.4897,1.4897,1.4899,1.5038,1.5097,1.5119,1.5446,1.5782,1.6055,1.5893,1.6042,1.6454,1.6824,1.7298,1.7845,1.8467,1.905,1.968,2.0615,2.1817,2.3225,2.4802,2.5505,2.583,2.6328,2.7131,2.7986,2.8578,2.8963,2.8903,2.7429,2.8126,2.896,2.8293,2.8901,2.9555,2.9289,2.9577,2.993,3.0093,3.0473,3.0626,3.0201,3.0635,3.0961,3.0788,3.0907,3.1319,3.2071,3.2511,3.2845,3.3214,3.3775,3.4138,3.4138,3.4312,3.4382,3.4382,3.4382,3.4264,3.3991,3.3531,3.3164,3.2881,3.2426,3.22,3.22,3.22,3.22,3.22,3.22,3.22,3.22,3.22,3.22,3.22,3.22,3.22,3.2227,3.268,3.2952,3.3169,3.371,3.4016,3.426,1.0496,1.0496,1.0496,1.0496,1.0496,1.0496,1.0496,1.104,1.1469,1.1469,1.1999,1.2698,1.3513,1.3609,1.3822,1.435,1.4734,1.4897,1.4744,1.5159,1.5387,1.5387,1.5116,1.4963,1.4963,1.4778,1.4778,1.4963,1.5234,1.5387,1.5387,1.5387,1.5387,1.5378,1.5484,1.5527,1.5539,1.5799,1.6056,1.6286,1.6152,1.6428,1.6961,1.7304,1.7943,1.8759,1.9294,1.9836,2.0423,2.1278,2.2644,2.4253,2.5674,2.6294,2.6607,2.7169,2.8097,2.9051,2.9404,2.9838,2.9988,2.9057,2.9423,2.9903,2.9414,2.9686,3.0011,2.9893,3.0147,3.0455,3.0717,3.1042,3.126,3.1124,3.1422,3.1657,3.1657,3.1657,3.1936,3.2613,3.3058,3.3427,3.3785,3.4162,3.4382,3.4382,3.4601,3.4618,3.4399,3.4467,3.4269,3.3808,3.3322,3.2952,3.2704,3.2372,3.22,3.22,3.22,3.22,3.22,3.22,3.22,3.22,3.22,3.2336,3.2544,3.2282,3.2336,3.2599,3.2952,3.3232,3.3485,3.4043,3.4423,3.4666,1.0496,1.0496,1.0496,1.0496,1.0496,1.0496,1.0496,1.0496,1.0496,1.0496,1.0662,1.1501,1.3386,1.3609,1.3822,1.435,1.5256,1.568,1.5409,1.568,1.5863,1.5863,1.5863,1.5898,1.5929,1.5431,1.5375,1.5798,1.5842,1.5863,1.5863,1.5863,1.5863,1.5876,1.6092,1.6196,1.6209,1.64,1.6498,1.6531,1.6519,1.6954,1.7634,1.7634,1.845,1.9588,1.9647,2.0123,2.0884,2.2031,2.3371,2.4763,2.5841,2.6583,2.7188,2.7725,2.8638,2.9512,2.9621,3.0463,3.1178,3.069,3.011,2.9784,3.0283,3.0055,2.9893,3.0391,3.0527,3.0744,3.1287,3.1368,3.1576,3.2119,3.22,3.22,3.22,3.22,3.23,3.2614,3.3005,3.3374,3.3704,3.4145,3.4428,3.445,3.4872,3.4905,3.4433,3.4505,3.4274,3.3704,3.3058,3.2686,3.265,3.2336,3.22,3.22,3.22,3.22,3.22,3.2255,3.2255,3.22,3.2309,3.2635,3.3061,3.2553,3.2662,3.3196,3.3224,3.3539,3.4043,3.4585,3.5147,3.5608,1.0496,1.0496,1.0496,1.0496,1.0496,1.0496,1.0496,1.0496,1.0496,1.0496,1.1925,1.3098,1.3549,1.3609,1.3822,1.435,1.5256,1.5876,1.6064,1.626,1.6347,1.6347,1.6347,1.6544,1.6964,1.6107,1.5702,1.5798,1.616,1.6347,1.6347,1.6347,1.6347,1.6347,1.6247,1.6196,1.6196,1.6247,1.6471,1.6791,1.6572,1.7074,1.7918,1.7918,1.8533,1.9508,2.0038,2.0819,2.1939,2.3993,2.4921,2.5403,2.6451,2.7185,2.7752,2.8317,2.8976,2.9702,3.0653,3.1097,3.1368,3.1712,3.1359,3.0825,3.0473,3.1015,3.1522,3.1196,3.1494,3.1847,3.1983,3.201,3.2037,3.2173,3.22,3.22,3.22,3.22,3.2237,3.2282,3.2614,3.2988,3.3374,3.4008,3.4568,3.4988,3.4752,3.4555,3.456,3.4201,3.367,3.297,3.2775,3.2561,3.23,3.2237,3.22,3.22,3.22,3.22,3.2227,3.2707,3.2653,3.2255,3.314,3.3376,3.3115,3.3411,3.3609,3.3772,3.4252,3.4496,3.4612,3.4748,3.4883,3.5012,1.0496,1.0496,1.0496,1.0496,1.0496,1.0496,1.0496,1.0496,1.0496,1.0496,1.232,1.3609,1.3609,1.3609,1.4191,1.5658,1.623,1.6601,1.6754,1.6841,1.6885,1.6885,1.6885,1.7016,1.7292,1.6776,1.6514,1.6514,1.6754,1.6885,1.6885,1.6885,1.6885,1.6877,1.677,1.6846,1.7054,1.7054,1.7341,1.7746,1.7619,1.7999,1.8661,1.8661,1.9335,2.0286,2.0663,2.1477,2.2738,2.4722,2.5394,2.5695,2.7317,2.8,2.8401,2.9257,2.9915,3.049,3.1124,3.1522,3.182,3.2119,3.1956,3.1657,3.1314,3.1522,3.1766,3.1739,3.1983,3.22,3.22,3.22,3.22,3.22,3.22,3.22,3.22,3.22,3.2273,3.2426,3.2757,3.3129,3.3496,3.4059,3.4433,3.4522,3.4505,3.4421,3.4223,3.3848,3.3346,3.2721,3.2827,3.2809,3.2626,3.2888,3.3005,3.3023,3.2743,3.2626,3.2653,3.3213,3.3322,3.3032,3.3637,3.39,3.3919,3.3908,3.407,3.4368,3.4666,3.4802,3.4829,3.512,3.5228,3.5228,1.0544,1.0496,1.0496,1.0496,1.0703,1.086,1.086,1.086,1.086,1.086,1.2463,1.3609,1.3609,1.3609,1.4566,1.6937,1.7236,1.7322,1.7403,1.7344,1.735,1.7437,1.7336,1.7306,1.7306,1.7394,1.7436,1.7423,1.7348,1.7348,1.7423,1.7526,1.7528,1.7437,1.7616,1.7866,1.813,1.813,1.8348,1.8713,1.8713,1.8982,1.9403,1.949,2.0141,2.1049,2.1273,2.2198,2.3563,2.5236,2.5854,2.6299,2.8228,2.8911,2.9198,3.0244,3.0907,3.1314,3.1422,3.182,3.22,3.22,3.22,3.22,3.22,3.182,3.1603,3.2092,3.22,3.22,3.22,3.22,3.22,3.22,3.22,3.22,3.22,3.22,3.2282,3.2579,3.2952,3.3322,3.367,3.4162,3.4332,3.4048,3.4493,3.4539,3.4002,3.3829,3.3456,3.2917,3.3127,3.3232,3.3232,3.3683,3.3908,3.3908,3.3539,3.3341,3.3259,3.3818,3.4016,3.3908,3.4124,3.4423,3.4775,3.4368,3.4504,3.4957,3.4957,3.4957,3.5012,3.5527,3.569,3.569,1.0735,1.0496,1.0496,1.0496,1.1513,1.2327,1.2327,1.2327,1.2327,1.2327,1.3069,1.3609,1.3609,1.3609,1.4391,1.6335,1.6998,1.744,1.7794,1.7499,1.7467,1.789,1.7511,1.7306,1.7306,1.7707,1.7928,1.7984,1.7534,1.7534,1.8007,1.8533,1.8464,1.7962,1.8928,1.9081,1.8604,1.8604,1.8632,1.8713,1.8713,1.8982,1.9447,1.9845,2.0112,2.0396,2.1571,2.3077,2.4849,2.6675,2.7713,2.8409,2.9231,2.9791,3.0288,3.0971,3.1232,3.1395,3.1929,3.2146,3.22,3.22,3.22,3.22,3.22,3.2146,3.2092,3.2173,3.22,3.22,3.22,3.22,3.22,3.22,3.22,3.22,3.22,3.22,3.2218,3.2273,3.2561,3.2935,3.3322,3.4087,3.4693,3.4988,3.5365,3.5311,3.4784,3.4632,3.4281,3.3751,3.3764,3.3799,3.3799,3.3853,3.3908,3.3908,3.4341,3.4306,3.3799,3.4395,3.4395,3.3962,3.5012,3.5201,3.4829,3.5283,3.55,3.5581,3.5581,3.5581,3.5581,3.5662,3.569,3.569,1.0607,1.1133,1.1675,1.1675,1.2184,1.2598,1.2598,1.2598,1.2598,1.2598,1.2856,1.3579,1.5007,1.5152,1.5759,1.7267,1.7025,1.7198,1.8137,1.7802,1.7817,1.837,1.8188,1.8079,1.8079,1.8658,1.91,1.945,1.89,1.8757,1.9013,1.9644,1.9589,1.8975,1.9487,1.9471,1.9091,1.9091,1.9228,1.949,1.949,1.979,2.0265,2.0484,2.1069,2.2032,2.3529,2.4314,2.4983,2.7266,2.8256,2.8784,3.0112,3.0714,3.1015,3.163,3.1793,3.1875,3.2119,3.22,3.22,3.22,3.22,3.22,3.22,3.22,3.22,3.22,3.22,3.22,3.22,3.22,3.22,3.22,3.22,3.22,3.22,3.2472,3.2781,3.2955,3.3092,3.3296,3.3531,3.3745,3.4351,3.5507,3.4932,3.4761,3.5321,3.4656,3.4157,3.3927,3.4233,3.4395,3.4395,3.4721,3.491,3.491,3.5174,3.5012,3.4423,3.5039,3.5174,3.4957,3.5473,3.5554,3.531,3.5581,3.569,3.569,3.569,3.569,3.5744,3.609,3.6198,3.6232]},{"header":{"parameterUnit":"m.s-1","parameterCategory":1,"la1":30.6,"la2":28.766,"lo1":-90.7593,"lo2":-88.6598,"dy":0.0162,"dx":0.0183,"nx":116,"ny":114,"refTime":"2024-03-27T12:00:00:Z","depth":0,"parameterNumber":3,"parameterNumberName":"V-component_of_WINDS"},"data":[0.0,0.0,0.0,0.0,0.0,0.0,0.0,0.0,0.0,0.0,0.0,0.0,0.0,0.0,0.0,0.0,0.0,0.0,0.0,0.0,0.0,0.0,0.0,0.0,0.0,0.0,0.0,0.0,0.0,0.0,0.0,0.0,0.0,0.0,0.0,0.0,0.0,0.0,0.0,0.0,0.0,0.0,0.0,0.0,0.0,0.0,0.0,0.0,0.0,0.0,0.0,0.0,0.0,0.0,0.0,0.0,0.0,0.0,0.0,0.0,0.0,0.0,0.0,0.0,0.0,0.0,0.0,0.0,0.0,0.0,0.0,0.0,0.0,0.0,0.0,0.0,0.0,0.0,0.0,0.0,0.0,0.0,0.0,0.0,0.0,0.0,0.0,0.0,0.0,0.0,0.0,0.0,0.0,0.0,0.0,0.0,0.0,0.0,0.0,0.0,0.0,0.0,0.0,0.0,0.0,0.0,0.0,0.0,0.0,0.0,0.0,0.0,0.0,0.0,0.0,0.0,0.0,0.0,0.0,0.0,0.0,0.0,0.0,0.0,0.0,0.0,0.0,0.0,0.0,0.0,0.0,0.0,0.0,0.0,0.0,0.0,0.0,0.0,0.0,0.0,0.0,0.0,0.0,0.0,0.0,0.0,0.0,0.0,0.0,0.0,0.0,0.0,0.0,0.0,0.0,0.0,0.0,0.0,0.0,0.0,0.0,0.0,0.0,0.0,0.0,0.0,0.0,0.0,0.0,0.0,0.0,0.0,0.0,0.0,0.0,0.0,0.0,0.0,0.0,0.0,0.0,0.0,0.0,0.0,0.0,0.0,0.0,0.0,0.0,0.0,0.0,0.0,0.0,0.0,0.0,0.0,0.0,0.0,0.0,0.0,0.0,0.0,0.0,0.0,0.0,0.0,0.0,0.0,0.0,0.0,0.0,0.0,0.0,0.0,0.0,0.0,0.0,0.0,0.0,0.0,0.0,0.0,0.0,0.0,0.0,0.0,0.0,0.0,0.0,0.0,0.0,0.0,0.0,0.0,0.0,0.0,0.0,0.0,0.0,0.0,0.0,0.0,0.0,0.0,0.0,0.0,0.0,0.0,0.0,0.0,0.0,0.0,0.0,0.0,0.0,0.0,0.0,0.0,0.0,0.0,0.0,0.0,0.0,0.0,0.0,0.0,0.0,0.0,0.0,0.0,0.0,0.0,0.0,0.0,0.0,0.0,0.0,0.0,0.0,0.0,0.0,0.0,0.0,0.0,0.0,0.0,0.0,0.0,0.0,0.0,0.0,0.0,0.0,0.0,0.0,0.0,0.0,0.0,0.0,0.0,0.0,0.0,0.0,0.0,0.0,0.0,0.0,0.0,0.0,0.0,0.0,0.0,0.0,0.0,0.0,0.0,0.0,0.0,0.0,0.0,0.0,0.0,0.0,0.0,0.0,0.0,0.0,0.0,0.0,0.0,0.0,0.0,0.0,0.0,0.0,0.0,0.0,0.0,0.0,0.0,0.0,0.0,0.0,0.0,0.0,0.0,0.0,0.0,0.0,0.0,0.0,0.0,0.0,0.0,0.0,0.0,0.0,0.0,0.0,0.0,0.0,0.0,0.0,0.0,0.0,0.0,0.0,0.0,0.0,0.0,0.0,0.0,0.0,0.0,0.0,0.0,0.0,0.0,0.0,0.0,0.0,0.0,0.0,0.0,0.0,0.0,0.0,0.0,0.0,0.0,0.0,0.0,0.0,0.0,0.0,0.0,0.0,0.0,0.0,0.0,0.0,0.0,0.0,0.0,0.0,0.0,0.0,0.0,0.0,0.0,0.0,0.0,0.0,0.0,0.0,0.0,0.0,0.0,0.0,0.0,0.0,0.0,0.0,0.0,0.0,0.0,0.0,0.0,0.0,0.0,0.0,0.0,0.0,0.0,0.0,0.0,0.0,0.0,0.0,0.0,0.0,0.0,0.0,0.0,0.0,0.0,0.0,0.0,0.0,0.0,0.0,0.0,0.0,0.0,0.0,0.0,0.0,0.0,0.0,0.0,0.0,0.0,0.0,0.0,0.0,0.0,0.0,0.0,0.0,0.0,0.0,0.0,0.0,0.0,0.0,0.0,0.0,0.0,0.0,0.0,0.0,0.0,0.0,0.0,0.0,0.0,0.0,0.0,0.0,0.0,0.0,0.0,0.0,0.0,0.0,0.0,0.0,0.0,0.0,0.0,0.0,0.0,0.0,0.0,0.0,0.0,0.0,0.0,0.0,0.0,0.0,0.0,0.0,0.0,0.0,0.0,0.0,0.0,0.0,0.0,0.0,0.0,0.0,0.0,0.0,0.0,0.0,0.0,0.0,0.0,0.0,0.0,0.0,0.0,0.0,0.0,0.0,0.0,0.0,0.0,0.0,0.0,0.0,0.0,0.0,0.0,0.0,0.0,0.0,0.0,0.0,0.0,0.0,0.0,0.0,0.0,0.0,0.0,0.0,0.0,0.0,0.0,0.0,0.0,0.0,0.0,0.0,0.0,0.0,0.0,0.0,0.0,0.0,0.0,0.0,0.0,0.0,0.0,0.0,0.0,0.0,0.0,0.0,0.0,0.0,0.0,0.0,0.0,0.0,0.0,0.0,0.0,0.0,0.0,0.0,0.0,0.0,0.0,0.0,0.0,0.0,0.0,0.0,0.0,0.0,0.0,0.0,0.0,0.0,0.0,0.0,0.0,0.0,0.0,0.0,0.0,0.0,0.0,0.0,0.0,0.0,0.0,0.0,0.0,0.0,0.0,0.0,0.0,0.0,0.0,0.0,0.0,0.0,0.0,0.0,0.0,0.0,0.0,0.0,0.0,0.0,0.0,0.0,0.0,0.0,0.0,0.0,0.0,0.0,0.0,0.0,0.0,0.0,0.0,0.0,0.0,0.0,0.0,0.0,0.0,0.0,0.0,0.0,0.0,0.0,0.0,0.0,0.0,0.0,0.0,0.0,0.0,0.0,0.0,0.0,0.0,0.0,0.0,0.0,0.0,0.0,0.0,0.0,0.0,0.0,0.0,0.0,0.0,0.0,0.0,0.0,0.0,0.0,0.0,0.0,0.0,0.0,0.0,0.0,0.0,0.0,0.0,0.0,0.0,0.0,0.0,0.0,0.0,0.0,0.0,0.0,0.0,0.0,0.0,0.0,0.0,0.0,0.0,0.0,0.0,0.0,0.0,0.0,0.0,0.0,0.0,0.0,0.0,0.0,0.0,0.0,0.0,0.0,0.0,0.0,0.0,0.0,0.0,0.0,0.0,0.0,0.0,0.0,0.0,0.0,0.0,0.0,0.0,0.0,0.0,0.0,0.0,0.0,0.0,0.0,0.0,0.0,0.0,0.0,0.0,0.0,0.0,0.0,0.0,0.0,0.0,0.0,0.0,0.0,0.0,0.0,0.0,0.0,0.0,0.0,0.0,0.0,0.0,0.0,0.0,0.0,0.0,0.0,0.0,0.0,0.0,0.0,0.0,0.0,0.0,0.0,0.0,0.0,0.0,0.0,0.0,0.0,0.0,0.0,0.0,0.0,0.0,0.0,0.0,0.0,0.0,0.0,0.0,0.0,0.0,0.0,0.0,0.0,0.0,0.0,0.0,0.0,0.0,0.0,0.0,0.0,0.0,0.0,0.0,0.0,0.0,0.0,0.0,0.0,0.0,0.0,0.0,0.0,0.0,0.0,0.0,0.0,0.0,0.0,0.0,0.0,0.0,0.0,0.0,0.0,0.0,0.0,0.0,0.0,0.0,0.0,0.0,0.0,0.0,0.0,0.0,0.0,0.0,0.0,0.0,0.0,0.0,0.0,0.0,0.0,0.0,0.0,0.0,0.0,0.0,0.0,0.0,0.0,0.0,0.0,0.0,0.0,0.0,0.0,0.0,0.0,0.0,0.0,0.0,0.0,0.0,0.0,0.0,0.0,0.0,0.0,0.0,0.0,0.0,0.0,0.0,0.0,0.0,0.0,0.0,0.0,0.0,0.0,0.0,0.0,0.0,0.0,0.0,0.0,0.0,0.0,0.0,0.0,0.0,0.0,0.0,0.0,0.0,0.0,0.0,0.0,0.0,0.0,0.0,0.0,0.0,0.0,0.0,0.0,0.0,0.0,0.0,0.0,0.0,0.0,0.0,0.0,0.0,0.0,0.0,0.0,0.0,0.0,0.0,0.0,0.0,0.0,0.0,0.0,0.0,0.0,0.0,0.0,0.0,0.0,0.0,0.0,0.0,0.0,0.0,0.0,0.0,0.0,0.0,0.0,0.0,0.0,0.0,0.0,0.0,0.0,0.0,0.0,0.0,0.0,0.0,0.0,0.0,0.0,0.0,0.0,0.0,0.0,0.0,0.0,0.0,0.0,0.0,0.0,0.0,0.0,0.0,0.0,0.0,0.0,0.0,0.0,0.0,0.0,0.0,0.0,0.0,0.0,0.0,0.0,0.0,0.0,0.0,0.0,0.0,0.0,0.0,0.0,0.0,0.0,0.0,0.0,0.0,0.0,0.0,0.0,0.0,0.0,0.0,0.0,0.0,0.0,0.0,0.0,0.0,0.0,0.0,0.0,0.0,0.0,0.0,0.0,0.0,0.0,0.0,0.0,0.0,0.0,0.0,0.0,0.0,0.0,0.0,0.0,0.0,0.0,0.0,0.0,0.0,0.0,0.0,0.0,0.0,0.0,0.0,0.0,0.0,0.0,0.0,0.0,0.0,0.0,0.0,0.0,0.0,0.0,0.0,0.0,0.0,0.0,0.0,0.0,0.0,0.0,0.0,0.0,0.0,0.0,0.0,0.0,0.0,0.0,0.0,0.0,0.0,0.0,0.0,0.0,0.0,0.0,0.0,0.0,0.0,0.0,0.0,0.0,0.0,0.0,0.0,0.0,0.0,0.0,0.0,0.0,0.0,0.0,0.0,0.0,0.0,0.0,0.0,0.0,0.0,0.0,0.0,0.0,0.0,0.0,0.0,0.0,0.0,0.0,0.0,0.0,0.0,0.0,0.0,0.0,0.0,0.0,0.0,0.0,0.0,0.0,0.0,0.0,0.0,0.0,0.0,0.0,0.0,0.0,0.0,0.0,0.0,0.0,0.0,0.0,0.0,0.0,0.0,0.0,0.0,0.0,0.0,0.0,0.0,0.0,0.0,0.0,0.0,0.0,0.0,0.0,0.0,0.0,0.0,0.0,0.0,0.0,0.0,0.0,0.0,0.0,0.0,0.0,0.0,0.0,0.0,0.0,0.0,0.0,0.0,0.0,0.0,0.0,0.0,0.0,0.0,0.0,0.0,0.0,0.0,0.0,0.0,0.0,0.0,0.0,0.0,0.0,0.0,0.0,0.0,0.0,0.0,0.0,0.0,0.0,0.0,0.0,0.0,0.0,0.0,0.0,0.0,0.0,0.0,0.0,0.0,0.0,0.0,0.0,0.0,0.0,0.0,0.0,0.0,0.0,0.0,0.0,0.0,0.0,0.0,0.0,0.0,0.0,0.0,0.0,0.0,0.0,0.0,0.0,0.0,0.0,0.0,0.0,0.0,0.0,0.0,0.0,0.0,0.0,0.0,0.0,0.0,0.0,0.0,0.0,0.0,0.0,0.0,0.0,0.0,0.0,0.0,0.0,0.0,0.0,0.0,0.0,0.0,0.0,0.0,0.0,0.0,0.0,0.0,0.0,0.0,0.0,0.0,0.0,0.0,0.0,0.0,0.0,0.0,0.0,0.0,0.0,0.0,0.0,0.0,0.0,0.0,0.0,0.0,0.0,0.0,0.0,0.0,0.0,0.0,0.0,0.0,0.0,0.0,0.0,0.0,0.0,0.0,0.0,0.0,0.0,0.0,0.0,0.0,0.0,0.0,0.0,0.0,0.0,0.0,0.0,0.0,0.0,0.0,0.0,0.0,0.0,0.0,0.0,0.0,0.0,0.0,0.0,0.0,0.0,0.0,0.0,0.0,0.0,0.0,0.0,0.0,0.0,0.0,0.0,0.0,0.0,0.0,0.0,0.0,0.0,0.0,0.0,0.0,0.0,0.0,0.0,0.0,0.0,0.0,0.0,0.0,0.0,0.0,0.0,0.0,0.0,0.0,0.0,0.0,0.0,0.0,1.325,0.0,0.0,0.0,0.0,0.0,0.0,0.0,0.0,0.0,0.0,0.0,0.0,0.0,0.0,0.0,0.0,0.0,0.0,0.0,0.0,0.0,0.0,0.0,0.0,1.3012,1.3473,1.3512,1.3871,1.4089,1.4089,0.0,0.0,0.0,0.0,0.0,1.4663,1.4521,1.4912,1.5962,1.5782,1.5804,1.6098,1.7071,1.7497,1.7503,0.0,0.0,0.0,0.0,0.0,0.0,0.0,0.0,0.0,0.0,0.0,0.0,0.0,0.0,0.0,0.0,0.0,0.0,0.0,0.0,0.0,0.0,0.0,0.0,0.0,0.0,0.0,0.0,0.0,0.0,0.0,0.0,0.0,0.0,0.0,0.0,0.0,0.0,0.0,0.0,0.0,0.0,0.0,0.0,0.0,0.0,0.0,0.0,0.0,0.0,0.0,0.0,0.0,0.0,0.0,0.0,0.0,0.0,0.0,0.0,0.0,0.0,0.0,0.0,0.0,0.0,0.0,0.0,0.0,0.0,0.0,1.4532,0.0,0.0,0.0,0.0,0.0,0.0,0.0,0.0,0.0,0.0,0.0,0.0,0.0,0.0,0.0,0.0,0.0,0.0,0.0,0.0,0.0,1.2688,1.2169,1.3161,1.369,1.3149,1.3725,1.4089,1.4089,1.4089,0.0,0.0,0.0,1.4485,1.5277,1.5217,1.5754,1.687,1.6517,1.6601,1.7094,1.8091,1.837,1.8024,1.8363,0.0,0.0,0.0,0.0,0.0,0.0,0.0,0.0,0.0,0.0,0.0,0.0,0.0,0.0,0.0,0.0,0.0,0.0,0.0,0.0,0.0,0.0,0.0,0.0,0.0,0.0,0.0,0.0,0.0,0.0,0.0,0.0,0.0,0.0,0.0,0.0,0.0,0.0,0.0,0.0,0.0,0.0,0.0,0.0,0.0,0.0,0.0,0.0,0.0,0.0,0.0,0.0,0.0,0.0,0.0,0.0,0.0,0.0,0.0,0.0,0.0,0.0,0.0,1.5376,1.5741,1.608,1.6177,1.6217,1.6223,1.6262,1.5742,1.4932,0.0,0.0,0.0,0.0,0.0,0.0,0.0,0.0,0.0,0.0,0.0,0.0,0.0,0.0,0.0,0.0,0.0,0.0,0.0,0.0,1.3116,1.3732,1.3369,1.3294,1.3907,1.405,1.4089,1.4089,1.4089,1.4089,1.4089,1.4089,1.4485,1.5277,1.4974,1.5262,1.6321,1.6711,1.7465,1.8618,1.9001,1.9522,2.0073,1.8982,1.8896,1.9571,0.0,0.0,0.0,0.0,0.0,0.0,0.0,0.0,0.0,0.0,0.0,0.0,0.0,0.0,0.0,0.0,0.0,0.0,0.0,0.0,0.0,0.0,0.0,0.0,0.0,0.0,0.0,0.0,0.0,0.0,0.0,0.0,0.0,0.0,0.0,0.0,0.0,0.0,0.0,0.0,0.0,1.5875,1.4326,0.0,0.0,0.0,0.0,0.0,0.0,0.0,0.0,0.0,0.0,0.0,0.0,0.0,0.0,1.6702,1.724,1.7563,1.7701,1.7758,1.7576,1.7205,1.7681,1.787,1.7904,1.8361,0.0,1.5651,1.5756,0.0,0.0,0.0,0.0,0.0,0.0,0.0,0.0,0.0,0.0,0.0,0.0,0.0,0.0,0.0,0.0,0.0,0.0,0.0,0.0,0.0,1.4196,1.4374,1.4734,1.5979,1.6193,1.4845,1.5598,1.567,1.4809,1.477,1.5348,1.6566,1.5986,1.6048,1.6875,1.8252,1.8999,1.9201,2.0125,2.0736,2.1095,2.094,2.0788,2.0634,2.0297,0.0,0.0,0.0,0.0,0.0,0.0,0.0,0.0,0.0,0.0,0.0,0.0,0.0,0.0,0.0,0.0,0.0,0.0,0.0,0.0,0.0,0.0,0.0,0.0,0.0,0.0,0.0,0.0,0.0,0.0,0.0,0.0,0.0,0.0,0.0,0.0,0.0,0.0,0.0,1.7308,1.707,1.5369,1.6757,1.7406,0.0,0.0,0.0,0.0,0.0,0.0,0.0,0.0,0.0,1.5886,1.7042,1.7743,1.7919,1.8804,1.9254,1.9262,1.9557,1.9602,1.9366,1.9614,1.9883,2.0182,2.0436,1.9774,1.8462,1.7194,1.6523,1.6223,0.0,0.0,0.0,0.0,1.5591,1.5086,0.0,0.0,0.0,0.0,0.0,0.0,0.0,0.0,0.0,0.0,0.0,0.0,1.4624,1.5037,1.5497,1.613,1.741,1.7517,1.5995,1.6387,1.6387,1.5598,1.5384,1.603,1.757,1.7171,1.7449,1.8468,1.9855,2.0587,2.0668,2.1794,2.2452,2.27,2.3263,2.2974,2.2076,2.1609,2.1407,2.1319,0.0,0.0,0.0,0.0,0.0,0.0,0.0,0.0,0.0,0.0,0.0,0.0,0.0,0.0,0.0,0.0,0.0,0.0,0.0,0.0,0.0,0.0,0.0,0.0,0.0,0.0,0.0,0.0,0.0,0.0,0.0,0.0,0.0,0.0,0.0,0.0,0.0,1.7618,1.7692,1.6117,1.7579,1.8305,0.0,0.0,0.0,0.0,0.0,0.0,1.6903,1.769,1.807,1.7981,1.923,1.9816,1.9668,2.0549,2.1111,2.1376,2.1797,2.1979,2.1988,2.2109,2.2312,2.2577,2.255,2.2267,2.1634,1.9093,1.7642,1.6955,1.6427,1.6154,1.6146,1.6634,1.6524,1.6253,0.0,0.0,0.0,0.0,0.0,0.0,0.0,0.0,0.0,0.0,0.0,1.374,1.6047,1.5585,1.6066,1.8431,1.7339,1.6776,1.7427,1.5487,1.4874,1.6272,1.567,1.603,1.757,1.8109,1.9374,2.1405,2.102,2.1972,2.4062,2.4371,2.4908,2.5585,2.562,2.492,2.3633,2.2651,2.2207,2.2137,2.1797,0.0,0.0,0.0,0.0,0.0,0.0,0.0,0.0,0.0,0.0,0.0,0.0,0.0,0.0,0.0,0.0,0.0,0.0,0.0,0.0,0.0,0.0,0.0,0.0,0.0,0.0,0.0,0.0,0.0,0.0,0.0,0.0,0.0,0.0,0.0,0.0,0.0,0.0,1.5854,1.7861,0.0,0.0,0.0,0.0,1.8,1.7972,1.7989,1.8108,1.9349,2.0009,1.9887,2.115,2.2233,2.3045,2.3302,2.3867,2.4757,2.4903,2.4948,2.4913,2.5429,2.5395,2.4947,2.4872,2.4857,2.4606,2.1204,1.9105,1.8061,1.752,1.7231,1.7181,1.7717,1.7855,1.7858,0.0,0.0,0.0,0.0,0.0,1.2212,1.2997,1.329,1.3618,1.4147,1.4727,1.5446,1.6304,1.7492,1.8627,1.9515,1.9953,1.9882,1.9203,1.8342,1.8128,1.8699,1.7981,1.8105,1.9255,2.0,2.0998,2.2249,2.3056,2.4099,2.5277,2.5365,2.5836,2.6586,2.7114,2.6801,2.5736,2.3743,2.2829,2.2669,2.1271,2.1076,0.0,0.0,0.0,0.0,0.0,0.0,0.0,0.0,0.0,0.0,0.0,0.0,0.0,0.0,0.0,0.0,0.0,0.0,0.0,0.0,0.0,0.0,0.0,0.0,0.0,0.0,0.0,0.0,0.0,0.0,0.0,0.0,0.0,0.0,0.0,0.0,0.0,1.8851,1.9911,0.0,0.0,1.9386,1.9298,1.9797,1.9558,1.9752,2.0589,2.1754,2.2536,2.2895,2.4535,2.5552,2.5859,2.634,2.6728,2.7058,2.71,2.7116,2.7088,2.7212,2.7137,2.6947,2.6842,2.6576,2.6055,2.4488,2.2487,2.0342,1.9393,1.873,1.8405,1.897,1.9148,1.9156,0.0,0.0,0.0,0.0,1.1036,1.1685,1.2176,1.2666,1.3178,1.3687,1.5088,1.6336,1.7129,1.8865,2.0334,2.1126,2.1381,2.1223,2.0486,1.9452,1.9116,1.9695,1.9489,1.9872,2.1034,2.1873,2.2816,2.3868,2.4893,2.5766,2.6405,2.6624,2.7124,2.7955,2.8711,2.8768,2.8132,2.6165,2.4492,2.3019,2.1867,2.1703,2.2117,0.0,0.0,0.0,0.0,0.0,0.0,0.0,0.0,0.0,0.0,0.0,0.0,0.0,0.0,0.0,0.0,0.0,0.0,0.0,0.0,0.0,0.0,0.0,0.0,0.0,0.0,0.0,0.0,0.0,0.0,0.0,0.0,0.0,0.0,0.0,2.0376,2.1331,2.1925,2.2268,2.2378,2.1517,2.134,2.2221,2.1856,2.2152,2.3403,2.4377,2.5096,2.55,2.6989,2.7751,2.7723,2.8153,2.8426,2.854,2.8798,2.8984,2.9183,2.9294,2.9219,2.8917,2.8657,2.823,2.7696,2.6914,2.546,2.3557,2.1997,2.0757,1.994,2.0664,2.0694,2.0336,0.0,0.0,0.0,0.9518,1.0205,1.0656,1.0627,1.1946,1.2947,1.2919,1.4358,1.629,1.8574,1.96,2.1048,2.3325,2.1355,2.0383,2.1304,1.8382,1.74,1.9206,2.0062,2.1238,2.2853,2.3671,2.4845,2.6452,2.6452,2.6885,2.7708,2.8263,2.8993,2.9787,3.0442,3.0743,3.0672,2.9995,2.7251,2.3434,2.3803,2.3275,2.2301,0.0,0.0,0.0,0.0,0.0,0.0,0.0,0.0,0.0,0.0,0.0,0.0,0.0,0.0,0.0,0.0,0.0,0.0,0.0,0.0,0.0,0.0,0.0,0.0,0.0,0.0,0.0,0.0,0.0,0.0,0.0,0.0,0.0,1.948,2.0579,2.1839,2.3066,2.3809,2.4188,2.4201,2.3724,2.3927,2.5187,2.487,2.5172,2.642,2.7189,2.7589,2.7604,2.8378,2.8754,2.8641,2.8768,2.9001,2.9312,3.0021,3.0624,3.1146,3.1743,3.1589,3.0804,3.0195,2.9831,2.956,2.8339,2.7814,2.7495,2.5258,2.3263,2.1767,2.2896,2.2516,2.1488,0.0,0.0,0.9153,0.8766,0.9264,0.9982,1.0572,1.1461,1.2299,1.3028,1.5973,1.8266,1.9077,2.1425,2.3237,2.3948,2.1206,2.0289,2.2342,1.8774,1.7911,2.0814,2.1707,2.2936,2.465,2.5503,2.6454,2.7436,2.8035,2.867,2.9357,2.9514,3.0062,3.0973,3.175,3.1714,3.1088,3.1505,3.0219,2.7707,2.5922,2.4984,2.4499,0.0,0.0,0.0,0.0,0.0,0.0,0.0,0.0,0.0,0.0,0.0,0.0,0.0,0.0,0.0,0.0,0.0,0.0,0.0,0.0,0.0,0.0,0.0,0.0,0.0,0.0,0.0,0.0,0.0,0.0,0.0,0.0,2.1088,2.1501,2.2673,2.4005,2.5478,2.6098,2.6471,2.6565,2.634,2.6382,2.6835,2.7471,2.7883,2.806,2.9005,2.9605,2.9755,3.0852,3.1427,3.1421,3.1913,3.1971,3.1588,3.1809,3.1982,3.2108,3.2185,3.2092,3.1843,3.1085,3.0671,3.0397,2.9577,2.8929,2.8262,2.6725,2.5545,2.4736,2.5049,2.4434,2.3548,0.0,0.7132,0.8365,0.8723,0.9139,0.9583,1.0027,1.1048,1.1948,1.2531,1.6456,1.9209,1.9301,2.1631,2.3053,2.2676,2.0572,1.9725,2.0866,1.9329,1.9549,2.2165,2.3065,2.4478,2.6475,2.7017,2.8016,2.9496,2.9649,3.0118,3.0854,3.144,3.2035,3.2643,3.3758,3.3922,3.3458,3.4026,3.3537,3.2194,3.0328,2.8582,2.6885,2.5337,2.4688,2.4577,2.4088,2.4145,2.4282,2.3123,0.0,0.0,0.0,0.0,0.0,0.0,0.0,0.0,0.0,0.0,0.0,0.0,0.0,0.0,0.0,0.0,0.0,0.0,0.0,0.0,0.0,0.0,0.0,0.0,2.281,2.4418,2.5957,2.6052,2.6808,2.9044,2.9564,2.9862,3.0184,2.9977,2.9932,3.0285,3.0712,3.1004,3.1136,3.1725,3.2101,3.2243,3.2958,3.3201,3.2926,3.3301,3.3146,3.2497,3.2774,3.2919,3.2919,3.3099,3.2988,0.0,3.2191,3.1588,3.0899,3.069,3.0199,0.0,0.0,0.0,0.0,0.0,2.5492,2.5019,0.0,0.5858,0.7301,0.9047,0.9421,0.9459,0.9343,1.0737,1.1786,1.1713,1.6044,1.9076,1.8826,2.05,2.1261,2.038,1.9472,1.8727,1.8248,1.993,2.1647,2.3281,2.4264,2.5884,2.821,2.848,2.9639,3.1873,3.1251,3.1379,3.22,3.3537,3.4276,3.4542,3.5969,3.6582,3.6576,3.6677,3.6565,3.6198,3.5476,3.2927,2.9482,2.8692,2.835,2.8167,2.7517,2.6606,2.563,2.4772,0.0,0.0,0.0,0.0,0.0,0.0,0.0,0.0,0.0,0.0,0.0,0.0,0.0,0.0,0.0,0.0,0.0,0.0,0.0,0.0,0.0,0.0,0.0,0.0,2.6297,2.8558,3.1459,3.0333,3.0212,3.2924,3.3257,3.3473,3.401,3.3683,3.3663,3.4188,3.3899,3.3937,3.4484,0.0,0.0,0.0,0.0,3.433,3.3726,3.371,3.3384,3.2729,3.3313,3.362,3.362,3.4167,3.4008,3.3326,3.3268,3.2495,3.1343,3.1606,3.1411,3.0796,3.0001,2.8676,2.7148,2.6543,2.6314,2.6314,0.0,0.7022,0.8814,0.8565,0.8994,0.9419,0.9581,1.0846,1.1645,1.129,1.4975,1.7165,1.5951,1.7923,1.926,1.9131,1.7592,1.712,1.8199,2.0463,2.2505,2.4194,2.5647,2.7378,2.9354,3.0739,3.1675,3.2203,3.2732,3.3069,3.3146,3.4057,3.4926,3.5706,3.6706,3.7058,3.689,3.6945,3.6807,3.6604,3.6425,3.4825,3.2399,3.1379,3.0549,2.9882,2.9538,2.9598,2.9608,2.7886,2.7181,2.6691,2.4821,2.3123,0.0,0.0,0.0,0.0,0.0,0.0,0.0,0.0,0.0,0.0,0.0,0.0,0.0,0.0,0.0,0.0,0.0,0.0,0.0,2.6359,2.8474,3.09,3.4095,3.4707,3.4688,3.4269,3.4226,3.4287,3.4396,3.4333,3.4316,3.4425,3.4793,3.4878,3.4529,3.4947,0.0,3.5212,3.5228,3.5141,3.5027,3.5027,3.4701,3.4034,0.0,0.0,3.4225,3.4353,3.4308,3.4129,3.3641,3.3112,3.2511,3.2123,3.1699,3.1312,3.06,3.0083,2.9692,2.9108,2.8882,2.8882,0.0,0.856,0.9472,0.9072,0.9236,0.95,0.9658,1.0621,1.123,1.1052,1.3922,1.5911,1.5671,1.6806,1.7545,1.7591,1.6668,1.7267,2.0151,2.1866,2.3724,2.5844,2.7554,2.9275,3.1041,3.1905,3.2794,3.3642,3.3664,3.4041,3.4806,3.5599,3.6484,3.738,3.8245,3.8553,3.8465,3.8498,3.838,3.8153,3.8153,3.7376,3.6031,3.4521,3.345,3.2734,3.2612,3.2104,3.1358,2.9996,2.8978,2.7967,2.6065,2.4419,2.3134,0.0,0.0,0.0,0.0,0.0,0.0,0.0,0.0,0.0,0.0,0.0,0.0,0.0,0.0,2.2093,2.3362,0.0,2.7146,2.9923,3.1755,3.3687,3.6001,3.6979,3.7157,3.6535,3.646,3.646,3.646,3.646,3.646,3.646,3.6717,3.6791,3.6475,3.6731,3.6891,3.6892,3.6909,3.6742,3.6415,3.6415,3.5897,3.4905,3.4905,3.4706,3.4382,3.4382,3.4382,3.4382,3.408,3.3678,3.3149,3.275,3.2437,3.216,3.1749,3.134,3.0965,3.0656,3.0544,3.0544,0.0,0.9785,0.9745,0.9723,0.9638,0.9642,0.9719,1.0378,1.0838,1.0821,1.2906,1.4574,1.5045,1.5475,1.5836,1.6126,1.6307,1.8017,2.1916,2.3159,2.4874,2.7313,2.9239,3.0948,3.2519,3.2706,3.3554,3.5094,3.4547,3.4975,3.631,3.7267,3.8069,3.8755,3.9543,3.9905,3.9922,3.9975,3.9895,3.9688,3.9688,3.9495,3.9028,3.7266,3.6162,3.5528,3.5308,3.3895,3.2009,3.1326,3.0024,2.8413,2.6898,2.5792,2.481,2.3647,2.285,0.0,0.0,0.0,0.0,0.0,0.0,0.0,0.0,0.0,2.1007,2.1683,2.3317,2.5145,2.6796,2.87,3.0815,3.3335,3.4823,3.6119,3.7404,3.8062,3.8408,3.8408,3.8408,3.8408,3.8408,3.8408,3.8408,3.8408,3.8408,3.8408,3.8408,3.8408,3.8408,3.8408,3.8262,3.7961,3.7417,3.7283,3.6677,3.5609,3.5609,3.5302,3.4773,3.4668,3.4601,3.4585,3.4416,3.4059,3.3595,3.3412,3.3245,3.3094,3.2936,3.2472,3.1858,3.16,3.1572,3.164,0.0,0.9866,0.9854,0.9704,0.9627,0.9675,0.9842,1.0564,1.0867,1.0284,1.1791,1.2408,1.1019,1.2265,1.3761,1.5145,1.6517,1.8484,2.117,2.3474,2.557,2.7404,2.9775,3.1604,3.2729,3.3513,3.4389,3.536,3.6091,3.6479,3.66,3.8034,3.8771,3.8909,3.959,3.9933,3.9986,3.9996,4.0007,4.0022,4.0022,3.9824,3.9438,3.8456,3.7691,3.7034,3.6077,3.4199,3.2097,3.1619,3.0363,2.8979,2.8725,2.7691,2.6318,2.5171,0.0,2.2553,2.1822,2.1006,2.025,1.9762,1.9803,2.0245,0.0,0.0,2.3696,2.4831,2.6604,2.8242,2.9101,3.1224,3.3377,3.5007,3.6281,3.7358,3.8179,3.8365,3.8408,3.8408,3.8408,3.8408,3.8408,3.8408,3.8408,3.8408,3.8408,3.8408,3.8408,3.8408,3.8408,3.8408,3.7813,3.7476,3.7402,3.683,3.643,3.6291,3.6291,3.6244,3.615,3.5577,3.5286,3.5237,3.4471,3.4099,3.4013,3.3871,3.3814,3.3779,3.3561,3.3446,3.3213,3.196,3.1836,3.223,0.0,0.0,0.9847,0.982,0.976,0.9741,0.9836,1.0168,1.0329,1.0084,1.0728,1.1124,1.0921,1.2448,1.3948,1.505,1.6166,1.8108,2.121,2.2791,2.488,2.7714,3.0279,3.2053,3.3022,3.4334,3.5201,3.5555,3.5953,3.6601,3.7419,3.8051,3.8898,3.9793,3.9962,4.0115,4.0186,4.0133,4.0142,4.0162,4.0162,3.9754,3.9098,3.8001,3.6564,3.5027,3.474,3.3291,0.0,3.0743,2.9739,2.8791,2.8969,2.7514,2.5766,2.5468,2.4205,0.0,2.2101,2.1622,0.0,0.0,2.1976,2.291,2.3795,2.5364,2.6868,2.7752,2.9777,3.1741,3.2812,3.4468,3.5979,0.0,3.7602,3.8051,3.8343,3.8408,3.8246,3.7811,3.7746,3.7908,3.8343,3.8408,3.8408,3.8408,3.8408,3.8408,3.8408,3.8408,3.8408,3.8408,3.8134,3.799,3.799,3.7711,3.7356,3.6981,3.6981,3.6799,3.6384,3.5721,3.5172,3.4789,3.4433,3.4264,3.4264,3.4225,3.4191,3.4174,3.3882,3.3761,3.367,3.2839,3.269,3.2887,0.0,0.0,0.0,0.9846,0.9815,0.9798,0.9842,0.9874,0.9919,0.9987,1.0078,1.0451,1.1335,1.2767,1.4001,1.48,1.5802,1.7589,2.0405,2.1938,2.4033,2.6924,3.0153,3.2079,3.2486,3.438,3.5234,3.501,3.5475,3.6284,3.7395,3.8063,3.9014,4.0117,4.024,4.0326,4.0383,4.0273,4.0252,4.0262,3.9977,3.9333,3.8385,3.6808,3.4766,3.2721,3.2785,3.149,2.9644,2.9006,2.8374,2.7909,2.823,2.7174,2.5733,2.5368,2.4005,2.2614,2.2597,0.0,0.0,2.355,2.4698,2.5891,2.6959,2.8622,3.0171,3.0979,3.3061,3.4933,3.5605,3.6846,3.7852,3.8065,3.8278,3.8408,3.8408,3.8213,3.7908,3.7358,3.7131,3.7293,3.8019,3.8116,3.8181,3.8375,3.8408,3.8408,3.8408,3.8408,3.8408,3.8408,3.8408,3.8408,3.8408,3.8408,3.8148,3.7667,3.7667,3.7432,3.6905,3.6056,3.5302,3.4685,3.4467,3.4382,3.4382,3.4382,3.4382,3.4366,3.4071,3.3951,3.3899,3.3518,3.3361,3.3308,0.0,0.0,0.0,0.0,0.98,0.9805,0.99,0.991,0.9936,1.0004,1.0116,1.0534,1.1391,1.2292,1.3179,1.3961,1.5607,1.6981,1.7963,2.1086,2.334,2.4383,2.9217,3.1559,3.0787,3.3258,3.4132,3.3278,3.4906,3.5702,3.5815,3.8245,3.9393,3.9477,4.0159,4.0521,4.058,4.0465,4.0422,4.0415,3.9431,3.8517,3.7441,3.4963,3.2753,3.0904,3.0459,2.8727,2.6585,2.6363,2.6236,2.6249,2.6565,2.7126,0.0,2.5069,2.3211,2.2121,0.0,0.0,2.4616,2.6644,2.7818,2.8979,3.0807,3.231,3.3686,3.4807,3.6502,3.7446,3.6453,3.7731,3.86,3.7524,3.7908,3.8408,3.8408,3.7778,3.7325,3.7293,3.6743,3.6581,0.0,3.7325,3.7617,3.8343,3.8408,3.8408,3.8408,3.8408,3.8408,3.8408,3.8408,3.8408,3.8408,3.8408,3.8394,3.8379,3.8379,3.8379,3.8276,3.695,3.5993,3.5335,3.4702,3.4382,3.4382,3.4382,3.4382,3.4366,3.4162,3.4094,3.4042,3.3727,3.3466,3.3308,0.0,0.0,0.0,0.0,0.0,0.9767,0.9805,0.991,0.9957,0.9979,1.0116,0.0,0.0,0.0,0.0,0.0,1.4425,1.6144,1.7025,1.9208,2.1129,2.2632,2.6477,2.8457,2.8189,3.0667,3.2131,3.239,3.298,3.3819,3.4944,3.6362,3.7327,3.7914,3.9257,3.9857,3.9934,3.9808,3.9704,3.9469,3.7413,3.6048,3.4898,3.1764,2.9722,2.8341,0.0,2.6122,2.5601,2.4849,2.4576,2.466,2.5231,2.5112,2.4625,2.3872,2.3832,2.4199,2.5099,0.0,2.8561,2.9685,3.1276,3.2866,3.3948,3.5459,3.6593,3.6434,3.7031,3.7282,3.641,3.6717,3.7198,3.7329,3.7755,3.8237,3.8742,3.8363,3.7695,3.6743,3.6451,0.0,0.0,0.0,0.0,3.8343,3.8492,3.8506,3.8408,3.8492,3.8506,3.8408,3.8408,3.8408,3.8408,3.8408,3.8408,3.8408,3.8408,3.7929,3.7072,3.66,3.5787,3.4706,3.4501,3.4382,3.4382,3.4382,3.4315,3.4179,3.4037,3.3899,3.3744,3.3501,3.3361,3.3308,0.0,0.0,0.0,0.0,0.0,0.0,0.0,0.0,0.0,0.0,0.0,0.0,0.0,0.0,0.0,0.0,0.0,1.512,1.572,1.7638,1.9286,2.0467,2.3742,2.5419,2.5073,2.7252,2.8689,2.9193,2.9504,3.0545,3.2233,3.3438,3.4442,3.5403,3.7067,3.779,3.7796,3.7654,3.7207,3.6421,3.4382,3.2669,3.1065,2.8854,2.7345,0.0,2.4948,2.4648,2.4764,2.4055,2.379,2.3867,2.4263,2.4076,2.3641,2.3701,2.4817,2.6296,2.7387,2.9722,3.2108,3.3249,3.4948,3.6452,3.7024,3.7899,3.82,3.6962,3.6892,3.66,3.5267,3.5192,3.5574,3.6461,3.6783,3.7298,3.8447,3.8158,3.7536,3.677,3.6465,0.0,0.0,0.0,0.0,3.8343,3.8492,3.8506,3.8408,3.8492,3.8492,3.8408,3.8408,3.8408,3.8408,3.8408,3.8408,3.8408,3.8408,3.7943,3.7117,3.689,3.6306,3.5462,3.4971,3.4769,3.4723,3.4501,3.4315,3.4196,3.4122,3.4003,3.3865,3.3605,3.3553,3.3588,0.0,0.0,0.0,0.0,0.0,0.0,0.0,0.0,0.0,0.0,0.0,0.0,0.0,0.0,0.0,0.0,0.0,0.0,1.4054,1.6436,1.7886,1.7852,2.1093,2.2495,2.1617,2.3253,2.412,2.4135,2.4921,2.621,2.7963,2.9632,3.091,3.1836,3.363,3.4398,3.4329,3.4215,3.3233,3.1648,3.0502,2.8582,2.6417,2.6194,2.5513,2.4655,2.4441,2.4194,2.3985,2.3863,2.38,2.3783,2.3765,2.4029,2.4414,2.4622,2.6302,2.8489,3.0309,3.2689,3.5149,3.7207,3.8554,3.9472,3.9883,3.953,3.8567,3.658,3.6117,3.5403,0.0,0.0,3.3962,3.5036,3.52,3.5847,3.7754,3.7392,3.7026,0.0,0.0,0.0,0.0,0.0,0.0,3.8422,0.0,3.8454,3.8422,3.8454,3.8454,3.8408,3.8408,3.8408,3.8408,3.8408,3.8408,3.8408,3.8408,3.8394,3.8351,3.7682,3.7387,3.7298,3.5976,3.54,3.5351,3.4685,3.4382,3.4366,3.4366,3.4366,3.4344,3.402,3.3985,3.4042,0.0,0.0,0.0,0.0,0.0,0.0,0.0,0.0,0.0,0.0,0.0,0.0,0.0,0.0,0.0,0.0,0.0,0.0,1.3196,1.4998,1.6055,1.6053,1.8704,1.9788,1.8911,2.0585,2.2115,2.3379,2.2942,2.3621,2.5351,2.6444,2.71,2.7429,2.9763,3.0809,3.0801,3.0746,3.0416,2.9683,2.7516,2.6201,2.5317,2.3247,2.2586,2.2765,2.2502,2.2644,2.3081,0.0,0.0,0.0,0.0,2.4804,2.5553,2.7878,3.0032,3.2157,3.4329,3.6594,3.8471,3.9032,3.9811,4.0282,3.9798,3.8871,3.7614,3.5892,3.4362,3.2962,0.0,0.0,0.0,3.5015,3.5934,0.0,3.91,3.8936,0.0,0.0,0.0,3.7838,3.7358,3.8278,0.0,0.0,3.9357,3.9115,3.8595,3.9083,3.9072,3.8408,3.8408,3.8408,3.8408,3.8408,3.8408,3.8408,3.8408,3.8134,3.7638,3.7476,3.7117,3.66,3.5785,3.54,3.5351,3.4685,3.4298,3.4179,3.4179,3.4122,3.402,3.3917,3.3917,3.3951,0.0,0.0,0.0,0.0,0.0,0.0,0.0,0.0,0.0,0.0,0.0,0.0,0.0,0.0,0.0,0.0,0.0,0.0,0.0,1.4097,1.5,1.5384,1.6783,1.7273,1.6761,1.774,1.8877,2.0212,1.9743,2.0392,2.214,2.2615,2.3085,2.3542,2.5717,2.6683,2.6713,2.7051,2.6738,0.0,0.0,2.3152,2.2306,2.1441,2.1232,2.1469,2.1664,0.0,0.0,0.0,0.0,2.4554,2.5728,2.6723,2.7932,3.0589,0.0,3.5064,3.6856,3.8896,4.049,4.049,4.0695,4.0596,3.9371,3.8086,3.6328,3.3547,3.2153,0.0,0.0,0.0,0.0,0.0,0.0,0.0,3.8834,3.8928,3.8613,0.0,3.8821,0.0,3.8404,3.9397,4.0149,0.0,4.025,4.0,3.9595,3.9642,3.9455,3.8908,3.857,3.8408,3.8408,3.8713,3.8713,3.8408,3.8408,3.8191,3.786,3.786,3.7638,3.7222,0.0,3.5835,3.5755,3.4789,3.4315,3.423,3.423,3.4352,3.4514,3.4123,3.4226,3.4514,0.0,0.0,0.0,0.0,0.0,0.0,0.0,0.0,0.0,0.0,0.9877,0.0,0.0,0.0,0.0,0.0,0.0,0.0,0.0,0.0,1.4218,1.5183,1.5217,1.5268,1.5306,1.5318,1.5709,1.6515,1.6445,1.7252,1.8866,1.8853,1.9296,2.0154,2.1709,2.2401,2.2464,2.3291,2.2765,2.1424,2.1383,2.0365,1.9104,0.0,2.0699,2.053,0.0,0.0,0.0,0.0,2.5767,2.5825,2.7585,2.9248,3.0939,3.306,3.5372,3.7471,3.8738,4.0307,4.1611,4.1611,4.1275,4.0489,3.8683,3.6976,3.4673,3.0739,0.0,2.9367,2.7722,0.0,2.9586,3.247,0.0,3.4695,3.798,3.8339,3.8537,3.9288,3.9787,3.9972,3.9732,4.0551,4.1172,4.1346,4.1183,4.1007,4.0859,4.0192,3.9697,3.9376,3.8893,3.8634,3.8537,3.9167,3.9232,3.8667,3.857,3.8537,3.8537,3.8537,3.8505,3.8351,0.0,0.0,3.6444,3.5172,3.4641,3.4644,3.4644,3.5009,3.5433,3.4762,3.4958,3.5415,0.0,0.0,0.0,0.0,0.0,0.0,0.0,0.0,0.0,0.0,0.9765,0.9855,0.0,0.0,0.0,0.0,0.0,0.0,0.0,0.0,0.0,1.4255,1.4325,1.4621,1.5299,1.53,1.5733,1.6675,1.5905,1.6076,1.7144,1.7148,1.7224,1.7413,1.8423,1.8888,1.8923,1.9759,1.9874,1.9614,2.0244,2.021,1.9731,1.9835,0.0,0.0,0.0,0.0,0.0,0.0,2.6254,2.709,2.934,3.1576,3.3837,3.6123,3.8017,3.9688,4.1248,4.1883,4.2148,4.2148,4.1121,3.9698,3.811,3.5026,0.0,0.0,0.0,2.7466,2.7163,2.8037,0.0,3.2817,0.0,0.0,0.0,0.0,3.9121,0.0,0.0,0.0,0.0,0.0,0.0,0.0,0.0,4.2183,4.102,4.0725,4.0008,3.8649,3.9606,3.988,3.9296,3.9426,3.9718,4.0139,3.9556,3.9296,3.9296,3.9296,3.8973,3.8365,3.7565,0.0,3.7166,3.637,3.6038,3.5949,3.5949,3.6054,3.6199,3.6599,3.6483,3.6141,0.0,0.0,0.0,0.0,0.0,0.0,0.0,0.9553,0.9549,0.9562,0.9617,0.9728,0.9802,0.9891,0.9962,0.0,0.0,0.0,0.0,0.0,0.0,0.0,1.3867,1.429,1.4661,1.5135,1.5569,1.6001,0.0,1.5586,0.0,0.0,0.0,0.0,0.0,1.7267,1.7305,1.8113,1.8453,1.844,1.8674,1.8997,0.0,0.0,0.0,0.0,0.0,0.0,0.0,0.0,2.6133,2.7524,3.0276,3.2639,3.4916,3.745,3.903,4.0243,4.1869,4.2297,4.219,4.1798,4.0182,3.8085,3.5703,0.0,0.0,0.0,0.0,2.6759,2.6368,0.0,0.0,0.0,0.0,0.0,0.0,0.0,0.0,0.0,0.0,0.0,0.0,0.0,0.0,0.0,0.0,4.2909,4.213,4.1546,4.0342,3.844,4.0139,4.056,3.9491,4.0218,4.056,4.0495,4.0171,4.0009,4.0009,3.9653,3.9296,3.8897,3.7841,0.0,3.7335,3.6682,3.6347,3.6315,3.6315,3.6519,3.6838,3.6809,3.6809,3.678,0.0,0.0,0.0,0.0,0.0,0.0,0.9468,0.9452,0.9486,0.9474,0.9548,0.958,0.9638,0.9755,0.9831,0.0,0.0,0.0,0.0,0.0,0.0,0.0,0.0,1.3632,1.3824,0.0,0.0,0.0,0.0,0.0,0.0,0.0,0.0,0.0,0.0,0.0,0.0,1.7176,1.7482,0.0,0.0,0.0,0.0,0.0,0.0,0.0,0.0,0.0,0.0,0.0,2.5284,2.685,2.9605,3.2349,3.5012,3.7352,3.8923,4.0208,4.1655,4.2155,4.2119,4.1288,3.9228,3.6559,3.356,3.0939,0.0,0.0,2.5712,2.6373,2.5764,0.0,0.0,0.0,0.0,0.0,0.0,0.0,0.0,0.0,0.0,0.0,0.0,0.0,0.0,0.0,0.0,0.0,4.2899,4.2265,4.0946,3.8893,4.0787,4.1208,3.9944,4.1061,4.137,4.0934,4.0819,4.0754,4.0722,4.0171,3.9847,3.9656,3.8545,0.0,0.0,3.727,3.6916,3.6722,3.6722,3.7041,3.7447,3.707,3.7139,3.74,0.0,0.0,0.0,0.0,0.0,0.0,0.9313,0.9384,0.9398,0.9423,0.9465,0.9517,0.9525,0.9673,0.9839,0.0,0.0,0.0,0.0,0.0,0.0,0.0,0.0,0.0,0.0,0.0,0.0,0.0,0.0,0.0,0.0,0.0,0.0,0.0,0.0,0.0,0.0,0.0,0.0,0.0,0.0,0.0,0.0,0.0,0.0,0.0,0.0,0.0,0.0,0.0,0.0,2.4305,2.5973,3.0041,3.4359,3.5276,0.0,0.0,4.0967,4.1762,4.2119,4.1288,3.879,3.5872,3.3453,0.0,0.0,2.5188,2.5324,2.5882,2.5811,2.6321,0.0,0.0,0.0,3.2318,0.0,0.0,0.0,0.0,0.0,0.0,0.0,0.0,0.0,0.0,0.0,0.0,4.2258,4.2552,4.2026,4.0366,4.1728,4.2149,4.1417,4.1547,4.1888,4.2392,4.1791,4.1515,4.1515,4.145,4.1046,4.0383,4.0274,0.0,0.0,3.916,3.8695,3.8028,3.8028,3.8057,3.8173,3.8725,3.858,3.8078,0.0,0.0,0.0,0.0,0.0,0.0,0.9309,0.9287,0.9287,0.932,0.9409,0.9455,0.9448,0.953,0.963,0.9728,0.0,0.0,0.0,0.0,0.0,0.0,0.0,0.0,0.0,0.0,0.0,0.0,0.0,0.0,0.0,0.0,0.0,0.0,0.0,0.0,0.0,0.0,0.0,0.0,0.0,0.0,0.0,0.0,0.0,0.0,0.0,0.0,0.0,0.0,0.0,0.0,2.3546,2.5978,0.0,0.0,3.5756,3.8174,3.9922,4.1324,4.1976,4.0717,3.7996,3.4936,3.216,0.0,2.6222,2.4361,2.4617,2.5259,2.5723,2.6309,2.7395,2.9374,2.9505,0.0,0.0,0.0,0.0,0.0,0.0,0.0,0.0,0.0,0.0,0.0,0.0,0.0,4.2735,4.2829,4.2139,4.056,4.1857,4.2278,4.1612,4.2002,4.2343,4.2586,4.2343,4.2197,4.2197,4.1791,4.145,4.1143,4.069,0.0,0.0,4.006,3.9848,3.9469,3.903,3.8848,3.8852,3.8662,3.8434,3.8183,0.0,0.0,0.0,0.0,0.0,0.932,0.9211,0.9194,0.9199,0.9236,0.9332,0.9391,0.9401,0.9465,0.9517,0.9548,0.9587,0.0,0.0,0.0,0.0,0.0,0.0,0.0,0.0,0.0,1.2581,1.3356,0.0,0.0,0.0,0.0,0.0,0.0,0.0,0.0,0.0,0.0,0.0,0.0,0.0,0.0,0.0,0.0,0.0,0.0,0.0,0.0,0.0,0.0,0.0,0.0,0.0,0.0,0.0,0.0,3.3192,3.5837,3.7924,3.9851,4.0941,3.9575,3.6854,3.3758,0.0,0.0,2.5366,2.3826,2.4153,2.4873,2.5366,2.6,2.6954,2.8456,2.8465,2.9529,0.0,0.0,0.0,0.0,0.0,0.0,0.0,0.0,0.0,0.0,0.0,0.0,0.0,4.2846,4.2269,4.0884,4.1987,4.2278,4.1612,4.2246,4.2586,4.2586,4.2586,4.2586,4.2586,4.2099,4.1921,4.1888,0.0,0.0,0.0,4.0798,4.0639,4.033,3.9576,3.9302,3.9211,3.8472,3.8202,3.8183,0.0,0.0,0.0,0.0,0.0,0.0,0.901,0.9044,0.9097,0.9091,0.9211,0.9339,0.9376,0.9455,0.9472,0.9425,0.9511,0.0,0.0,0.0,0.0,0.0,0.0,0.0,0.0,0.0,1.1503,1.2302,1.2984,1.3755,0.0,0.0,0.0,0.0,0.0,0.0,0.0,0.0,0.0,0.0,0.0,0.0,1.5708,0.0,0.0,0.0,0.0,0.0,0.0,0.0,0.0,0.0,0.0,2.1283,2.1994,0.0,2.9847,3.3275,3.482,3.6997,3.8638,3.7836,3.5238,3.2311,0.0,0.0,2.5366,2.3826,2.4153,2.4694,2.4694,2.5212,2.5906,2.6851,2.8202,2.972,0.0,0.0,0.0,0.0,0.0,0.0,0.0,0.0,0.0,0.0,0.0,0.0,0.0,4.2585,4.2512,4.1612,4.2246,4.2278,4.1612,4.2246,4.2586,4.2586,4.2586,4.2586,4.2586,4.2586,4.2586,0.0,0.0,0.0,0.0,4.1509,4.1045,4.033,3.9576,3.9302,3.9211,3.8472,3.8202,3.8165,0.0,0.0,0.0,0.0,0.0,0.0,0.9004,0.9033,0.9026,0.9018,0.9101,0.9162,0.9209,0.9242,0.9265,0.9128,0.9325,0.0,0.0,0.0,0.0,0.0,0.0,0.0,0.0,1.0464,1.1215,1.1945,1.2632,1.338,1.4189,1.4172,1.4249,0.0,0.0,0.0,0.0,0.0,0.0,0.0,0.0,1.5785,1.6358,0.0,0.0,0.0,0.0,0.0,0.0,0.0,0.0,0.0,0.0,0.0,0.0,2.3951,2.7007,3.0004,3.1574,3.3366,3.4587,3.3766,3.2017,3.0019,2.8191,0.0,2.476,2.3719,2.3684,2.4183,2.5259,2.5614,2.6385,2.8327,2.9433,3.0451,0.0,0.0,0.0,0.0,0.0,0.0,0.0,0.0,0.0,0.0,0.0,0.0,0.0,4.2524,4.2724,4.2294,4.2505,4.2489,4.2278,4.2489,4.2586,4.2586,4.2586,4.2586,4.2586,4.2586,0.0,0.0,0.0,0.0,0.0,4.2238,4.1835,4.1062,4.033,3.9735,3.9211,3.8472,3.8202,3.8183,0.0,0.0,0.0,0.0,0.0,0.0,0.898,0.8955,0.8964,0.8988,0.9026,0.9021,0.9071,0.9086,0.9068,0.8966,0.9133,0.0,0.0,0.0,0.0,0.0,0.0,0.0,0.9468,0.9879,1.0611,1.1694,1.2032,1.2837,1.3956,1.3909,1.3934,1.4085,1.4089,0.0,0.0,0.0,0.0,0.0,1.4891,1.5295,1.6066,0.0,0.0,0.0,0.0,0.0,0.0,0.0,0.0,0.0,0.0,0.0,0.0,0.0,2.4896,2.6822,2.8684,3.034,3.1446,3.0947,2.9654,0.0,0.0,0.0,2.4106,2.3554,2.3471,2.3773,2.4693,2.5371,2.6294,2.7792,2.8934,3.0004,0.0,0.0,0.0,0.0,0.0,0.0,0.0,0.0,0.0,0.0,0.0,0.0,0.0,4.2269,4.2614,4.2229,4.2472,4.2472,4.2229,4.2457,4.2586,4.2586,4.2586,4.2472,4.2213,4.2489,0.0,0.0,0.0,0.0,0.0,4.2586,4.2158,4.1443,4.069,3.9947,3.9211,3.8472,3.8202,3.8183,0.0,0.0,0.0,0.0,0.0,0.0,0.0,0.8891,0.8894,0.8979,0.8934,0.8905,0.895,0.8983,0.8938,0.8903,0.8936,0.0,0.0,0.0,0.0,0.0,0.0,0.0,0.9093,0.9155,0.9943,1.1495,1.1378,1.2196,1.3859,1.3653,1.3673,1.3877,1.3896,1.3927,0.0,0.0,0.0,0.0,1.3934,1.4327,0.0,0.0,0.0,0.0,0.0,0.0,0.0,0.0,0.0,0.0,0.0,0.0,0.0,0.0,0.0,0.0,0.0,2.7799,2.8969,2.8969,2.787,2.6556,2.5794,0.0,0.0,2.3354,2.3424,2.3501,2.3484,2.474,2.5847,2.597,2.7331,0.0,0.0,0.0,0.0,0.0,0.0,0.0,0.0,0.0,0.0,0.0,0.0,0.0,0.0,4.1902,4.2246,4.1612,4.2197,4.2229,4.1612,4.2164,4.2489,4.2522,4.2522,4.2197,4.1612,4.2278,0.0,0.0,0.0,0.0,0.0,4.2586,4.2158,4.1443,4.069,3.9947,3.9211,3.8472,3.8202,3.8165,0.0,0.0,0.0,0.0,0.0,0.0,0.0,0.0,0.0,0.0,0.8685,0.8661,0.8697,0.8739,0.876,0.0,0.0,0.0,0.0,0.0,0.0,0.0,0.0,0.0,0.9093,0.9603,1.0318,1.1277,1.1552,1.2296,1.3529,1.3873,1.39,1.37,1.4358,1.438,0.0,0.0,0.0,0.0,1.364,1.4082,0.0,0.0,0.0,0.0,1.8044,1.8423,0.0,0.0,0.0,0.0,0.0,0.0,0.0,0.0,2.2089,2.2701,2.3237,0.0,2.4896,2.4896,2.4611,2.4254,0.0,0.0,0.0,0.0,0.0,2.3821,2.4853,2.539,2.6158,2.7699,2.9004,0.0,0.0,0.0,0.0,0.0,0.0,0.0,0.0,0.0,0.0,0.0,0.0,0.0,0.0,4.1677,4.1759,4.1612,4.1759,4.1759,4.1612,4.1208,4.1257,4.1856,4.1856,4.1759,4.1612,4.2278,0.0,0.0,0.0,0.0,4.2586,4.2586,4.2158,4.1443,4.069,3.9947,3.9211,3.8472,3.8202,3.8165,0.0,0.0,0.0,0.0,0.0,0.0,0.0,0.0,0.0,0.0,0.8425,0.8383,0.8406,0.8438,0.8523,0.0,0.0,0.0,0.0,0.0,0.0,0.0,0.0,0.881,0.8719,0.9398,1.0095,1.0814,1.1474,1.2254,1.3079,1.3477,1.3563,1.3379,1.3888,1.395,0.0,0.0,0.0,1.4069,1.3956,0.0,0.0,0.0,0.0,0.0,1.8112,1.8398,0.0,1.8732,1.8797,1.894,0.0,0.0,0.0,0.0,2.2232,2.2839,2.2839,2.3154,2.3505,2.3505,2.3505,2.3505,2.3505,0.0,0.0,0.0,0.0,0.0,2.4666,0.0,0.0,2.7685,2.8671,0.0,0.0,0.0,0.0,0.0,0.0,0.0,0.0,0.0,0.0,0.0,0.0,0.0,0.0,4.1888,4.1743,4.1111,4.1402,4.1612,4.1612,4.1208,4.1208,4.1612,4.1612,4.1255,4.0672,4.1678,4.1954,0.0,0.0,0.0,4.2586,4.2278,4.1885,4.1443,4.069,3.9947,3.9211,3.8389,3.8052,3.8043,0.0,0.0,0.0,0.0,0.0,0.0,0.0,0.0,0.0,0.0,0.0,0.0,0.0,0.0,0.0,0.0,0.0,0.0,0.0,0.0,0.0,0.0,0.8501,0.8473,0.8441,0.8995,0.9706,1.0546,1.1398,1.2136,1.2694,1.3076,1.3258,1.3278,1.3233,1.324,0.0,0.0,0.0,1.4289,1.431,0.0,0.0,0.0,0.0,0.0,0.0,0.0,0.0,1.8732,1.8797,1.8904,1.9586,0.0,0.0,0.0,0.0,0.0,2.3291,2.3488,2.3619,2.3529,2.3488,2.3476,2.3476,0.0,0.0,0.0,0.0,0.0,0.0,0.0,0.0,0.0,0.0,0.0,0.0,0.0,0.0,0.0,0.0,0.0,0.0,0.0,0.0,0.0,0.0,0.0,0.0,4.1857,4.1566,4.0398,4.0949,4.1288,4.1288,4.1385,4.1385,4.1288,4.1385,4.0754,3.9523,4.0819,4.1078,0.0,0.0,0.0,4.2246,4.1791,4.1579,4.1433,4.0693,4.0017,3.9356,3.8296,3.7891,3.7872,0.0,0.0,0.0,0.0,0.0,0.0,0.0,0.0,0.0,0.0,0.0,0.0,0.0,0.0,0.0,0.0,0.0,0.0,0.0,0.0,0.0,0.8188,0.8263,0.8578,0.9141,0.9259,0.9927,1.1246,1.1729,1.2192,1.2636,1.3823,1.4274,1.4077,1.3473,1.3214,1.3214,1.3083,0.0,1.3358,1.3808,0.0,0.0,0.0,0.0,0.0,0.0,0.0,0.0,1.8732,1.8797,1.8833,1.894,0.0,0.0,0.0,0.0,0.0,2.2309,2.3347,2.4128,2.3613,2.3424,2.3348,2.3348,0.0,0.0,0.0,0.0,0.0,0.0,0.0,0.0,0.0,0.0,0.0,0.0,0.0,0.0,0.0,0.0,0.0,0.0,0.0,0.0,0.0,0.0,0.0,0.0,4.0236,3.988,3.9653,3.975,3.9829,3.9829,4.0398,4.0398,3.9815,4.0398,4.0268,3.9523,4.0301,4.0625,0.0,0.0,4.061,4.0869,4.137,4.1583,4.1513,4.0709,4.033,4.0034,3.8501,3.7891,3.7872,0.0,0.0,0.0,0.0,0.0,0.0,0.0,0.0,0.0,0.0,0.0,0.0,0.0,0.0,0.0,0.0,0.0,0.0,0.0,0.0,0.7895,0.7621,0.8124,0.8625,0.9072,1.011,1.0965,1.1632,1.2275,1.2657,1.2827,1.3178,1.3356,1.3318,1.2973,1.2806,1.2806,1.2787,1.3019,1.3489,0.0,0.0,0.0,0.0,0.0,0.0,0.0,0.0,0.0,0.0,1.8797,1.8797,1.8797,0.0,0.0,0.0,0.0,0.0,2.2648,2.3324,2.3725,2.3371,2.3529,2.3797,2.3797,0.0,0.0,0.0,0.0,0.0,0.0,0.0,0.0,0.0,0.0,0.0,0.0,0.0,0.0,0.0,0.0,0.0,0.0,0.0,0.0,0.0,0.0,0.0,0.0,0.0,3.988,3.9491,3.9847,3.9685,3.8893,3.9977,4.0171,3.9491,3.9815,3.9588,3.894,3.9653,3.9944,3.9944,0.0,3.98,4.0528,4.0884,4.1027,4.0976,4.0561,4.0157,3.9629,3.8258,3.7815,3.7834,0.0,0.0,0.0,0.0,0.0,0.0,0.0,0.0,0.0,0.0,0.0,0.0,0.0,0.0,0.0,0.0,0.0,0.0,0.0,0.7695,0.758,0.728,0.8198,0.8804,0.9026,1.0668,1.1608,1.1768,1.2617,1.3048,1.3071,1.2603,1.2438,1.2512,1.2512,1.2512,1.2522,1.2549,1.2922,1.3582,0.0,0.0,0.0,0.0,0.0,0.0,0.0,0.0,0.0,0.0,0.0,0.0,0.0,0.0,0.0,2.0774,2.1507,2.2178,2.3065,2.3377,2.3403,2.305,0.0,2.4007,2.4351,0.0,0.0,0.0,0.0,0.0,0.0,0.0,0.0,0.0,0.0,0.0,0.0,0.0,0.0,0.0,0.0,0.0,0.0,0.0,0.0,0.0,0.0,0.0,0.0,0.0,3.9768,3.9264,3.975,3.9476,3.8408,3.9476,3.975,3.9232,3.9426,3.9102,3.8408,3.8973,3.9232,3.9199,3.8634,3.9023,4.0027,4.0204,4.0249,4.026,4.0178,3.9685,3.8848,3.7938,3.7701,3.7758,0.0,0.0,0.0,0.0,0.0,0.0,0.0,0.0,0.0,0.0,0.0,0.0,0.0,0.0,0.0,0.0,0.0,0.0,0.0,0.7533,0.7521,0.7466,0.8669,0.9356,0.9375,1.0274,1.1092,1.1709,1.2448,1.3003,1.3374,1.2818,1.2566,1.2602,1.2602,1.2602,1.2598,1.2527,1.2642,1.2981,1.4283,0.0,0.0,0.0,0.0,0.0,0.0,0.0,0.0,0.0,0.0,0.0,0.0,0.0,1.8894,2.0398,2.0951,2.1424,2.29,2.3622,2.3732,2.2867,2.2814,0.0,2.4809,0.0,0.0,0.0,0.0,0.0,0.0,0.0,0.0,0.0,0.0,0.0,0.0,0.0,0.0,0.0,0.0,0.0,0.0,0.0,0.0,0.0,0.0,0.0,0.0,0.0,0.0,3.8472,3.8537,3.8505,3.8408,3.8505,3.8537,3.8505,3.9167,3.9102,3.8408,3.844,3.8472,3.8472,3.8408,3.8472,3.8602,3.9296,3.9544,3.9487,3.9463,3.8882,3.7967,3.7701,3.7625,3.7567,0.0,0.0,0.0,0.0,0.0,0.0,0.0,0.0,0.0,0.0,0.0,0.7679,0.7453,0.0,0.0,0.0,0.0,0.0,0.0,0.7197,0.7128,0.6957,0.8392,0.9202,0.9163,1.0998,1.21,1.239,1.2738,1.2901,1.2836,1.2553,1.2407,1.2407,1.2407,1.2623,1.2968,1.2978,1.3277,1.382,1.4894,1.5388,0.0,0.0,0.0,0.0,0.0,0.0,0.0,0.0,1.8252,1.8133,1.8216,1.8693,1.9365,2.0234,2.097,2.1704,2.2601,2.334,2.3612,2.2868,0.0,0.0,0.0,0.0,0.0,0.0,0.0,0.0,0.0,0.0,0.0,0.0,0.0,0.0,0.0,0.0,0.0,0.0,0.0,0.0,0.0,0.0,0.0,0.0,0.0,0.0,0.0,0.0,0.0,3.8408,3.8408,3.8408,3.8408,3.8408,3.8408,3.8408,3.8667,3.8667,3.8408,3.8408,3.8408,3.8408,3.8408,3.8408,3.8472,3.9199,3.9191,3.8732,3.8716,3.8388,3.7872,3.7682,3.7605,3.7548,0.0,0.0,0.0,0.0,0.0,0.0,0.0,0.0,0.7808,0.0,0.0,0.0,0.0,0.748,0.0,0.0,0.0,0.0,0.7124,0.7027,0.6912,0.6761,0.823,0.9008,0.8921,1.1165,1.2392,1.2432,1.2631,1.2632,1.2456,1.2613,1.265,1.2614,1.2614,1.2857,1.3225,1.3264,1.3582,1.4138,1.5117,1.5605,0.0,0.0,0.0,0.0,0.0,0.0,0.0,0.0,1.8023,1.7915,1.7985,1.8694,1.9558,1.9785,2.058,2.1491,2.1977,2.2528,2.2939,0.0,0.0,0.0,0.0,0.0,0.0,0.0,0.0,0.0,0.0,0.0,0.0,0.0,0.0,0.0,0.0,0.0,0.0,0.0,0.0,0.0,0.0,0.0,0.0,0.0,0.0,0.0,0.0,0.0,0.0,0.0,3.8408,3.8408,3.8408,3.8408,3.8408,3.8408,3.8408,3.8408,3.8408,3.8408,3.8408,3.8408,3.8408,3.8408,3.844,3.8926,3.8833,3.8293,3.8224,3.8062,3.7872,3.7605,3.751,3.7471,0.0,0.0,0.0,0.0,0.0,0.0,0.0,0.0,0.7602,0.7592,0.73,0.0,0.0,0.0,0.0,0.0,0.0,0.0,0.7124,0.6982,0.6965,0.71,0.8305,0.8889,0.8693,1.0603,1.161,1.1615,1.2007,1.2252,1.2344,1.3125,1.3423,1.3314,1.3314,1.3314,1.3303,1.325,1.3334,1.3624,1.4911,1.5481,1.57,0.0,0.0,0.0,0.0,0.0,0.0,0.0,1.7839,1.7544,1.7743,1.8478,1.9246,1.8987,1.9664,2.0604,2.0996,2.1208,2.163,0.0,0.0,0.0,0.0,0.0,0.0,0.0,0.0,0.0,0.0,0.0,0.0,0.0,0.0,0.0,0.0,0.0,0.0,0.0,0.0,0.0,0.0,0.0,0.0,0.0,0.0,0.0,0.0,0.0,0.0,0.0,3.8408,3.8408,3.8408,3.8408,3.8408,3.8408,3.8408,3.8408,3.8408,3.8408,3.8408,3.8408,3.8408,3.8408,3.8408,3.8394,3.8359,3.8263,3.8045,3.7952,3.7825,3.7424,3.7289,3.725,0.0,0.0,0.0,0.0,0.0,0.0,0.0,0.0,0.7451,0.746,0.7256,0.0,0.0,0.0,0.0,0.0,0.0,0.0,0.6969,0.6791,0.6702,0.6744,0.7653,0.8394,0.8907,1.0688,1.1768,1.2081,1.2216,1.2577,1.322,1.3303,1.3591,1.3986,1.3986,1.423,1.4652,1.4627,1.4924,1.5438,1.5814,1.6042,1.6226,0.0,0.0,0.0,0.0,0.0,0.0,0.0,0.0,0.0,1.7558,1.8567,1.9648,1.9352,2.0304,2.15,2.153,2.2058,0.0,0.0,0.0,0.0,0.0,0.0,0.0,0.0,0.0,0.0,0.0,0.0,0.0,0.0,0.0,0.0,0.0,0.0,0.0,0.0,0.0,0.0,0.0,0.0,0.0,0.0,0.0,0.0,0.0,0.0,0.0,0.0,3.8408,3.8408,3.8408,3.8408,3.8408,3.8408,3.8408,3.8408,3.8408,3.8408,3.8408,3.8408,3.8408,3.8408,3.8379,3.7903,3.7665,3.7593,3.6929,3.6552,3.6337,3.6097,3.6212,3.639,0.0,0.0,0.0,0.0,0.0,0.0,0.7853,0.7729,0.7603,0.7434,0.712,0.7006,0.0,0.0,0.0,0.7253,0.706,0.0,0.6908,0.6706,0.6625,0.671,0.7419,0.8321,0.9424,1.0612,1.1473,1.1982,1.2133,1.2453,1.3005,1.3438,1.3872,1.4269,1.4547,1.485,1.5193,1.5193,1.5433,1.5839,1.6078,1.6256,1.6366,0.0,0.0,0.0,0.0,0.0,0.0,0.0,0.0,0.0,1.7509,1.8425,1.9395,1.8759,1.9551,2.0643,2.0679,0.0,0.0,0.0,0.0,0.0,0.0,0.0,0.0,0.0,0.0,0.0,0.0,0.0,0.0,0.0,0.0,0.0,0.0,0.0,0.0,0.0,0.0,0.0,0.0,0.0,0.0,0.0,0.0,0.0,0.0,0.0,0.0,0.0,3.8408,3.8408,3.8408,3.8408,3.8408,3.8408,3.8408,3.8408,3.8408,3.8408,3.8408,3.8408,3.8408,3.8408,3.8365,3.7667,3.7342,3.7206,3.632,3.5828,3.5583,3.5429,3.5526,3.5695,0.0,0.0,0.7993,0.7995,0.0,0.0,0.7949,0.7974,0.7897,0.7423,0.6928,0.6749,0.0,0.0,0.0,0.7152,0.7036,0.6927,0.6878,0.6698,0.6676,0.687,0.753,0.8556,1.002,1.042,1.0912,1.1464,1.1833,1.2105,1.23,1.3576,1.427,1.44,1.5009,1.5285,1.5285,1.5285,1.5285,1.534,1.5955,1.6201,1.6229,1.6483,0.0,0.0,0.0,0.0,0.0,0.0,0.0,0.0,1.7557,1.8145,1.8683,1.7836,1.8129,1.8832,1.9293,0.0,0.0,0.0,0.0,0.0,0.0,0.0,0.0,0.0,0.0,0.0,0.0,0.0,0.0,0.0,0.0,0.0,0.0,0.0,0.0,0.0,0.0,0.0,0.0,0.0,0.0,0.0,0.0,0.0,0.0,0.0,0.0,3.8213,3.8278,3.8278,3.8213,3.8343,3.8375,0.0,3.8375,3.8408,3.8408,3.8408,3.8408,3.8408,3.8408,3.8379,3.828,3.7594,3.7141,3.6842,3.595,3.5502,3.5295,3.5094,3.5048,3.5105,0.0,0.0,0.8085,0.8601,0.0,0.0,0.836,0.807,0.7686,0.7215,0.6837,0.6906,0.7731,0.7494,0.0,0.7546,0.7406,0.7122,0.668,0.6612,0.6608,0.6655,0.7844,0.8888,0.97,1.0389,1.0954,1.1335,1.1897,1.2666,1.3677,1.3989,1.4725,1.5777,1.5924,1.5986,1.5986,1.5986,1.5986,1.5986,1.614,1.6201,1.6222,1.6369,1.6563,0.0,0.0,0.0,0.0,0.0,0.0,0.0,1.8008,1.8285,1.8523,1.9463,1.9416,1.9386,0.0,0.0,0.0,0.0,0.0,0.0,0.0,0.0,0.0,0.0,0.0,0.0,0.0,0.0,0.0,0.0,0.0,0.0,0.0,0.0,0.0,0.0,0.0,0.0,0.0,0.0,0.0,0.0,0.0,0.0,0.0,0.0,0.0,3.6756,3.7261,3.7293,3.6756,3.7857,3.8116,0.0,3.8116,3.8408,3.8408,3.8408,3.8408,3.8408,3.8408,3.8105,3.7565,3.6906,3.6195,3.5448,3.4637,3.4203,3.3984,3.379,3.401,3.4347,0.0,0.0,0.0,0.0,0.0,0.0,0.0,0.0,0.8133,0.7825,0.7565,0.7596,0.8096,0.7961,0.0,0.0,0.7793,0.7602,0.701,0.7114,0.7183,0.7183,0.8146,0.8933,0.941,1.0445,1.1111,1.1389,1.2264,1.2986,1.3599,1.427,1.4988,1.5747,1.6047,1.6201,1.6201,1.6201,1.6201,1.6201,1.6201,1.6201,1.6215,1.6366,1.647,1.6603,1.6818,0.0,0.0,0.0,0.0,0.0,0.0,0.0,1.8879,1.9635,1.956,1.9476,0.0,0.0,0.0,0.0,0.0,0.0,0.0,0.0,0.0,0.0,0.0,0.0,0.0,0.0,0.0,0.0,0.0,0.0,0.0,0.0,0.0,0.0,0.0,0.0,0.0,0.0,0.0,0.0,0.0,0.0,0.0,3.6484,3.6289,3.6289,3.6645,3.6645,3.6289,3.7048,3.7196,3.684,3.7209,3.7552,3.789,3.8246,3.8408,3.8394,3.8062,3.7711,3.7328,3.6322,3.5547,3.4942,3.4179,3.3709,3.3448,3.3343,3.3505,3.3712,0.0,0.0,0.0,0.0,0.0,0.0,0.0,0.0,0.0,0.8489,0.8372,0.8331,0.8437,0.8437,0.8313,0.0,0.0,0.0,0.7509,0.7644,0.7763,0.7857,0.8352,0.8863,0.9371,1.0469,1.1228,1.1623,1.2745,1.327,1.3298,1.4501,1.5196,1.5408,1.5955,1.6201,1.6201,1.6201,1.6201,1.6201,1.6201,1.6201,1.6215,1.6332,1.6369,1.6461,1.6861,1.694,1.6946,1.729,0.0,0.0,0.0,0.0,1.9158,1.9548,1.9351,1.9281,0.0,0.0,0.0,0.0,0.0,0.0,0.0,0.0,0.0,0.0,0.0,0.0,0.0,0.0,0.0,0.0,0.0,0.0,0.0,0.0,0.0,0.0,0.0,0.0,0.0,0.0,0.0,0.0,0.0,0.0,3.6108,3.5998,3.5914,3.5914,3.6044,3.6044,3.5914,3.6173,3.6238,3.6108,3.6225,3.6581,3.7163,3.776,3.8181,3.8379,3.7682,3.7343,3.7117,3.585,3.5106,3.4673,3.4088,3.3623,3.3308,3.3308,3.3308,3.3308,0.0,0.0,0.0,0.0,0.0,0.0,0.0,0.0,0.0,0.0,0.8322,0.8487,0.8931,0.8981,0.897,0.8923,0.8958,0.8637,0.7803,0.0,0.0,0.8119,0.8222,0.8858,1.0126,1.0321,1.0976,1.212,1.3118,1.3856,0.0,0.0,1.5394,1.6078,1.617,1.6201,1.6201,1.6201,1.6201,1.6201,1.6201,1.6201,1.6201,1.6222,1.6311,1.6489,1.7117,1.7115,1.6946,1.7648,1.763,0.0,0.0,0.0,1.8635,2.0507,1.9722,1.8762,0.0,0.0,0.0,0.0,0.0,0.0,0.0,0.0,0.0,0.0,0.0,0.0,0.0,0.0,0.0,0.0,0.0,0.0,0.0,0.0,0.0,0.0,0.0,0.0,0.0,0.0,0.0,0.0,0.0,0.0,3.5344,3.4748,3.4392,3.4392,3.502,3.5053,3.4392,3.5655,3.5979,3.5344,3.5979,3.6367,3.6451,3.6562,3.7242,3.8379,3.7682,3.7072,3.6461,3.5531,3.4693,3.4003,3.3744,3.3501,3.3308,3.3308,3.3308,3.3308,0.0,0.0,0.0,0.0,0.0,0.0,0.0,0.0,0.0,0.0,0.0,0.9102,0.9311,0.9171,0.8991,0.8842,0.8965,0.8826,0.8277,0.7995,0.801,0.8414,0.8673,0.9275,1.0274,1.0854,1.1574,1.2482,1.3598,0.0,0.0,1.5312,1.5784,0.0,1.6201,1.6201,1.6201,1.6201,1.6201,1.6201,1.6201,1.5955,1.5709,1.6471,1.6575,1.6435,1.7599,0.0,0.0,1.7903,1.8031,1.8182,1.8531,0.0,0.0,0.0,0.0,0.0,0.0,0.0,0.0,0.0,0.0,0.0,0.0,0.0,0.0,0.0,0.0,0.0,0.0,0.0,0.0,0.0,0.0,0.0,0.0,0.0,0.0,0.0,0.0,0.0,0.0,0.0,0.0,0.0,0.0,3.502,3.4599,3.4664,3.4534,3.4101,3.4392,3.4424,3.4101,3.4748,3.491,3.4599,3.491,3.5266,3.5701,3.5701,3.6432,3.7737,3.6699,3.6213,3.6135,3.4995,3.4201,3.3709,3.3623,3.3483,3.3308,3.3308,3.3308,3.3308,0.0,0.0,0.0,0.0,0.0,0.0,0.0,0.0,0.0,0.0,0.0,0.9638,0.9515,0.0,0.0,0.0,0.8876,0.8876,0.8621,0.834,0.8339,0.866,0.9004,0.9641,1.0557,1.1319,1.2078,1.2881,1.3981,0.0,1.4983,1.5704,1.6104,0.0,1.6243,1.6236,0.0,0.0,1.6236,1.6201,1.6201,1.5894,1.5562,1.657,1.6632,1.6407,1.7905,0.0,0.0,0.0,0.0,0.0,0.0,0.0,0.0,0.0,0.0,0.0,0.0,0.0,0.0,0.0,0.0,0.0,0.0,0.0,0.0,0.0,0.0,0.0,0.0,0.0,0.0,0.0,0.0,0.0,0.0,0.0,0.0,0.0,0.0,0.0,0.0,0.0,0.0,0.0,0.0,3.4599,3.3874,3.4372,3.434,3.3582,3.3744,3.3841,3.3841,3.4003,3.4101,3.4101,3.4101,3.4405,3.4923,3.4749,3.536,3.6502,3.5645,3.5508,3.5757,3.4555,3.3854,3.3588,3.3536,3.3431,3.3308,3.3308,3.3308,3.3308,0.0,0.0,0.0,0.0,0.0,0.0,0.0,0.0,0.0,0.0,0.0,0.9783,0.9528,0.9489,0.9343,0.9006,0.8985,0.8876,0.8621,0.834,0.8405,0.8857,0.8906,0.0,1.1305,1.1383,1.2063,1.337,1.4206,1.4698,1.4914,1.5733,1.6139,1.6208,1.6315,1.6332,1.6208,0.0,0.0,1.6201,1.6201,1.617,1.6177,0.0,0.0,0.0,0.0,0.0,0.0,0.0,0.0,0.0,0.0,0.0,0.0,0.0,0.0,0.0,0.0,0.0,0.0,0.0,0.0,0.0,0.0,0.0,0.0,0.0,0.0,0.0,0.0,0.0,0.0,0.0,0.0,0.0,0.0,0.0,0.0,0.0,0.0,0.0,0.0,0.0,0.0,0.0,0.0,3.3841,3.3174,3.3174,3.287,3.2113,3.2785,3.3141,3.3141,3.3777,3.4101,3.4101,3.4101,3.4133,3.4153,3.3565,3.3741,3.4492,3.505,3.5245,3.5077,3.4247,3.3779,3.357,3.3396,3.3308,3.3308,3.3308,3.3308,3.3308,0.0,0.0,0.0,0.0,0.0,0.0,0.0,0.0,0.0,0.0,0.0,0.0,0.0,0.8903,0.871,0.8509,0.8488,0.8446,0.834,0.8333,0.85,0.8883,0.9269,1.0089,1.1373,1.1711,1.2362,1.3387,1.4157,1.4658,1.4914,1.5696,1.6104,1.6201,1.6256,1.625,1.6201,1.6256,0.0,0.0,1.6201,1.5924,1.5654,0.0,0.0,0.0,0.0,0.0,0.0,0.0,0.0,0.0,0.0,0.0,0.0,0.0,0.0,0.0,0.0,0.0,0.0,0.0,0.0,0.0,0.0,0.0,0.0,0.0,0.0,0.0,0.0,0.0,0.0,0.0,0.0,0.0,0.0,0.0,0.0,0.0,0.0,0.0,0.0,0.0,0.0,0.0,0.0,0.0,3.3141,3.3109,3.2752,3.2028,3.2255,3.2384,3.2384,3.2643,3.274,3.2761,3.3226,3.3465,3.3441,3.3284,3.3361,3.3667,3.3408,3.3469,3.3733,3.3388,3.3095,3.285,3.3174,3.3308,3.3308,3.3308,3.3308,3.3308,0.0,0.0,0.0,1.048,0.0,1.0387,1.0015,1.0091,1.0091,0.9936,0.0,0.0,0.0,0.0,0.8904,0.8557,0.8653,0.8582,0.8232,0.8562,0.8863,0.9095,0.9642,1.0477,1.161,1.1929,1.2508,1.3335,1.4165,1.4646,1.484,1.5667,1.6125,1.6201,1.6256,1.6243,0.0,0.0,0.0,1.6201,0.0,0.0,1.5962,0.0,0.0,0.0,0.0,0.0,0.0,0.0,0.0,0.0,0.0,0.0,0.0,0.0,0.0,0.0,0.0,0.0,0.0,0.0,0.0,0.0,0.0,0.0,0.0,0.0,0.0,0.0,0.0,0.0,0.0,0.0,0.0,0.0,0.0,0.0,0.0,0.0,0.0,0.0,0.0,0.0,0.0,0.0,0.0,0.0,3.2785,3.2514,3.2158,3.166,3.1628,3.1757,3.1984,3.1984,3.1984,3.2016,3.274,3.2979,3.2794,3.2872,3.286,3.2629,3.1901,3.1981,3.2674,3.2803,3.267,3.2455,3.3055,3.3308,3.3308,3.3308,3.3308,3.3308,1.0995,1.0893,1.0712,1.0129,1.0187,1.02,0.9805,0.9839,0.9978,1.0116,0.0,0.0,0.0,0.0,0.0,0.9299,0.9585,0.9369,0.8316,0.9046,0.9526,0.9538,0.9972,1.0803,1.2054,1.2104,1.2455,1.3181,1.4203,1.4724,1.4747,1.5717,1.6201,1.6239,1.6352,1.6339,1.6222,0.0,1.643,1.6201,0.0,1.6594,1.7178,0.0,0.0,0.0,1.8215,1.8215,0.0,0.0,0.0,0.0,0.0,0.0,0.0,0.0,0.0,0.0,0.0,0.0,0.0,0.0,0.0,0.0,0.0,0.0,0.0,0.0,0.0,0.0,0.0,0.0,0.0,0.0,0.0,0.0,0.0,0.0,0.0,0.0,0.0,0.0,0.0,0.0,0.0,0.0,0.0,3.2708,3.2028,3.126,3.0872,3.0872,3.0872,3.1195,3.1919,3.1951,3.1951,3.1963,3.2696,3.275,3.2177,3.2319,3.2048,3.1451,3.0628,3.0909,3.1968,3.247,3.254,3.2455,3.3055,3.3308,3.3308,3.3308,3.3308,3.3308,1.0697,1.0895,1.0992,1.0636,1.0822,1.0965,1.0824,1.0682,1.0633,0.0,0.0,0.0,0.0,1.024,1.0061,0.9857,0.9942,0.9896,0.9604,0.9933,1.0239,1.0426,1.0512,1.0969,1.1854,1.2032,1.233,1.2773,1.3968,1.4846,1.5415,1.5846,1.6362,1.6908,1.657,1.6339,1.6215,1.6369,0.0,0.0,1.6724,1.6747,0.0,0.0,0.0,0.0,0.0,1.8646,0.0,0.0,1.8545,1.9008,0.0,0.0,0.0,0.0,0.0,0.0,1.9806,0.0,0.0,0.0,0.0,0.0,0.0,2.2134,0.0,0.0,0.0,0.0,0.0,0.0,0.0,0.0,0.0,0.0,0.0,0.0,0.0,0.0,0.0,0.0,0.0,0.0,0.0,0.0,3.1919,3.1433,3.1228,3.0538,3.0172,3.0172,3.0172,3.0269,3.0464,3.0464,3.0464,3.0485,3.1282,3.1556,3.1401,3.1637,3.158,3.1248,3.0492,3.0252,3.0495,3.1553,3.1891,3.1836,3.2887,3.3308,3.3308,3.3308,3.3308,3.3308,1.0958,1.1103,1.1245,1.1034,1.0988,1.0956,1.0962,1.0861,1.0813,0.0,0.0,0.0,0.0,0.0,1.081,1.0534,1.0703,1.0603,1.0132,1.0584,1.085,1.0799,1.0948,1.1364,1.2072,1.2186,1.2544,1.3139,1.4348,1.5142,1.5492,1.6443,1.6844,1.6792,1.7128,1.7021,0.0,0.0,0.0,0.0,1.6755,0.0,0.0,1.8007,1.8315,0.0,0.0,0.0,1.8654,1.8717,1.918,0.0,0.0,0.0,0.0,0.0,0.0,0.0,0.0,0.0,0.0,0.0,0.0,0.0,2.1308,2.1553,2.1817,0.0,0.0,0.0,0.0,0.0,0.0,0.0,0.0,0.0,0.0,0.0,0.0,0.0,0.0,0.0,0.0,0.0,0.0,3.2016,3.1325,3.0775,3.0506,3.0107,2.9891,2.9891,2.9891,2.9891,2.9891,2.9692,2.9692,2.9913,3.0248,3.0498,3.0722,3.0694,3.0757,3.0778,3.0098,2.9808,2.9906,3.1152,3.1636,3.1612,3.2831,3.3308,3.3308,3.3308,3.3308,3.3308,0.0,1.1522,1.152,1.1416,1.1003,1.0733,1.0804,1.077,1.0834,0.0,1.113,1.1301,0.0,0.0,1.1867,1.1293,1.1646,1.1458,1.0487,1.1195,1.1457,1.1001,1.138,1.1836,1.2419,1.241,1.2911,1.3919,1.5054,1.5564,1.5474,1.7263,1.7478,1.6485,1.785,1.8052,1.7369,0.0,0.0,1.727,1.6655,1.7546,0.0,0.0,1.9115,0.0,1.9728,1.9447,1.9327,1.9434,1.9797,0.0,0.0,0.0,0.0,0.0,1.9395,0.0,0.0,0.0,0.0,0.0,0.0,0.0,2.1158,2.1183,2.1295,0.0,0.0,0.0,0.0,0.0,0.0,0.0,0.0,0.0,0.0,0.0,0.0,0.0,0.0,0.0,0.0,3.1692,3.1607,3.1531,3.0916,3.0333,2.9826,2.9794,2.9794,2.9794,2.9794,2.9826,2.9891,2.9284,2.925,2.9803,2.946,2.9567,3.0003,2.9649,2.9732,3.0137,2.9605,2.9513,2.9862,3.1079,3.1547,3.1612,3.2831,3.3308,3.3308,3.3308,3.3308,3.3308,1.2124,1.2251,1.235,1.2003,1.191,1.1934,1.2112,1.1805,1.1713,1.2157,1.2015,0.0,0.0,0.0,0.0,1.2215,1.2304,1.236,1.2361,1.253,1.2496,1.2189,1.2098,1.2009,1.195,1.2294,1.2976,1.398,1.5085,1.6084,1.7004,1.7683,1.7929,1.7815,1.8123,1.8153,0.0,0.0,0.0,1.8,1.7846,0.0,1.8445,1.8908,1.9263,1.9557,1.9983,1.979,1.931,0.0,1.947,1.9736,0.0,0.0,0.0,0.0,0.0,0.0,0.0,0.0,0.0,0.0,0.0,0.0,2.0628,2.0778,2.0941,0.0,0.0,0.0,0.0,0.0,0.0,0.0,0.0,0.0,0.0,0.0,0.0,0.0,0.0,0.0,0.0,2.9772,2.9189,2.8585,2.8423,2.853,2.8995,2.8995,2.8995,2.8995,2.8995,2.9297,2.9891,2.8783,2.8582,2.9255,2.8847,2.8737,2.8818,2.8862,2.9044,2.9326,2.9227,2.9332,2.972,3.0435,3.1038,3.1612,3.2831,3.3308,3.3308,3.3308,3.3308,3.3308,1.2774,1.2708,1.2701,1.2755,1.2231,1.199,1.2602,1.2204,1.2009,1.2623,1.283,0.0,0.0,0.0,0.0,0.0,1.3593,1.364,1.3779,1.3813,1.3733,1.3593,1.3321,1.3241,1.3448,1.3462,1.4035,1.5238,1.614,1.697,1.768,1.8612,1.8204,1.6785,1.8492,1.8492,0.0,0.0,1.9261,1.9208,1.8468,0.0,1.8785,1.9179,1.9518,1.9835,2.0242,2.0175,1.9896,1.9821,1.9846,0.0,0.0,2.0311,2.0219,0.0,2.0042,2.021,0.0,0.0,0.0,2.0194,0.0,0.0,0.0,2.0578,2.0831,2.1453,0.0,0.0,0.0,0.0,0.0,0.0,0.0,0.0,0.0,0.0,0.0,0.0,0.0,0.0,0.0,2.7763,2.7721,2.7711,2.7711,2.785,2.8239,2.8239,2.8401,2.88,2.88,2.9017,2.9504,2.8612,2.8346,2.8701,2.8003,2.7961,2.8482,2.798,2.8078,2.864,2.8726,2.8892,2.9239,3.0246,3.0777,3.1117,3.2353,3.3027,3.3308,3.3308,3.3308,3.3308,1.3413,1.3129,1.3029,1.3344,1.2459,1.1973,1.2873,1.2458,1.2344,1.3096,0.0,0.0,0.0,0.0,0.0,0.0,0.0,1.4591,0.0,1.4755,1.4563,1.4449,1.4381,1.442,1.4613,1.4556,1.5226,1.6634,1.7308,1.778,1.8134,1.9467,1.8619,1.6092,1.8723,0.0,0.0,0.0,0.0,2.0003,0.0,1.8961,1.9495,1.9341,1.9703,2.0297,2.0417,2.0477,2.0477,2.034,0.0,2.0323,2.032,2.0311,0.0,0.0,0.0,0.0,0.0,0.0,0.0,0.0,0.0,2.0142,0.0,0.0,0.0,2.1614,0.0,0.0,0.0,0.0,0.0,0.0,0.0,0.0,0.0,0.0,0.0,0.0,0.0,0.0,0.0,2.5907,2.6361,2.7041,2.6976,2.6998,2.729,2.729,2.7614,2.8379,2.8414,2.8575,2.8896,2.8259,2.8021,2.8131,2.7229,2.7264,2.8142,2.7208,2.7255,2.804,2.824,2.8481,2.8789,3.0055,3.0559,3.0612,3.1763,3.2606,3.314,3.314,3.3196,3.3308,1.402,1.3841,1.3703,1.3446,1.302,1.2865,1.3276,1.3181,1.3323,0.0,0.0,0.0,0.0,0.0,0.0,0.0,0.0,0.0,1.5837,0.0,1.4042,1.3573,1.4626,1.4518,1.2932,1.4281,1.5702,1.7116,1.7514,1.8091,1.8896,1.9728,1.9647,0.0,1.8553,0.0,0.0,0.0,1.8838,0.0,1.9879,2.0095,0.0,1.9526,1.9703,2.0311,2.0306,2.0392,2.0477,0.0,2.0375,2.0451,0.0,2.0311,0.0,0.0,0.0,0.0,0.0,0.0,0.0,0.0,2.0014,0.0,0.0,0.0,2.0451,2.0638,0.0,0.0,0.0,0.0,0.0,0.0,0.0,0.0,0.0,0.0,0.0,0.0,0.0,0.0,0.0,0.0,2.4144,2.4815,2.4306,2.4524,2.5768,2.5833,2.6189,2.6921,2.7041,2.7431,2.8104,2.7179,2.6998,2.7575,2.7036,2.6875,2.6986,2.6862,2.7037,2.7425,2.7983,2.8393,2.8745,2.9435,3.0038,3.0568,3.1302,3.1977,3.2511,3.2511,3.2831,3.3308,1.4366,1.4133,1.3939,1.3683,1.3395,1.3301,1.359,1.4045,1.4603,0.0,0.0,0.0,0.0,0.0,0.0,0.0,0.0,1.6317,0.0,0.0,0.0,1.5792,1.6146,1.6014,1.5272,1.6008,1.6893,1.7963,1.8463,1.8983,1.958,2.0019,1.9451,0.0,1.9023,0.0,1.8553,0.0,0.0,0.0,0.0,0.0,0.0,1.998,2.0093,2.04,2.0345,2.0383,2.0477,0.0,2.0332,0.0,0.0,0.0,0.0,0.0,0.0,0.0,0.0,0.0,0.0,0.0,0.0,0.0,0.0,0.0,2.0373,0.0,0.0,0.0,0.0,0.0,0.0,0.0,0.0,0.0,0.0,0.0,0.0,0.0,0.0,0.0,0.0,0.0,0.0,0.0,0.0,2.3755,2.4362,2.4521,2.4933,2.5623,2.624,2.6753,2.7168,2.7024,2.7009,2.7087,2.6775,2.6646,2.6617,2.6738,2.6724,2.6646,2.7726,2.8195,2.8255,2.9223,2.9741,2.9994,3.0291,3.1218,3.2398,3.2398,3.2774,3.3308,1.4667,1.4302,1.4054,1.3949,1.3837,1.3934,1.4441,1.5225,1.5937,1.6449,1.7047,0.0,1.7612,1.7845,0.0,0.0,0.0,1.7618,0.0,0.0,1.7433,1.7132,1.7262,0.0,0.0,1.7333,1.7918,1.8655,1.9165,1.9626,2.0005,2.0216,1.9501,1.8084,0.0,1.9085,1.8115,0.0,0.0,2.0311,2.0311,2.0311,2.0311,2.0311,2.0349,2.0434,2.0366,2.0383,2.0434,2.0366,2.0323,0.0,2.0311,0.0,0.0,0.0,0.0,0.0,2.0093,0.0,0.0,0.0,0.0,0.0,0.0,0.0,0.0,0.0,0.0,0.0,0.0,0.0,0.0,0.0,0.0,0.0,0.0,0.0,0.0,0.0,0.0,0.0,0.0,0.0,0.0,2.2848,2.2904,2.2977,2.3172,2.3451,2.3951,2.4783,2.5575,2.6179,2.644,2.6848,2.689,2.6646,2.6498,2.6472,2.6483,2.662,2.6474,2.6222,2.7385,2.7726,2.7636,2.8858,2.9364,2.9364,2.956,3.0656,3.2145,3.2145,3.2634,3.3308,1.4952,1.4369,1.407,1.426,1.4475,1.5034,1.6161,1.683,1.7302,1.7525,0.0,0.0,0.0,0.0,0.0,0.0,0.0,1.6904,1.8375,0.0,1.6497,0.0,0.0,0.0,0.0,0.0,1.846,1.9082,1.9286,1.9626,2.0005,2.0216,2.0249,2.0157,0.0,1.8984,2.0126,1.8822,1.9038,2.0311,2.0311,2.0311,2.0311,0.0,2.0311,2.0306,2.0443,0.0,0.0,2.0451,2.04,0.0,0.0,0.0,0.0,0.0,0.0,0.0,0.0,0.0,0.0,1.9824,0.0,0.0,0.0,0.0,2.0822,0.0,0.0,0.0,0.0,0.0,0.0,0.0,0.0,0.0,0.0,0.0,0.0,0.0,0.0,0.0,0.0,0.0,0.0,2.1358,2.1358,2.1689,2.2418,2.2692,2.3333,2.4464,2.5057,2.5549,2.6013,2.6225,2.6327,2.6327,2.6313,2.6365,2.6511,2.6352,2.6313,2.6315,2.6833,2.6947,2.6947,2.8212,2.8717,2.8774,2.9364,3.0403,3.1544,3.1544,3.2286,3.3308,1.6308,1.5819,1.5392,0.0,0.0,1.5937,1.7023,1.7367,1.7665,0.0,0.0,0.0,0.0,0.0,1.8262,0.0,0.0,1.7953,1.847,1.8095,0.0,0.0,0.0,1.7989,0.0,0.0,0.0,0.0,1.9572,1.986,2.0005,2.0216,2.0311,2.028,0.0,1.984,0.0,0.0,0.0,0.0,0.0,2.0311,2.0311,0.0,0.0,2.0434,2.0485,2.0468,0.0,2.0485,2.0409,2.0311,2.0311,2.0311,2.0311,2.0311,2.0311,0.0,0.0,0.0,2.0616,2.0496,0.0,0.0,0.0,0.0,0.0,0.0,0.0,0.0,0.0,0.0,0.0,0.0,0.0,0.0,0.0,0.0,0.0,0.0,0.0,0.0,0.0,0.0,0.0,2.1293,2.1293,2.1303,0.0,2.1985,2.259,2.316,2.4345,2.5207,2.5732,2.6108,2.63,2.63,2.6219,2.6206,2.6231,2.6286,2.6206,2.6072,2.6721,2.6919,2.6919,2.8155,2.8704,2.8745,2.9364,3.0375,3.1516,3.1516,3.2258,3.3308,1.6978,1.6732,1.6426,0.0,0.0,0.0,0.0,0.0,0.0,0.0,1.8537,0.0,1.7674,0.0,1.8255,0.0,1.8142,1.8498,1.8498,1.8498,0.0,1.8311,1.841,0.0,0.0,0.0,0.0,0.0,0.0,2.0049,2.0028,2.0233,2.0311,2.0311,0.0,0.0,0.0,0.0,2.0311,0.0,0.0,2.0311,0.0,0.0,2.034,2.0434,0.0,2.0468,2.0434,2.0485,2.0409,2.0311,2.0311,2.0311,2.0311,2.0311,2.0311,2.0263,2.0185,2.0569,0.0,2.0884,2.0972,0.0,2.0757,0.0,0.0,0.0,0.0,0.0,0.0,0.0,0.0,0.0,0.0,0.0,0.0,2.0909,0.0,0.0,0.0,0.0,0.0,0.0,2.1293,2.1293,2.1151,2.1053,0.0,0.0,2.2083,2.2593,2.399,2.4924,2.5358,2.5938,2.6206,2.6165,2.6084,2.6057,2.6111,2.6152,2.6098,2.5976,2.6411,2.668,2.6877,2.7931,2.8508,2.8745,2.9364,3.0375,3.1516,3.1516,3.2258,3.3308,1.7043,1.7114,0.0,0.0,1.728,0.0,0.0,0.0,1.8644,0.0,1.8615,1.8389,1.7627,1.8114,1.8255,1.7618,1.8142,0.0,1.8498,1.8517,0.0,0.0,1.8779,1.8998,1.9129,0.0,0.0,0.0,0.0,0.0,2.0124,2.0228,2.0289,2.032,2.0311,0.0,2.0311,2.0311,2.0311,2.0311,2.0311,2.0311,2.0311,2.0311,2.0289,2.0345,2.0468,2.0417,2.0306,2.0468,2.0417,2.0311,2.0311,2.0311,2.0311,2.0311,2.0311,2.0311,2.0311,2.0653,2.1047,2.1038,0.0,0.0,0.0,0.0,2.1501,0.0,0.0,0.0,0.0,0.0,0.0,0.0,0.0,0.0,0.0,0.0,0.0,0.0,0.0,0.0,0.0,2.1285,2.1293,2.1285,2.0869,0.0,0.0,0.0,2.1824,2.2717,2.3938,2.4714,2.4922,2.5683,2.6043,2.5907,2.5907,2.5976,2.6098,2.5976,2.5976,2.6084,2.5976,2.6245,2.6849,2.7524,2.817,2.8745,2.9364,3.0375,3.1516,3.1572,3.2314,3.3308,1.8518,1.8418,1.8408,0.0,1.8465,1.8484,0.0,0.0,0.0,0.0,1.8585,1.8153,1.7037,1.7862,1.8086,1.7009,1.789,0.0,0.0,0.0,0.0,1.8798,1.9092,1.9352,1.9545,1.9654,0.0,1.9961,0.0,0.0,2.0309,2.0306,2.034,2.0443,0.0,0.0,2.0311,2.0311,2.0311,2.0311,2.0311,2.0311,0.0,0.0,2.0349,2.0468,2.0662,2.0536,2.0332,2.0628,2.0527,2.0311,2.0311,2.0311,2.0311,2.0311,2.0311,2.0311,2.0311,2.1035,2.1801,2.1765,2.2123,2.2455,0.0,0.0,0.0,0.0,0.0,0.0,0.0,0.0,0.0,0.0,0.0,0.0,0.0,0.0,0.0,0.0,0.0,0.0,2.1127,2.123,2.1254,2.1151,2.1039,0.0,0.0,0.0,0.0,2.1895,2.3609,2.4721,2.5127,2.5781,2.6043,2.5907,2.5907,2.5935,2.5962,2.5935,2.5935,2.5962,2.5921,2.6245,2.6849,2.7524,2.817,2.8745,2.9364,3.0375,3.1612,3.2511,3.3027,3.3308,1.9045,0.0,0.0,1.9073,0.0,0.0,1.8893,0.0,0.0,1.8692,1.8673,0.0,1.7215,1.7946,1.8114,1.7178,1.7946,0.0,0.0,0.0,0.0,1.911,1.9417,1.9626,1.9708,1.9869,0.0,2.0037,0.0,0.0,2.0451,2.0409,2.0426,2.0494,0.0,2.0311,0.0,2.0311,2.0311,2.0311,2.0311,0.0,0.0,2.0357,2.0426,2.0544,2.0827,2.0753,2.0527,2.0637,2.0544,2.0375,2.0306,2.0311,2.0311,2.0311,2.0311,2.0311,2.0311,2.0961,2.1707,2.1947,2.2385,2.2786,2.2724,2.2714,2.2495,0.0,0.0,0.0,0.0,0.0,0.0,0.0,0.0,0.0,0.0,0.0,0.0,0.0,0.0,0.0,2.0494,2.086,2.1087,2.1087,0.0,0.0,0.0,0.0,0.0,2.1483,2.3936,2.5107,2.4729,2.6183,2.658,2.5907,2.5907,2.5907,2.5907,2.5907,2.5907,2.5907,2.5907,2.6413,2.7256,2.7636,2.8311,2.9167,3.0094,3.0853,3.164,3.2859,3.3308,3.3308,0.0,0.0,0.0,0.0,0.0,0.0,0.0,1.8884,0.0,1.874,0.0,1.8494,1.7683,1.8181,1.8322,1.7739,0.0,1.875,1.8998,1.9054,1.9185,1.9435,1.9714,1.9839,1.978,2.0115,0.0,0.0,0.0,0.0,2.0544,2.0494,2.0494,2.0536,0.0,0.0,0.0,2.0311,2.0311,0.0,2.0311,2.0311,2.0297,2.0443,2.0519,2.0586,2.0933,2.0933,2.0745,2.0595,2.051,2.0451,2.0332,2.0311,2.0311,2.0311,2.0311,2.0311,2.0311,2.0755,2.139,2.1886,2.2485,2.2927,2.2843,2.2823,2.2503,2.1403,2.1156,2.0974,0.0,0.0,0.0,0.0,0.0,0.0,0.0,0.0,0.0,0.0,0.0,0.0,0.0,2.0258,2.0753,0.0,0.0,0.0,0.0,0.0,0.0,2.1192,2.4321,0.0,2.4344,0.0,2.7244,2.6245,2.6034,2.5936,2.602,2.5936,2.5907,2.5907,2.5964,2.6708,2.7819,2.7889,2.8648,2.9841,3.1021,3.1544,3.1752,3.2887,3.3308,3.3308,0.0,0.0,0.0,0.0,0.0,1.9017,1.9064,1.8922,1.8836,1.8922,1.8807,1.8446,1.7767,1.838,1.8654,1.8208,1.8932,0.0,0.0,0.0,0.0,1.9741,2.0054,2.0202,2.0185,2.0246,2.0272,0.0,0.0,0.0,2.0745,2.0451,2.0477,0.0,0.0,0.0,2.0311,2.0311,0.0,2.0311,2.0311,2.0311,2.0297,2.0443,2.0603,2.0761,2.0827,2.0728,2.0578,2.0703,2.0561,2.0323,2.032,2.0311,2.0311,2.0311,2.0311,2.0311,2.0311,2.1187,2.2066,2.2037,2.2889,2.3726,2.3484,2.343,2.3381,2.3152,2.2415,2.1776,2.1704,0.0,0.0,0.0,0.0,0.0,0.0,0.0,0.0,0.0,0.0,0.0,0.0,0.0,0.0,0.0,0.0,0.0,0.0,0.0,0.0,0.0,2.3114,0.0,0.0,0.0,2.6919,2.8183,2.6652,2.616,2.6638,2.6132,2.5907,2.5936,2.6441,2.7088,2.7847,2.8339,2.9251,3.0415,3.119,3.1808,3.2342,3.3027,3.3308,3.3308,0.0,0.0,0.0,0.0,0.0,0.0,0.0,1.938,0.0,1.9269,1.9101,1.8966,1.8843,1.9099,1.9221,1.9137,1.9521,1.964,1.939,1.9519,1.9579,1.9531,1.9689,0.0,2.0289,2.0311,2.0311,2.0311,0.0,0.0,2.0645,0.0,0.0,2.0637,0.0,2.0311,0.0,0.0,0.0,2.0311,2.0311,2.0311,2.0297,2.0443,2.0628,2.0802,2.0802,2.0745,2.0653,2.0653,2.0536,2.0383,2.0306,2.0311,2.0311,2.0311,2.0311,2.0311,2.0311,2.1011,2.1818,2.1945,2.2748,2.3505,2.3574,2.361,2.352,2.3201,2.2756,2.2354,2.2098,2.1372,0.0,0.0,0.0,0.0,0.0,0.0,0.0,0.0,0.0,0.0,0.0,0.0,0.0,0.0,0.0,0.0,0.0,0.0,0.0,0.0,0.0,0.0,0.0,0.0,0.0,2.7706,2.6807,2.6526,2.6764,2.6188,2.5907,2.5907,2.6217,2.6905,2.7861,2.8774,2.9685,3.0584,3.1246,3.1864,3.2483,3.3083,3.3308,3.3308,0.0,2.0146,0.0,0.0,2.0094,0.0,1.9663,1.9815,1.9842,1.9508,1.9398,1.947,1.9853,1.9782,1.9799,2.0037,2.0093,1.9969,1.9493,1.9462,1.9487,1.9567,1.9534,1.9781,2.0332,2.0297,2.0311,0.0,0.0,0.0,0.0,0.0,0.0,0.0,0.0,0.0,0.0,0.0,2.0311,2.0311,2.0311,2.0311,2.0297,2.0443,2.0603,2.0736,2.0736,2.0736,2.0712,2.0519,2.046,2.0434,2.0323,2.0311,2.0311,2.0311,2.0311,2.0311,2.0311,2.0804,2.1427,2.1913,2.2515,2.3122,2.3546,2.3631,2.3471,2.2992,2.2856,2.2707,2.2246,2.1808,0.0,0.0,0.0,0.0,0.0,0.0,0.0,0.0,0.0,0.0,0.0,0.0,0.0,0.0,0.0,0.0,0.0,0.0,0.0,0.0,0.0,2.5443,2.4907,0.0,2.8071,0.0,2.72,2.7088,2.72,2.6582,2.6315,2.6315,2.6441,2.7158,2.8283,2.9364,3.0163,3.078,3.1443,3.2061,3.2634,3.3111,3.3308,3.3308,0.0,0.0,0.0,0.0,0.0,0.0,0.0,1.9943,1.9762,1.9362,1.9417,1.957,1.9803,1.9953,2.0172,2.0521,2.0804,2.0885,2.0658,2.0642,2.0576,2.04,2.0265,2.0287,2.0477,2.0349,2.0311,0.0,0.0,0.0,0.0,0.0,0.0,0.0,0.0,0.0,0.0,2.0311,2.0311,2.0311,2.0311,2.0311,2.0297,2.0443,2.0519,2.0536,2.0536,2.0536,2.051,2.0357,2.0306,2.0328,2.0289,2.0311,2.0311,2.0311,2.0311,2.0311,2.0311,2.0804,2.1415,2.1959,2.2534,2.3142,2.3652,2.3696,2.358,2.352,2.3239,2.2828,2.2361,2.2224,2.1934,0.0,0.0,0.0,0.0,0.0,0.0,0.0,0.0,0.0,0.0,0.0,0.0,0.0,0.0,0.0,0.0,0.0,0.0,2.122,0.0,2.585,2.7454,2.7144,2.8056,3.0134,2.8493,2.8001,2.8493,2.7889,2.7608,2.7636,2.8198,2.8802,2.9476,3.0134,3.0809,3.1471,3.2089,3.2662,3.3224,3.328,3.3308,3.3308,0.0,0.0,0.0,0.0,0.0,0.0,0.0,2.0595,2.028,1.9794,1.9723,1.9936,2.0513,2.0485,2.0578,2.0966,2.1143,2.1119,2.0941,2.0753,2.0399,1.9803,1.9736,1.9913,2.0375,2.0345,2.0311,0.0,0.0,0.0,0.0,0.0,0.0,0.0,0.0,2.0311,2.0311,2.0311,2.0311,2.0311,2.0311,2.0311,2.032,2.0349,2.0426,2.0485,2.04,2.0426,2.0477,2.034,2.0311,2.0311,2.0311,2.0311,2.0311,2.0311,2.0311,2.0311,2.0311,2.1073,2.1938,2.206,2.2929,2.3721,2.3775,2.376,2.3707,2.3631,2.3592,2.3538,2.3346,2.3099,2.2834,0.0,0.0,0.0,0.0,0.0,0.0,0.0,0.0,0.0,0.0,0.0,0.0,0.0,0.0,0.0,0.0,0.0,0.0,2.1276,0.0,2.5175,2.6652,2.7158,2.8071,2.942,2.8704,2.8479,2.8676,2.8086,2.7819,2.7847,2.8451,2.883,2.9139,3.0106,3.0893,3.1572,3.2174,3.2774,3.3308,3.3308,3.3308,3.3308,2.134,0.0,2.1293,0.0,2.1103,2.099,2.1127,2.1039,2.0753,2.0172,2.012,2.04,2.0982,2.0844,2.086,2.1262,2.1293,2.1191,2.0965,2.0743,2.0309,1.9685,1.9604,0.0,2.0349,2.0306,2.0311,2.0311,2.0311,0.0,0.0,0.0,0.0,0.0,2.0246,2.0311,2.0311,2.0311,2.0311,2.0311,2.0311,2.0311,2.0311,2.0311,2.0349,2.0426,2.0323,2.0349,2.0426,2.0323,2.0311,2.0311,2.0311,2.0311,2.0311,2.0311,2.0311,2.0342,2.0527,2.1288,2.207,2.2384,2.3162,2.3865,2.3858,2.3814,2.3771,2.3728,2.3887,2.3993,2.395,2.3671,2.3335,2.299,0.0,0.0,0.0,0.0,0.0,0.0,0.0,1.8183,1.8123,0.0,0.0,0.0,0.0,0.0,0.0,0.0,0.0,0.0,0.0,0.0,0.0,2.7524,2.8367,2.897,2.897,2.897,2.8942,2.8536,2.8339,2.8339,2.8774,2.9083,2.9307,3.0359,3.119,3.1808,3.2426,3.2915,3.3308,3.3308,3.3308,3.3308,2.1332,2.1293,2.1293,2.1293,2.1293,2.1183,2.086,2.1087,2.1055,2.0375,2.0578,2.0835,2.099,2.0998,2.1079,2.127,2.1293,2.1159,2.0819,2.067,2.0561,0.0,0.0,2.0349,2.0494,2.0357,2.0311,2.0311,0.0,0.0,2.0311,0.0,2.0124,1.983,2.015,2.0311,2.0311,2.0311,2.0311,2.0311,2.0311,2.0311,2.0311,2.0311,2.0311,2.0311,2.0311,2.0311,2.0311,2.0311,2.0311,2.0311,2.0311,2.0311,2.0311,2.0311,2.0311,2.0434,2.1103,2.1288,2.1627,2.2963,2.3181,2.3264,2.3862,2.3908,2.3824,2.3972,2.4003,2.3961,2.3814,2.3792,2.318,2.1251,0.0,0.0,0.0,0.0,0.0,0.0,1.8202,1.8123,1.7922,0.0,0.0,0.0,0.0,0.0,0.0,0.0,0.0,2.3041,2.4909,0.0,2.7748,2.8395,2.8998,2.9588,2.9588,2.9588,2.9588,2.9588,2.9588,2.9588,2.9588,2.9938,3.0528,3.1218,3.1836,3.2455,3.3055,3.328,3.3308,3.3308,3.3308,3.3308,2.1332,2.1293,2.1293,2.1293,2.1293,2.1111,2.0536,2.0544,2.0536,2.0345,2.0794,2.1151,2.1191,2.099,2.0974,0.0,2.1293,2.1159,0.0,2.0662,2.0519,2.0357,2.0306,2.0306,2.0349,2.0306,2.0311,2.0311,0.0,0.0,0.0,2.0311,2.0228,2.015,2.0237,2.0311,2.0311,2.0311,2.0311,2.0311,2.0311,2.0311,2.0311,2.0311,2.0311,2.0311,2.0311,2.0311,2.0311,2.0311,2.0311,2.0311,2.0311,2.0311,2.0311,2.0311,2.0619,2.102,2.1227,2.1966,2.2757,2.3179,2.361,2.3958,2.411,2.3961,2.3803,2.3835,2.3758,2.3672,2.3664,2.3545,2.3049,2.1729,2.1173,0.0,0.0,0.0,0.0,0.0,0.0,1.7973,0.0,1.7628,0.0,0.0,0.0,0.0,0.0,0.0,0.0,0.0,2.5162,0.0,2.8395,2.8592,2.8998,2.9601,2.9601,2.9601,2.9601,2.9601,2.9826,3.0219,3.0219,3.0584,3.1218,3.1864,3.223,3.2455,3.3055,3.3308,3.3308,3.3308,3.3308,3.3308,2.134,2.1293,2.1293,2.1293,2.1293,2.1159,2.0745,2.0678,2.0678,2.0678,2.1039,2.1293,2.1293,2.0884,0.0,2.1087,2.1222,2.1127,2.072,2.0553,2.0417,2.032,2.0311,2.0311,2.0311,0.0,0.0,2.0311,2.0311,2.0228,2.0115,2.0228,2.022,2.0124,2.0228,2.0311,2.0311,2.0311,2.0311,2.0311,2.0311,2.0311,2.0311,2.0311,2.0311,2.0311,2.0311,2.0311,2.0311,2.0311,2.0311,2.0311,2.0311,2.0311,2.0311,2.0311,2.0773,2.135,2.1627,2.248,2.3363,2.3609,2.3979,2.4276,2.414,2.3961,2.3803,2.3876,2.3683,2.3509,2.349,2.3076,2.2429,2.1434,2.0751,2.0051,1.9174,0.0,0.0,0.0,0.0,0.0,0.0,1.7576,0.0,0.0,0.0,0.0,0.0,0.0,0.0,2.4207,2.5544,0.0,2.8479,2.8853,2.9336,2.9938,2.9938,2.9938,2.9938,2.9685,2.9797,3.0163,3.0415,3.0865,3.1544,3.2145,3.2539,3.2774,3.314,3.3308,3.3308,3.3308,3.3308,3.3336,2.1379,2.1348,0.0,0.0,2.1348,0.0,2.1309,2.1293,2.1293,2.1293,2.1293,2.1293,2.1293,2.0745,2.0485,2.0811,0.0,0.0,0.0,2.0383,2.032,2.0311,2.0311,2.0311,2.0311,2.0311,2.0311,2.0311,2.0311,2.0142,1.9847,2.015,2.0133,1.9856,2.0159,2.0311,2.0311,2.0311,2.0311,2.0311,2.0311,2.0311,2.0311,2.0311,2.0311,2.0311,2.0311,2.0311,2.0311,2.0311,2.0311,2.0311,2.0311,2.0311,2.0311,2.0311,2.0804,2.1504,2.212,2.2809,2.3517,2.4153,2.4287,2.4194,2.4117,2.3959,2.3876,2.4114,2.3898,2.3595,2.3404,2.2549,2.1553,2.0549,1.9856,1.9189,1.8582,0.0,0.0,0.0,0.0,0.0,0.0,1.7863,1.828,0.0,0.0,0.0,0.0,0.0,2.278,2.4475,2.6064,2.7348,2.8257,2.9177,2.9922,3.05,3.05,3.05,3.05,2.991,2.9713,2.9841,3.0387,3.1005,3.1668,3.223,3.2774,3.3308,3.3308,3.3308,3.3308,3.3308,3.3308,3.3392,0.0,0.0,2.2154,2.1433,2.1875,2.2147,2.141,2.1293,2.1293,2.1293,2.1293,2.1293,2.1293,2.1159,2.1095,2.1167,2.0786,2.0536,2.0561,2.0494,2.04,2.0289,2.0311,2.0311,2.0311,2.0311,2.0311,2.0311,2.0311,2.0246,2.0176,2.0246,2.0246,2.0185,2.0246,2.0311,2.0311,2.0311,2.0311,2.0311,2.0311,2.0311,2.0311,2.0311,2.0311,2.0311,2.0311,2.0311,2.0311,2.0311,2.0311,2.0311,2.0311,2.0311,2.0311,2.0311,2.1143,2.2111,2.2265,2.3148,2.4092,2.4246,2.3917,2.3794,2.4712,2.4506,2.4403,2.5463,2.5398,2.494,2.4218,2.3243,2.2103,2.0644,1.9856,1.9189,1.8582,1.8891,0.0,0.0,1.9424,1.9404,1.8227,1.8884,1.9235,0.0,0.0,0.0,0.0,2.3031,2.4162,2.4858,2.6817,2.8195,2.8892,2.9552,3.0102,3.05,3.05,3.05,3.05,3.0359,3.0809,3.1752,3.1893,3.2297,3.2887,3.3027,3.3168,3.3308,3.3308,3.3308,3.3308,3.3308,3.3308,3.3392,2.2148,2.2357,2.2535,2.2013,2.2364,2.2528,2.2039,2.1926,2.1805,2.1356,2.1293,2.1293,2.1293,2.1293,2.1293,2.1293,2.0966,2.0703,2.0595,2.067,2.062,2.0392,2.0383,2.0349,2.0311,2.0311,2.0311,2.0311,2.0311,2.0311,2.0311,2.0311,2.0311,2.0311,2.0311,2.0311,2.0311,2.0311,2.0311,2.0311,2.0311,2.0311,2.0311,2.0311,2.0311,2.0311,2.0311,2.0311,2.0311,2.0311,2.0496,2.0773,2.0773,2.0958,2.1196,2.1196,2.172,2.2357,2.2665,2.3517,2.4369,2.4676,2.4748,2.4881,2.5509,2.5365,2.5334,2.6038,2.5778,2.5153,2.442,2.3107,2.1731,2.0584,1.9856,1.9302,1.8965,1.9452,0.0,1.9697,2.0168,2.0124,1.9129,1.9753,2.0072,1.9746,0.0,0.0,2.2458,2.4461,2.5464,2.5139,2.7407,2.8829,2.9273,3.0494,3.1204,3.137,3.137,3.137,3.137,3.1089,3.1331,3.2005,3.2286,3.2578,3.2915,3.3196,3.3308,3.3308,3.3308,3.3308,3.3308,3.3308,3.3308,3.342,2.2827,2.2716,2.2716,2.2716,2.2716,2.2635,2.2508,2.2602,2.2419,2.1632,2.1387,2.1293,2.1293,2.1293,2.1293,2.1293,2.1293,2.1119,2.0687,2.0867,2.0859,2.0561,2.0519,2.0443,2.0323,2.0323,2.0306,2.0311,2.0306,2.0306,2.0311,2.0311,2.0311,2.0311,2.0311,2.0311,2.0311,2.0311,2.0311,2.0311,2.0311,2.0311,2.0311,2.0311,2.0311,2.0311,2.0311,2.0311,2.032,2.0412,2.0835,2.1328,2.1411,2.1843,2.2326,2.2419,2.2449,2.2603,2.3271,2.401,2.4738,2.5322,2.5857,2.6276,2.6359,2.6306,2.6275,2.6489,2.5931,2.5229,2.4574,2.2849,2.1343,2.0748,1.9957,1.947,1.9649,0.0,2.0606,2.0634,2.0919,2.0862,2.0253,2.0805,2.121,2.121,2.2113,2.2963,2.3693,2.5798,2.6605,2.5784,2.7958,2.9344,2.9774,3.1527,3.2398,3.2398,3.2398,3.2398,3.2398,3.1864,3.1696,3.1808,3.2314,3.2539,3.2578,3.3083,3.3308,3.3308,3.3308,3.3308,3.3308,3.3308,3.3308,3.3477,2.2827,2.2716,2.2716,2.2716,2.2716,2.2433,2.1655,2.2203,2.2635,2.2501,2.1779,2.1293,2.1293,2.1293,2.1293,2.1293,2.1293,2.1214,2.1023,2.0893,2.0802,2.0761,2.0595,2.0494,2.0468,2.0468,2.0409,2.0311,2.0409,2.0409,2.0311,2.0311,2.0311,2.0311,2.0311,2.0311,2.0311,2.0311,2.0311,2.0311,2.0311,2.0311,2.0311,2.0311,2.0311,2.0311,2.0311,2.0311,2.0373,2.0958,2.1196,2.1411,2.1966,2.2212,2.2419,2.2973,2.3148,2.3302,2.3979,2.5087,2.6114,2.6195,2.5857,2.5784,2.6942,2.6746,2.6611,2.7822,2.7698,2.6914,2.5408,2.3728,2.2437,2.1986,2.0502,1.9789,2.0843,0.0,2.1505,2.1304,2.2803,2.3387,2.2114,2.2963,2.3576,2.3576,2.3759,2.4517,2.6075,2.6941,2.7561,2.7921,2.8845,2.9872,3.1013,3.1944,3.2398,3.2398,3.2398,3.2398,3.2398,3.2314,3.2539,3.3027,3.3111,3.3168,3.3168,3.3252,3.3308,3.3308,3.3308,3.3308,3.3308,3.3308,3.3308,3.3477,2.2827,2.2716,2.2716,2.2716,2.2716,2.2548,2.2106,2.2426,2.2716,2.2716,2.1868,2.1293,2.1293,2.1293,2.1293,2.1293,2.1293,2.1262,2.1206,2.1119,2.1039,2.0958,2.0769,2.0611,2.0502,2.0502,2.0527,2.0569,2.0628,2.0628,2.0569,2.0569,2.0502,2.04,2.04,2.0357,2.0311,2.0311,2.0311,2.0311,2.0311,2.0311,2.0311,2.0311,2.0311,2.0311,2.0311,2.0527,2.087,2.0996,2.1519,2.2158,2.2463,2.3072,2.3752,2.4224,2.4369,2.443,2.4738,2.5857,2.6945,2.6945,2.6965,2.723,2.8258,2.8215,2.8093,2.8539,2.8308,2.7505,2.5787,2.4089,2.3027,2.3186,2.1648,0.0,0.0,2.2956,2.3177,2.3545,2.4583,2.4933,2.4156,2.4388,2.4584,2.4584,2.4842,2.5626,2.7053,2.7821,2.8677,2.961,3.016,3.0947,3.206,3.2598,3.2887,3.2887,3.2887,3.2887,3.2887,3.2887,3.3027,3.3308,3.3308,3.3308,3.3308,3.3308,3.3308,3.3308,3.3308,3.3308,3.3336,3.3655,3.3768,3.3982,2.2952,2.2876,2.2831,2.2701,2.2716,2.2716,2.2716,2.2716,2.2716,2.2716,2.1868,2.1293,2.1293,2.1293,2.1293,2.1293,2.1293,2.1293,2.1293,2.1293,2.1246,2.1143,2.0966,2.0778,2.0578,2.062,2.0695,2.0802,2.0844,2.0844,2.0802,2.0802,2.072,2.0569,2.0527,2.0434,2.0332,2.0297,2.0311,2.0311,2.0311,2.0311,2.0311,2.0311,2.0311,2.0311,2.0311,2.0742,2.1274,2.1093,2.1803,2.2847,2.3179,2.3973,2.4895,2.5409,2.5595,2.5663,2.5762,2.6688,2.7642,2.7642,2.8134,2.8744,2.9136,2.9355,2.9363,2.8918,2.8521,2.7793,2.6286,2.4769,2.3925,2.4416,0.0,0.0,0.0,2.4589,2.4879,2.5507,2.5947,2.607,2.5811,2.5669,2.5631,2.5777,2.6164,2.6906,2.8038,2.8801,2.9671,3.0723,3.1325,3.1934,3.2561,3.3051,3.3308,3.3308,3.3308,3.3308,3.3308,3.3308,3.3308,3.3308,3.3308,3.3308,3.3308,3.3308,3.3308,3.3308,3.3308,3.3308,3.3364,3.3964,3.4189,3.4385,2.3459,2.3448,2.3265,2.2808,2.2716,2.2716,2.2716,2.2716,2.2716,2.2716,2.1868,2.1293,2.1293,2.1293,2.1293,2.1293,2.1293,2.1293,2.1293,2.1293,2.1285,2.1277,2.1143,2.0974,2.0786,2.0958,2.0966,2.0802,2.0982,2.0974,2.0802,2.0802,2.0794,2.0769,2.0586,2.0494,2.0477,2.034,2.0311,2.0311,2.0311,2.0311,2.0311,2.0311,2.0311,2.0311,2.0311,2.0742,2.1326,2.1648,2.2204,2.3028,2.4245,2.4738,2.4986,2.6014,2.6454,2.6699,2.7137,2.7765,2.8319,2.8319,2.883,2.9222,2.8832,2.9224,2.9555,2.9094,2.8678,2.8166,2.7419,2.642,2.5711,2.5752,0.0,0.0,2.5668,2.6036,2.6142,2.5893,2.6593,2.6977,2.6626,2.7043,2.7533,2.8115,2.8194,2.8699,2.9839,2.9962,3.0312,3.0951,3.2037,3.2434,3.2146,3.2909,3.3308,3.3308,3.3308,3.3308,3.3308,3.3308,3.3308,3.3308,3.3308,3.3308,3.3308,3.3308,3.3308,3.3308,3.3308,3.3308,3.3364,3.3964,3.4189,3.4385,2.3505,2.3217,2.2927,2.2755,2.2965,2.3071,2.2734,2.2224,2.1816,2.1816,2.1526,2.1293,2.1293,2.1293,2.1379,2.1595,2.1418,2.1293,2.1293,2.1293,2.1254,2.1175,2.1119,2.1055,2.0982,2.1055,2.1095,2.1111,2.1183,2.1175,2.1111,2.1111,2.1063,2.0974,2.0778,2.062,2.0494,2.0349,2.0311,2.0311,2.0311,2.0311,2.0342,2.0773,2.0919,2.098,2.1381,2.1957,2.2486,2.2154,2.2772,2.3763,2.4324,2.5318,2.6571,2.8029,2.8295,2.8162,2.8349,2.8295,2.8355,2.9035,2.9194,2.9212,2.9452,2.9691,2.9757,2.9333,2.9146,2.8742,2.7826,2.7357,2.7214,2.758,0.0,2.661,2.7987,2.7982,2.7956,2.8349,2.885,2.9033,2.8673,2.8628,2.8699,2.8926,2.9274,2.9648,3.0074,3.0458,3.0764,3.0992,3.1855,3.2255,3.2092,3.2892,3.3308,3.3308,3.3308,3.3308,3.3308,3.3308,3.3308,3.3308,3.3308,3.3308,3.3308,3.3308,3.3308,3.3308,3.3308,3.3308,3.342,3.445,3.4833,3.5002,2.3505,2.3187,2.2889,2.2714,2.2996,2.3169,2.2971,2.2254,2.1648,2.1332,2.1293,2.1332,2.1449,2.1457,2.1556,2.179,2.1495,2.1293,2.1293,2.1293,2.1254,2.1159,2.1151,2.1151,2.1151,2.1151,2.1198,2.1293,2.1293,2.1293,2.1293,2.1293,2.1246,2.1143,2.0909,2.0728,2.0586,2.0375,2.0311,2.0311,2.0311,2.0478,2.0777,2.1202,2.1502,2.1759,2.2245,2.2775,2.3233,2.2674,2.3275,2.4328,2.4988,2.6505,2.8181,2.9212,2.918,2.8864,2.9083,2.8838,2.8735,2.9331,2.9397,2.9398,2.9695,2.9944,2.9973,2.9545,2.944,2.9294,2.8765,2.8648,2.8774,2.9195,2.8717,2.8661,2.9713,2.9701,2.9743,3.0179,3.0313,3.0244,2.9846,2.9662,2.9536,2.9536,3.0066,3.038,3.038,3.079,3.0992,3.0992,3.1708,3.2092,3.2092,3.2892,3.3308,3.3308,3.3308,3.3308,3.3308,3.3308,3.3308,3.3308,3.3308,3.3308,3.3308,3.3308,3.3308,3.3308,3.3308,3.342,3.3729,3.4795,3.5302,3.5639,2.3505,2.3505,2.3348,2.2786,2.2722,2.2876,2.343,2.3034,2.2371,2.1433,2.1301,2.1433,2.1768,2.1805,2.1805,2.1805,2.1495,2.1293,2.1293,2.1293,2.1325,2.1325,2.1293,2.1293,2.1293,2.1293,2.1293,2.1293,2.1293,2.1325,2.1325,2.1325,2.1325,2.1277,2.095,2.0802,2.0778,2.0434,2.0311,2.032,2.032,2.0834,2.1601,2.1624,2.2021,2.2636,2.2627,2.2931,2.3325,2.3239,2.3658,2.4564,2.6583,2.8353,2.9615,2.9237,2.8793,2.857,2.9232,2.9505,2.9507,2.9099,2.9514,2.9884,2.9405,2.9806,3.0174,2.971,2.9601,2.9797,3.0415,3.0528,3.0528,3.0528,3.1078,3.1274,3.0612,3.1106,3.1355,3.0959,3.062,3.0261,2.9854,2.9987,3.01,3.01,3.066,3.0992,3.0992,3.0992,3.0992,3.0992,3.1708,3.2092,3.2092,3.2892,3.3308,3.3308,3.3308,3.3308,3.3308,3.3308,3.3308,3.3308,3.3308,3.3308,3.3308,3.3308,3.3308,3.3308,3.3308,3.3655,3.4273,3.4946,3.5583,3.6202,2.3505,2.3505,2.3459,2.3307,2.3241,2.333,2.3482,2.3034,2.2588,2.2329,2.1897,2.1693,2.1797,2.1805,2.1715,2.1472,2.1356,2.1293,2.1293,2.1787,2.2086,2.2086,2.1592,2.1293,2.1293,2.1293,2.1293,2.1293,2.1819,2.2086,2.2086,2.2086,2.2086,2.2037,2.1181,2.0802,2.0786,2.0544,2.0731,2.121,2.1381,2.1853,2.2569,2.3024,2.3645,2.431,2.4675,2.5165,2.5618,2.5175,2.5545,2.66,2.8594,2.9535,2.9977,3.0321,2.9869,2.9394,3.0017,3.0189,3.0192,2.9967,3.0494,3.0785,2.9749,3.0356,3.0975,3.0363,3.0628,3.0993,3.1162,3.1555,3.1679,3.1274,3.1724,3.2061,3.1848,3.2005,3.215,3.2176,3.1844,3.1442,3.1109,3.0848,3.0738,3.0738,3.0895,3.0992,3.0992,3.0992,3.1123,3.1421,3.1855,3.2237,3.2525,3.3033,3.3308,3.3308,3.3308,3.3308,3.3308,3.3308,3.3308,3.3308,3.3308,3.3308,3.3308,3.3308,3.3308,3.3336,3.3768,3.4048,3.4273,3.4946,3.5302,3.5555,2.3505,2.3505,2.3505,2.3505,2.3505,2.3505,2.3505,2.3211,2.3003,2.3003,2.2686,2.2302,2.1864,2.1805,2.167,2.1324,2.1819,2.2086,2.1859,2.2475,2.2839,2.2839,2.241,2.2183,2.2183,2.1884,2.1884,2.2183,2.2612,2.2839,2.2839,2.2839,2.2839,2.2798,2.2062,2.1744,2.1735,2.1547,2.1698,2.211,2.2257,2.2925,2.3888,2.4315,2.5011,2.5819,2.6104,2.6383,2.6525,2.6247,2.7046,2.8396,2.9698,3.0247,3.044,3.0675,3.0361,3.005,3.0415,3.0865,3.1155,3.0854,3.0938,3.0965,3.0459,3.074,3.1078,3.0921,3.1218,3.1572,3.1808,3.2145,3.237,3.223,3.2539,3.2746,3.2746,3.2746,3.2748,3.2684,3.2345,3.1964,3.1643,3.1235,3.0992,3.0992,3.0748,3.0729,3.0973,3.0898,3.106,3.1561,3.2073,3.2453,3.2704,3.3086,3.3308,3.3308,3.3308,3.3308,3.3308,3.3308,3.3308,3.3308,3.3308,3.3448,3.3627,3.3392,3.3448,3.3683,3.4048,3.4375,3.4674,3.533,3.5723,3.5977,2.3505,2.3505,2.3505,2.3505,2.3505,2.3505,2.3505,2.3505,2.3505,2.3505,2.343,2.2943,2.1897,2.1805,2.167,2.1324,2.2645,2.3301,2.2872,2.3301,2.3602,2.3602,2.3602,2.3625,2.3699,2.2904,2.2848,2.3504,2.3569,2.3602,2.3602,2.3602,2.3602,2.3593,2.3304,2.3184,2.3175,2.2992,2.297,2.3043,2.3052,2.3989,2.542,2.542,2.6136,2.7147,2.7104,2.6948,2.6761,2.6995,2.832,2.9907,3.0122,3.0513,3.0866,3.049,3.0444,3.0528,3.064,3.1511,3.2286,3.178,3.1146,3.0809,3.1359,3.1089,3.0921,3.1471,3.1612,3.1836,3.2398,3.2483,3.2662,3.3224,3.3308,3.3308,3.3308,3.3308,3.3157,3.2793,3.2399,3.2019,3.1671,3.1254,3.0999,3.0917,3.0381,3.0343,3.0936,3.0797,3.0996,3.1671,3.2345,3.2721,3.2757,3.3122,3.3308,3.3308,3.3308,3.3308,3.3308,3.3364,3.3364,3.3308,3.342,3.3757,3.4161,3.3673,3.3785,3.4301,3.4329,3.4731,3.533,3.5892,3.6436,3.6914,2.3505,2.3505,2.3505,2.3505,2.3505,2.3505,2.3505,2.3505,2.3505,2.3505,2.2725,2.207,2.1842,2.1805,2.167,2.1324,2.2645,2.3593,2.3844,2.4135,2.4265,2.4265,2.4265,2.4556,2.5121,2.3908,2.3334,2.3504,2.4014,2.4265,2.4265,2.4265,2.4265,2.4265,2.3529,2.3184,2.3184,2.3149,2.3469,2.4008,2.4112,2.5047,2.6409,2.6409,2.7219,2.8351,2.7931,2.8426,2.9346,2.9729,3.0131,3.0543,3.0731,3.066,3.0519,3.0902,3.0769,3.0724,3.1707,3.2202,3.2483,3.2803,3.2437,3.1921,3.1555,3.2117,3.2606,3.2269,3.2578,3.2943,3.3083,3.3111,3.314,3.328,3.3308,3.3308,3.3308,3.3308,3.3273,3.3174,3.2793,3.2417,3.2019,3.1402,3.0785,3.0247,3.0577,3.074,3.0677,3.1134,3.1708,3.2435,3.2632,3.2846,3.3157,3.3273,3.3308,3.3308,3.3308,3.3308,3.3336,3.3796,3.374,3.3364,3.4355,3.4562,3.4217,3.4636,3.488,3.5048,3.5508,3.5761,3.592,3.6061,3.6202,3.6295,2.3505,2.3505,2.3505,2.3505,2.3505,2.3505,2.3505,2.3505,2.3505,2.3505,2.2514,2.1805,2.1805,2.1805,2.2222,2.3269,2.4061,2.4612,2.4839,2.4968,2.5033,2.5033,2.5033,2.5227,2.5606,2.4871,2.4482,2.4482,2.4839,2.5033,2.5033,2.5033,2.5033,2.4991,2.4544,2.454,2.4871,2.4871,2.529,2.5912,2.5999,2.6685,2.7699,2.7699,2.8232,2.8904,2.8636,2.9057,2.9869,3.0496,3.0703,3.0758,3.1013,3.0927,3.0825,3.1203,3.1387,3.1539,3.223,3.2606,3.2915,3.3224,3.3055,3.2746,3.2426,3.2606,3.2859,3.2831,3.3083,3.3308,3.3308,3.3308,3.3308,3.3308,3.3308,3.3308,3.3308,3.3308,3.3238,3.3033,3.265,3.2273,3.1891,3.1347,3.0936,3.0778,3.0797,3.0891,3.1052,3.146,3.1992,3.2686,3.3187,3.3533,3.3712,3.4056,3.4215,3.4197,3.387,3.3712,3.374,3.4393,3.4506,3.4243,3.4908,3.5142,3.5124,3.5189,3.5358,3.5667,3.5977,3.6117,3.6145,3.6408,3.652,3.652,2.3612,2.3505,2.3505,2.3505,2.3969,2.4284,2.4284,2.4284,2.4284,2.4284,2.2836,2.1805,2.1805,2.1805,2.2864,2.5468,2.5644,2.5681,2.5862,2.5713,2.5662,2.5791,2.5671,2.5597,2.5597,2.5726,2.5698,2.547,2.5569,2.5569,2.547,2.5589,2.5683,2.5791,2.5812,2.6209,2.6879,2.6879,2.7203,2.7711,2.7711,2.8142,2.88,2.893,2.9101,2.9272,2.9448,2.9592,2.9822,3.0681,3.0879,3.0861,3.1247,3.131,3.1311,3.1559,3.2005,3.2426,3.2539,3.2915,3.3308,3.3308,3.3308,3.3308,3.3308,3.2915,3.269,3.3196,3.3308,3.3308,3.3308,3.3308,3.3308,3.3308,3.3308,3.3308,3.3308,3.3308,3.3174,3.2828,3.2453,3.2073,3.1708,3.1235,3.1048,3.1302,3.0752,3.0759,3.1638,3.1823,3.2272,3.3097,3.3932,3.4375,3.4375,3.4918,3.5189,3.5189,3.4731,3.4488,3.4403,3.5058,3.5302,3.5189,3.5414,3.5723,3.6089,3.5667,3.5808,3.6239,3.6239,3.6239,3.6295,3.6829,3.6998,3.6998,2.404,2.3505,2.3505,2.3505,2.5746,2.7565,2.7565,2.7565,2.7565,2.7565,2.4196,2.1805,2.1805,2.1805,2.2974,2.5858,2.5803,2.5978,2.6915,2.6127,2.5865,2.6523,2.593,2.5597,2.5597,2.6222,2.6024,2.4981,2.5394,2.5394,2.5013,2.5597,2.6126,2.6568,2.6659,2.703,2.7549,2.7549,2.7624,2.7711,2.7711,2.8142,2.8865,2.9491,2.9783,2.992,3.0913,3.108,3.0996,3.172,3.1601,3.1241,3.1865,3.1773,3.157,3.2106,3.2342,3.2511,3.3027,3.3252,3.3308,3.3308,3.3308,3.3308,3.3308,3.3252,3.3196,3.328,3.3308,3.3308,3.3308,3.3308,3.3308,3.3308,3.3308,3.3308,3.3308,3.3308,3.329,3.3238,3.2846,3.2471,3.2073,3.1201,3.0526,3.0247,2.9806,3.0292,3.1944,3.2224,3.3105,3.4797,3.5002,3.5077,3.5077,3.5133,3.5189,3.5189,3.5639,3.5564,3.5077,3.5695,3.5695,3.5245,3.6295,3.6492,3.6145,3.6576,3.6801,3.6885,3.6885,3.6885,3.6885,3.697,3.6998,3.6998,2.3755,2.4932,2.6145,2.6145,2.7286,2.8213,2.8213,2.8213,2.8213,2.8213,2.6542,2.5075,2.4339,2.4249,2.5067,2.7071,2.6437,2.6419,2.7532,2.6769,2.6571,2.7235,2.6934,2.6772,2.6772,2.6801,2.644,2.5695,2.6103,2.6205,2.602,2.6038,2.6323,2.6818,2.6883,2.7423,2.8304,2.8304,2.8541,2.893,2.893,2.934,3.0009,3.0333,3.0406,3.0394,3.0838,3.112,3.1338,3.1679,3.1589,3.1481,3.2115,3.219,3.2117,3.2718,3.2887,3.2971,3.3224,3.3308,3.3308,3.3308,3.3308,3.3308,3.3308,3.3308,3.3308,3.3308,3.3308,3.3308,3.3308,3.3308,3.3308,3.3308,3.3308,3.3308,3.3308,3.3589,3.3724,3.3499,3.3309,3.2827,3.1855,3.1571,3.1202,3.0662,3.1315,3.2027,3.2686,3.3504,3.4344,3.5171,3.5527,3.5695,3.5695,3.6033,3.623,3.623,3.6464,3.6295,3.5723,3.6323,3.6464,3.6239,3.6773,3.6857,3.6604,3.6885,3.6998,3.6998,3.6998,3.6998,3.7054,3.7372,3.7484,3.756]}]]